[[{"header":{"parameterUnit":"m.s-1","parameterCategory":1,"la1":30.6,"la2":29.2853,"lo1":-89.7004,"lo2":-87.6739,"dy":0.0162,"dx":0.0183,"nx":112,"ny":82,"refTime":"2024-04-08T18:00:00:Z","depth":0,"parameterNumber":2,"parameterNumberName":"U-component_of_WINDS"},"data":[0.0,0.0,0.0,0.0,0.0,0.0,0.0,0.0,0.0,0.0,0.0,0.0,0.0,0.0,0.0,0.0,0.0,0.0,0.0,0.0,0.0,0.0,0.0,0.0,0.0,0.0,0.0,0.0,0.0,0.0,0.0,0.0,0.0,0.0,0.0,0.0,0.0,0.0,0.0,0.0,0.0,0.0,0.0,0.0,0.0,0.0,0.0,0.0,0.0,0.0,0.0,0.0,0.0,0.0,0.0,0.0,0.0,0.0,0.0,0.0,0.0,0.0,0.0,0.0,0.0,0.0,0.0,0.0,0.0,0.0,0.0,0.0,0.0,0.0,0.0,0.0,0.0,0.0,0.0,0.0,0.0,0.0,0.0,0.0,0.0,0.0,0.0,0.0,0.0,0.0,-5.4285,-5.4796,-5.7535,-6.0047,-6.1738,-6.0588,-5.9468,-5.8803,0.0,0.0,0.0,0.0,0.0,0.0,0.0,0.0,0.0,0.0,0.0,0.0,0.0,0.0,0.0,0.0,0.0,0.0,0.0,0.0,0.0,0.0,0.0,0.0,0.0,0.0,0.0,0.0,0.0,0.0,0.0,0.0,0.0,0.0,0.0,0.0,0.0,0.0,0.0,0.0,0.0,0.0,0.0,0.0,0.0,0.0,0.0,0.0,0.0,0.0,0.0,0.0,0.0,0.0,0.0,0.0,0.0,0.0,0.0,0.0,0.0,0.0,0.0,0.0,0.0,0.0,0.0,0.0,0.0,0.0,0.0,0.0,0.0,0.0,0.0,0.0,0.0,0.0,0.0,0.0,0.0,0.0,0.0,0.0,0.0,0.0,0.0,0.0,0.0,0.0,0.0,0.0,0.0,0.0,0.0,0.0,0.0,0.0,0.0,0.0,0.0,0.0,0.0,0.0,-5.2909,-5.5661,-5.8945,-6.0554,-5.9607,-5.8727,-5.7938,-5.7211,0.0,0.0,0.0,0.0,0.0,0.0,0.0,0.0,0.0,0.0,0.0,0.0,0.0,0.0,0.0,0.0,0.0,0.0,0.0,0.0,0.0,0.0,0.0,0.0,0.0,0.0,0.0,0.0,0.0,0.0,0.0,0.0,0.0,0.0,0.0,0.0,0.0,0.0,0.0,0.0,0.0,0.0,0.0,0.0,0.0,0.0,0.0,0.0,0.0,0.0,0.0,0.0,0.0,0.0,0.0,0.0,0.0,0.0,0.0,0.0,0.0,0.0,0.0,0.0,0.0,0.0,0.0,0.0,0.0,0.0,0.0,0.0,0.0,0.0,0.0,0.0,0.0,0.0,0.0,0.0,0.0,0.0,0.0,0.0,0.0,0.0,0.0,0.0,0.0,0.0,0.0,0.0,0.0,0.0,0.0,0.0,0.0,0.0,0.0,0.0,0.0,0.0,0.0,-5.1759,-5.2649,-5.5856,-5.7592,-5.8835,-5.9535,-5.8186,-5.7147,-5.685,-5.6372,0.0,0.0,0.0,0.0,0.0,0.0,0.0,0.0,0.0,0.0,0.0,0.0,0.0,0.0,0.0,0.0,0.0,0.0,0.0,0.0,0.0,0.0,0.0,0.0,0.0,0.0,0.0,0.0,0.0,0.0,0.0,0.0,0.0,0.0,0.0,0.0,0.0,0.0,0.0,0.0,0.0,0.0,0.0,0.0,0.0,0.0,0.0,0.0,0.0,0.0,0.0,0.0,0.0,0.0,0.0,0.0,0.0,0.0,0.0,0.0,0.0,0.0,0.0,0.0,0.0,0.0,0.0,0.0,0.0,0.0,0.0,0.0,0.0,0.0,0.0,0.0,0.0,0.0,0.0,0.0,0.0,0.0,0.0,0.0,0.0,0.0,0.0,0.0,0.0,0.0,0.0,0.0,0.0,0.0,0.0,0.0,0.0,0.0,0.0,0.0,0.0,0.0,-5.1634,-5.2524,-5.5142,-5.606,-5.7216,-5.9022,-5.7701,-5.6731,-5.6562,-5.531,0.0,0.0,0.0,0.0,0.0,0.0,0.0,0.0,0.0,0.0,0.0,0.0,0.0,0.0,0.0,0.0,0.0,0.0,0.0,0.0,0.0,0.0,0.0,0.0,0.0,0.0,0.0,0.0,0.0,0.0,0.0,0.0,0.0,0.0,0.0,0.0,0.0,0.0,0.0,0.0,0.0,0.0,0.0,0.0,0.0,0.0,0.0,0.0,0.0,0.0,0.0,0.0,0.0,0.0,0.0,0.0,0.0,0.0,0.0,0.0,0.0,0.0,0.0,0.0,0.0,0.0,0.0,0.0,0.0,0.0,0.0,0.0,0.0,0.0,0.0,0.0,0.0,0.0,0.0,0.0,0.0,0.0,0.0,0.0,0.0,0.0,0.0,0.0,0.0,0.0,0.0,0.0,0.0,0.0,0.0,0.0,0.0,0.0,0.0,0.0,0.0,0.0,-5.098,-5.2262,-5.3072,-5.5656,-5.7067,-5.6519,-5.6657,-5.6528,-5.5817,-5.504,0.0,0.0,0.0,0.0,0.0,0.0,0.0,0.0,0.0,0.0,0.0,0.0,0.0,0.0,0.0,0.0,0.0,0.0,0.0,0.0,0.0,0.0,0.0,0.0,0.0,0.0,0.0,0.0,0.0,0.0,0.0,0.0,0.0,0.0,0.0,0.0,0.0,0.0,0.0,0.0,0.0,0.0,0.0,0.0,0.0,0.0,0.0,0.0,0.0,0.0,0.0,0.0,0.0,0.0,0.0,0.0,0.0,0.0,0.0,0.0,0.0,0.0,0.0,0.0,0.0,0.0,0.0,0.0,0.0,0.0,0.0,0.0,0.0,0.0,0.0,0.0,0.0,0.0,0.0,0.0,0.0,0.0,0.0,0.0,0.0,0.0,0.0,0.0,0.0,0.0,0.0,0.0,0.0,0.0,0.0,0.0,0.0,0.0,0.0,0.0,0.0,0.0,-4.937,-5.0825,-5.2175,-5.3667,-5.5012,-5.6119,-5.5923,-5.5706,-5.568,0.0,0.0,0.0,0.0,0.0,0.0,0.0,0.0,0.0,0.0,0.0,0.0,0.0,0.0,0.0,0.0,0.0,0.0,0.0,0.0,0.0,0.0,0.0,0.0,0.0,0.0,0.0,0.0,0.0,0.0,0.0,0.0,0.0,0.0,0.0,0.0,0.0,0.0,0.0,0.0,0.0,0.0,0.0,0.0,0.0,0.0,0.0,0.0,0.0,0.0,0.0,0.0,0.0,0.0,0.0,0.0,0.0,0.0,0.0,0.0,0.0,0.0,0.0,0.0,0.0,0.0,0.0,0.0,0.0,0.0,0.0,0.0,0.0,0.0,0.0,0.0,0.0,0.0,0.0,0.0,0.0,0.0,0.0,0.0,0.0,0.0,0.0,0.0,0.0,0.0,0.0,0.0,0.0,0.0,0.0,0.0,0.0,0.0,0.0,0.0,0.0,0.0,-4.7279,-4.8446,-4.9854,-5.1189,-5.2092,-5.3181,-5.4729,-5.46,-5.4523,-5.4816,0.0,0.0,0.0,0.0,0.0,0.0,0.0,0.0,0.0,0.0,0.0,0.0,0.0,0.0,0.0,0.0,0.0,0.0,0.0,0.0,0.0,0.0,0.0,0.0,0.0,0.0,0.0,0.0,0.0,0.0,0.0,0.0,0.0,0.0,0.0,0.0,0.0,0.0,0.0,0.0,0.0,0.0,0.0,0.0,0.0,0.0,0.0,0.0,0.0,0.0,0.0,0.0,0.0,0.0,0.0,0.0,0.0,0.0,0.0,0.0,0.0,0.0,0.0,0.0,0.0,0.0,0.0,0.0,0.0,0.0,0.0,0.0,0.0,0.0,0.0,0.0,0.0,0.0,0.0,0.0,0.0,0.0,0.0,0.0,0.0,0.0,0.0,0.0,0.0,0.0,0.0,0.0,0.0,0.0,0.0,0.0,0.0,0.0,0.0,0.0,0.0,0.0,-4.7146,-4.8446,-4.9494,-5.0106,-5.1161,-5.1878,-5.1878,-5.2506,-5.2975,0.0,0.0,0.0,0.0,0.0,0.0,0.0,0.0,0.0,0.0,0.0,0.0,0.0,0.0,0.0,0.0,0.0,0.0,0.0,0.0,0.0,0.0,0.0,0.0,0.0,0.0,0.0,0.0,0.0,0.0,0.0,0.0,0.0,0.0,0.0,0.0,0.0,0.0,0.0,0.0,0.0,0.0,0.0,0.0,0.0,0.0,0.0,0.0,0.0,0.0,0.0,0.0,0.0,0.0,0.0,0.0,0.0,0.0,0.0,0.0,0.0,0.0,0.0,0.0,0.0,0.0,0.0,0.0,0.0,0.0,0.0,0.0,0.0,0.0,0.0,0.0,0.0,0.0,0.0,0.0,0.0,0.0,0.0,0.0,0.0,0.0,0.0,0.0,0.0,0.0,0.0,0.0,0.0,0.0,0.0,0.0,0.0,0.0,0.0,0.0,0.0,0.0,0.0,-4.4574,-4.535,-4.6357,-4.7427,-4.8269,-4.9419,-5.1048,-5.0483,-5.0564,-5.1855,0.0,0.0,0.0,0.0,0.0,0.0,0.0,0.0,0.0,0.0,0.0,0.0,0.0,0.0,0.0,0.0,0.0,0.0,0.0,0.0,0.0,0.0,0.0,0.0,0.0,0.0,0.0,0.0,0.0,0.0,0.0,0.0,0.0,0.0,0.0,0.0,0.0,0.0,0.0,0.0,0.0,0.0,0.0,0.0,0.0,0.0,0.0,0.0,0.0,0.0,0.0,0.0,0.0,0.0,0.0,0.0,0.0,0.0,0.0,0.0,0.0,0.0,0.0,0.0,0.0,0.0,0.0,0.0,0.0,0.0,0.0,0.0,0.0,0.0,0.0,0.0,0.0,0.0,0.0,0.0,0.0,0.0,0.0,0.0,0.0,0.0,0.0,0.0,0.0,0.0,0.0,0.0,0.0,0.0,0.0,0.0,0.0,0.0,0.0,0.0,0.0,0.0,-4.283,-4.3575,-4.4542,-4.5534,-4.6469,-4.7583,-4.8966,-4.8683,-4.8876,-4.9931,0.0,0.0,0.0,0.0,0.0,0.0,0.0,0.0,0.0,0.0,0.0,0.0,0.0,0.0,0.0,0.0,0.0,0.0,0.0,0.0,0.0,0.0,0.0,0.0,0.0,0.0,0.0,0.0,0.0,0.0,0.0,0.0,0.0,0.0,0.0,0.0,0.0,0.0,0.0,0.0,0.0,0.0,0.0,0.0,0.0,0.0,0.0,0.0,0.0,0.0,0.0,0.0,0.0,0.0,0.0,0.0,0.0,0.0,0.0,0.0,0.0,0.0,0.0,0.0,0.0,0.0,0.0,0.0,0.0,0.0,0.0,0.0,0.0,0.0,0.0,0.0,0.0,0.0,0.0,0.0,0.0,0.0,0.0,0.0,0.0,0.0,0.0,0.0,0.0,0.0,0.0,0.0,0.0,0.0,0.0,0.0,0.0,0.0,0.0,0.0,0.0,0.0,-4.158,-4.2488,-4.3423,-4.4153,-4.5289,-4.6021,-4.6114,-4.6813,-4.7323,-4.7465,0.0,0.0,0.0,0.0,0.0,0.0,0.0,0.0,0.0,0.0,0.0,0.0,0.0,0.0,0.0,0.0,0.0,0.0,0.0,0.0,0.0,0.0,0.0,0.0,0.0,0.0,0.0,0.0,0.0,0.0,0.0,0.0,0.0,0.0,0.0,0.0,0.0,0.0,0.0,0.0,0.0,0.0,0.0,0.0,0.0,0.0,0.0,0.0,0.0,0.0,0.0,0.0,0.0,0.0,0.0,0.0,0.0,0.0,0.0,0.0,-5.0915,-5.229,0.0,0.0,0.0,0.0,0.0,0.0,0.0,0.0,0.0,0.0,0.0,0.0,0.0,0.0,0.0,0.0,0.0,0.0,0.0,0.0,0.0,0.0,0.0,0.0,0.0,0.0,0.0,0.0,0.0,0.0,0.0,0.0,0.0,0.0,0.0,0.0,0.0,0.0,0.0,0.0,-4.0174,-4.0024,-4.0478,-4.2043,-4.244,-4.3024,-4.4029,-4.3409,-4.3614,-4.504,-4.4719,0.0,0.0,0.0,0.0,0.0,0.0,0.0,0.0,0.0,0.0,0.0,0.0,0.0,0.0,0.0,0.0,0.0,0.0,0.0,0.0,0.0,0.0,0.0,0.0,0.0,0.0,0.0,0.0,0.0,0.0,0.0,0.0,0.0,0.0,0.0,0.0,0.0,0.0,0.0,0.0,0.0,0.0,0.0,0.0,0.0,0.0,0.0,0.0,0.0,0.0,0.0,0.0,0.0,0.0,0.0,0.0,0.0,0.0,0.0,-4.8181,-4.9455,0.0,0.0,0.0,0.0,0.0,0.0,0.0,0.0,0.0,0.0,0.0,0.0,0.0,0.0,0.0,0.0,0.0,0.0,0.0,0.0,0.0,0.0,0.0,0.0,0.0,0.0,0.0,0.0,0.0,0.0,0.0,0.0,0.0,0.0,0.0,0.0,0.0,0.0,0.0,0.0,-3.8888,-3.8637,-3.907,-4.0515,-4.1219,-4.1887,-4.2544,-4.2301,-4.2379,-4.3043,-4.2682,0.0,0.0,0.0,0.0,0.0,0.0,0.0,0.0,0.0,0.0,0.0,0.0,0.0,0.0,0.0,0.0,0.0,0.0,0.0,0.0,0.0,0.0,0.0,0.0,0.0,0.0,0.0,0.0,0.0,0.0,0.0,0.0,0.0,0.0,0.0,0.0,0.0,0.0,0.0,0.0,0.0,0.0,0.0,0.0,0.0,0.0,0.0,0.0,0.0,0.0,0.0,0.0,0.0,-4.4243,-4.3487,-4.1838,-4.3364,-4.3769,-4.3436,-4.5859,-4.7083,-4.7391,-4.7986,0.0,0.0,0.0,0.0,0.0,0.0,0.0,0.0,0.0,0.0,0.0,0.0,0.0,0.0,0.0,0.0,0.0,0.0,0.0,0.0,0.0,0.0,-3.5685,-3.6671,-3.779,-3.9346,-4.1865,0.0,0.0,0.0,0.0,0.0,0.0,0.0,0.0,0.0,0.0,0.0,-3.7886,-3.7939,-3.8442,-3.9572,-4.0642,-4.1217,-4.1138,-4.1486,-4.1575,-4.1251,-4.1032,-4.1074,0.0,0.0,0.0,0.0,0.0,0.0,0.0,0.0,0.0,0.0,0.0,0.0,0.0,0.0,0.0,0.0,0.0,0.0,0.0,0.0,0.0,0.0,0.0,0.0,0.0,0.0,0.0,0.0,0.0,0.0,0.0,0.0,-5.22,-5.22,0.0,0.0,0.0,0.0,0.0,0.0,0.0,0.0,0.0,0.0,0.0,0.0,0.0,-4.6448,-4.6278,-4.5497,-4.4392,-4.3085,-4.4544,-4.4562,-4.3416,-4.3287,-4.2973,-4.2479,-4.2886,0.0,-4.8372,-4.9173,0.0,0.0,0.0,0.0,0.0,0.0,0.0,0.0,0.0,0.0,0.0,0.0,0.0,0.0,0.0,0.0,0.0,0.0,0.0,0.0,0.0,0.0,-3.5938,-3.563,-3.5704,-3.6164,-3.7356,-4.0331,-4.2796,-4.2713,-4.2297,-4.2011,0.0,0.0,0.0,0.0,0.0,0.0,-3.726,-3.7713,-3.8442,-3.9572,-3.9826,-3.9778,-3.9297,-3.8864,-3.8788,-3.923,-3.8296,-3.8666,-4.0824,-3.9852,0.0,0.0,0.0,0.0,0.0,0.0,0.0,0.0,0.0,0.0,0.0,0.0,0.0,0.0,0.0,0.0,0.0,0.0,0.0,0.0,0.0,0.0,0.0,0.0,0.0,0.0,0.0,0.0,0.0,-4.9651,-5.028,-4.9913,-5.0871,-5.1169,0.0,0.0,0.0,0.0,0.0,0.0,0.0,0.0,0.0,-4.6504,-4.5629,-4.5142,-4.5142,-4.511,-4.4392,-4.31,-4.3888,-4.3392,-4.1938,-4.2776,-4.3551,-4.4135,-4.3776,-4.5162,-4.7421,-4.5822,-4.4699,-4.4011,0.0,0.0,0.0,0.0,-4.1233,-4.1015,-4.0773,-4.0507,-4.0519,-4.2027,0.0,0.0,0.0,0.0,0.0,0.0,0.0,-3.4328,-3.4134,-3.3622,-3.3122,-3.2877,-3.3473,-3.4171,-3.4614,-3.6265,-3.819,-3.9786,-3.9495,-3.8856,-3.85,-3.6747,0.0,0.0,0.0,-3.557,-3.739,-3.7864,-3.8442,-3.9572,-3.9697,-3.9471,-3.8969,-3.8642,-3.8337,-3.7954,-3.7441,-3.7814,-3.9222,-3.9105,-3.9492,0.0,0.0,0.0,0.0,0.0,0.0,0.0,0.0,0.0,0.0,0.0,0.0,0.0,0.0,0.0,0.0,0.0,0.0,0.0,0.0,0.0,0.0,0.0,0.0,0.0,0.0,0.0,0.0,-4.8535,-4.9088,-4.8234,-4.9672,-4.9959,0.0,0.0,0.0,0.0,0.0,0.0,-4.5876,-4.6253,-4.5599,-4.3841,-4.4172,-4.442,-4.4469,-4.4337,-4.3826,-4.2789,-4.2789,-4.1999,-4.076,-4.1907,-4.3068,-4.4142,-4.3571,-4.3845,-4.4573,-4.2615,-4.108,-4.0007,-3.9601,-3.9109,-3.8663,-3.8238,-3.7962,-3.7742,-3.761,-3.7198,-3.703,-3.8433,-3.755,-3.6128,-3.7146,0.0,0.0,0.0,0.0,-3.253,-3.253,-3.171,-3.0898,-3.0898,-3.171,-3.2602,-3.2874,-3.3224,-3.4102,-3.6464,-3.6207,-3.5493,-3.5016,-3.3536,0.0,-3.395,-3.3684,-3.4291,-3.6949,-3.7394,-3.8066,-3.952,-3.9572,-3.9245,-3.8693,-3.8517,-3.8015,-3.7036,-3.7033,-3.7188,-3.7658,-3.8115,-3.8527,-3.8765,0.0,0.0,0.0,0.0,0.0,0.0,0.0,0.0,0.0,0.0,0.0,0.0,0.0,0.0,0.0,0.0,0.0,0.0,0.0,0.0,0.0,0.0,0.0,0.0,0.0,0.0,0.0,0.0,0.0,-4.8912,-4.9499,0.0,0.0,0.0,0.0,-4.3984,-4.4432,-4.4654,-4.4676,-4.5404,-4.5867,-4.6011,-4.4709,-4.4012,-4.4142,-4.2346,-4.1424,-4.1288,-4.1288,-4.1288,-4.1113,-4.0445,-4.0128,-4.0144,-3.9692,-3.9313,-3.9201,-4.1442,-4.1993,-4.1458,-4.1055,-4.0542,-3.9844,-3.8423,-3.7382,-3.6498,-3.5933,-3.5472,-3.5311,-3.6462,-3.6488,-3.5994,-3.5578,-3.4425,0.0,0.0,-3.215,-3.0995,-3.0995,-3.0957,-3.0898,-3.0898,-3.0957,-3.1263,-3.2232,-3.2419,-3.28,-3.3793,-3.3225,-3.2544,-3.2471,0.0,-3.2196,-3.1748,-3.2067,-3.3092,-3.5075,-3.58,-3.7054,-3.9469,-3.922,-3.8668,-3.809,-3.7563,-3.701,-3.648,-3.6455,-3.643,-3.6499,-3.6524,-3.7036,-3.81,-3.7687,0.0,0.0,0.0,0.0,0.0,0.0,0.0,0.0,0.0,0.0,0.0,0.0,0.0,0.0,0.0,0.0,0.0,0.0,0.0,0.0,0.0,0.0,0.0,0.0,0.0,0.0,0.0,0.0,-4.7493,-4.8217,0.0,-4.5479,-4.4584,-4.4147,-4.4147,-4.495,-4.52,-4.4603,-4.5223,-4.4905,-4.3433,-4.2826,-4.2476,-4.2273,-4.154,-4.1172,-4.1172,-4.1172,-4.1172,-4.1152,-4.0566,-4.0797,-4.1555,-3.9895,-3.9659,-4.0351,-4.0094,-3.9355,-3.837,-3.7698,-3.7102,-3.6521,-3.5759,-3.5264,-3.4879,-3.4355,-3.3915,-3.3557,-3.3409,-3.309,-3.2699,-3.2534,-3.2113,-3.1652,-3.1652,-3.1344,-3.0898,-3.0898,-3.0898,-3.082,-3.0508,-3.0449,-3.0484,-3.0594,-3.0364,-3.0233,-3.0594,-3.1138,-3.1533,-3.1481,-3.0265,-2.9777,-3.0974,-3.0858,-3.1418,-3.3645,-3.4812,-3.5973,-3.7178,-3.789,-3.809,-3.7513,-3.7287,-3.6598,-3.5211,-3.5906,-3.5595,-3.3824,-3.4605,-3.5136,-3.5145,-3.4601,-3.5097,0.0,0.0,0.0,0.0,0.0,0.0,0.0,0.0,0.0,0.0,0.0,0.0,0.0,0.0,0.0,0.0,0.0,0.0,0.0,0.0,0.0,0.0,0.0,0.0,0.0,-4.6476,-4.7165,-4.6706,-4.7498,-4.7356,-4.5218,-4.4377,-4.3923,-4.3923,-4.4646,-4.4689,-4.3878,-4.4328,-4.3775,-4.1895,-4.1797,-4.1601,-4.1172,-4.1172,-4.1172,-4.1172,-4.1172,-4.1094,-4.0937,-4.0508,-4.0718,-4.1383,-3.9731,-3.944,-4.0054,-3.8687,-3.7559,-3.6641,-3.6211,-3.5664,-3.5098,-3.4668,-3.4336,-3.3984,-3.3418,-3.2832,-3.2266,-3.1699,-3.123,-3.0898,-3.0898,-3.0898,-3.0898,-3.0898,-3.0898,-3.0859,-3.0703,-3.0664,-3.0547,-3.0098,-2.998,-2.9863,-2.9453,-2.9121,-2.8887,-2.873,-2.9481,-3.0154,-3.0122,-2.886,-2.8423,-3.0064,-2.9782,-3.0276,-3.2612,-3.3585,-3.4583,-3.6098,-3.6745,-3.7097,-3.7211,-3.6599,-3.5673,-3.4245,-3.4414,-3.3767,-3.1937,-3.2748,-3.3116,-3.2881,-3.2392,-3.2559,-3.3465,0.0,0.0,0.0,0.0,0.0,0.0,0.0,0.0,0.0,0.0,0.0,0.0,0.0,0.0,0.0,0.0,0.0,0.0,0.0,0.0,0.0,0.0,0.0,-4.4184,-4.6617,-4.7742,-4.6536,-4.7468,-4.7396,-4.5205,-4.388,-4.3105,-4.3105,-4.3105,-4.291,-4.248,-4.2851,-4.2695,-4.1855,-4.1816,-4.1601,-4.1172,-4.1172,-4.1172,-4.1172,-4.1172,-4.0937,-4.0508,-4.0059,-3.9609,-3.918,-3.873,-3.8301,-3.7891,-3.7461,-3.7051,-3.6719,-3.7109,-3.6738,-3.5957,-3.5527,-3.4805,-3.3906,-3.3047,-3.2207,-3.1523,-3.1504,-3.123,-3.0898,-3.0898,-3.0898,-3.0898,-3.0898,-3.0879,-3.0762,-3.0312,-3.0176,-3.0078,-2.9648,-2.9551,-2.9434,-2.8984,-2.8887,-2.8769,-2.8359,-2.8281,-2.8281,-2.8301,-2.8301,-2.8437,-2.8848,-2.8906,0.0,-3.1996,-3.1999,-3.3007,-3.6179,-3.569,-3.5669,-3.6967,-3.5381,-3.4099,-3.3601,-3.194,-3.0948,-3.0852,-3.09,-3.1125,-3.1591,-3.1143,-3.0426,-2.9485,0.0,0.0,0.0,0.0,0.0,0.0,0.0,0.0,0.0,0.0,0.0,0.0,0.0,0.0,0.0,0.0,0.0,0.0,0.0,0.0,0.0,-4.115,-4.2303,-4.3382,-4.4076,-4.4682,-4.4947,-4.5804,-4.6071,-4.5107,-4.439,-4.3906,-4.3555,-4.3535,-4.3476,-4.3359,-4.3183,-4.2832,-4.2266,-4.1953,-4.1601,-4.1172,-4.1172,-4.1172,-4.1172,-4.0859,-4.0644,-4.0488,-3.9414,-3.9043,-3.9141,-3.8105,-3.7754,-3.7891,-3.7461,-3.7051,-3.666,-3.6445,-3.6035,-3.5508,-3.5059,-3.416,-3.3027,-3.2168,-3.1719,-3.1465,-3.1172,-3.0996,-3.0898,-3.0898,-3.0898,-3.0898,-3.0898,-3.0644,-3.0351,-3.0234,-2.9961,-2.9629,-2.9199,-2.9101,-2.8984,-2.8555,-2.8223,-2.8066,-2.8262,-2.8047,-2.793,-2.8242,-2.8301,-2.834,-2.8437,-2.8457,-2.8815,-2.9729,-3.036,-3.1317,-3.2857,-3.3347,-3.3737,-3.4093,-3.338,-3.2122,-3.0411,-3.0462,-2.9672,-2.7746,-2.8606,-2.9284,-2.9607,-3.086,-3.1278,0.0,0.0,0.0,0.0,0.0,0.0,0.0,0.0,0.0,0.0,0.0,0.0,0.0,0.0,0.0,0.0,0.0,0.0,0.0,0.0,0.0,0.0,-4.0976,-4.1867,-4.2697,-4.326,-4.3887,-4.457,-4.541,-4.584,-4.5586,-4.5019,-4.4551,-4.4277,-4.375,-4.3437,-4.3437,-4.2871,-4.2422,-4.2168,-4.1758,-4.1426,-4.1172,-4.1172,-4.1172,-4.1172,-4.0723,-4.043,-4.0215,-3.9082,-3.8613,-3.8613,-3.7695,-3.7344,-3.7383,-3.7148,-3.6777,-3.6367,0.0,0.0,0.0,0.0,-3.3203,-3.2187,-3.1699,-3.1406,-3.1211,-3.0976,-3.0762,-3.0605,-3.0605,-3.0469,-3.0332,-3.0332,-3.0137,-2.9883,-2.9707,-2.9473,-2.918,-2.875,-2.8652,-2.8535,-2.8125,-2.7832,-2.7787,-2.7988,-2.7676,0.0,-2.8184,-2.8301,-2.8359,-2.8535,-2.8555,-2.8711,-2.9141,-2.9653,-3.0348,-3.127,-3.1858,-3.2331,-3.2677,-3.1951,0.0,0.0,0.0,-2.7945,-2.6163,-2.7221,0.0,0.0,0.0,-2.9692,-2.9642,-2.9918,0.0,0.0,-3.0687,-3.1273,0.0,0.0,0.0,0.0,0.0,0.0,0.0,0.0,0.0,0.0,0.0,0.0,0.0,0.0,0.0,0.0,-4.0998,-4.1094,-4.2324,-4.3633,-4.4609,-4.498,-4.5742,-4.625,-4.6289,-4.5566,-4.5078,-4.5039,-4.3906,-4.3183,-4.3086,-4.2305,0.0,0.0,0.0,-4.1172,-4.1172,-4.1172,-4.1172,-4.1172,-4.0684,-4.0254,-3.9863,-3.8926,-3.8281,-3.7891,-3.7422,-3.7012,-3.666,-3.6621,-3.6309,-3.5879,-3.5879,-3.5332,-3.4414,-3.3184,-3.2207,-3.1504,-3.1465,0.0,0.0,-3.0898,-3.0586,-3.0195,-3.0195,-2.9902,-2.9626,-2.9626,-2.9531,-2.9414,-2.9023,-2.8887,-2.875,-2.8379,-2.8262,-2.8125,-2.7812,-2.7669,-2.7611,-2.7767,-2.7344,-2.7285,-2.8144,-2.8262,-2.8359,-2.8789,-2.8848,-2.9004,-2.9434,-2.9453,-2.9794,-3.0752,-3.0796,0.0,-3.1856,-3.0794,-2.9703,-2.8744,-2.7162,-2.6074,-2.5635,-2.6445,-2.6894,-2.6934,-2.6953,-2.6973,-2.7012,-2.7012,-2.7246,-2.7728,-2.9361,-2.9912,0.0,0.0,0.0,0.0,0.0,0.0,0.0,0.0,0.0,0.0,0.0,0.0,0.0,0.0,0.0,-4.0241,-4.0992,-4.1875,-4.2812,-4.4082,-4.4941,-4.5019,-4.5488,-4.5937,-4.6269,-4.584,-4.541,-4.5058,-4.4473,-4.3828,-4.3125,-4.2598,-4.2148,-4.1816,-4.1387,-4.1172,-4.1172,-4.1172,-4.1172,-4.1172,-4.0391,0.0,-3.9863,-3.8613,-3.8008,-3.7891,-3.7129,-3.6738,-3.6641,-3.6289,-3.5684,-3.4961,-3.4961,-3.4434,-3.3555,-3.2637,-3.1973,-3.1465,-3.1133,-3.0957,-3.0898,-3.0898,-3.0586,-3.0195,-3.0195,-2.9902,0.0,-2.9626,-2.9316,-2.9023,-2.8945,-2.8672,-2.8398,-2.832,-2.8027,-2.7851,-2.8125,-2.7363,-2.6934,-2.7969,-2.7539,-2.7285,-2.8144,-2.8008,-2.793,-2.8359,-2.8418,-2.8574,-2.8984,-2.875,-2.8878,-2.9743,-2.956,-2.9357,-2.9527,-2.8993,-2.8192,-2.6963,-2.5956,-2.5341,-2.5195,-2.5703,-2.6152,-2.6504,-2.6504,-2.668,-2.7012,-2.7012,-2.7246,-2.7728,-2.8404,-2.8648,0.0,0.0,0.0,0.0,0.0,0.0,0.0,0.0,0.0,0.0,0.0,-4.098,-4.0403,0.0,-4.0778,-4.0857,-4.1738,-4.2656,-4.3301,-4.3945,-4.4531,-4.498,-4.5605,-4.6074,-4.6289,-4.5918,-4.5488,-4.5058,-4.4219,-4.3457,-4.2793,-4.2148,-4.1699,-4.1484,-4.1289,-4.1172,-4.1172,-4.1172,-4.1172,-4.1172,-4.0312,-3.9902,-3.9844,-3.8301,-3.7617,-3.7559,-3.6719,-3.6348,-3.6309,-3.5879,-3.5312,-3.4668,-3.4473,-3.373,-3.2734,-3.2324,-3.1758,-3.1172,-3.0957,-3.0898,-3.0859,-3.0625,-3.0234,-2.9844,-2.9629,-2.9258,-2.8926,-2.8926,-2.8769,-2.8613,-2.8613,-2.8457,-2.8301,-2.8301,-2.8125,-2.7988,-2.7988,-2.748,-2.7226,-2.7851,-2.7461,-2.7285,-2.8144,-2.7949,-2.7865,-2.8223,-2.8301,-2.8359,-2.8574,-2.8613,-2.8691,-2.8906,-2.8926,-2.8828,-2.8633,-2.8027,-2.7383,-2.6738,-2.5879,-2.541,-2.541,-2.582,-2.6172,-2.6387,-2.6387,-2.6602,-2.7012,-2.7012,-2.7246,-2.7728,-2.7943,-2.7988,0.0,0.0,0.0,0.0,0.0,0.0,0.0,-4.0824,-4.1087,-4.1683,-4.1144,-4.0802,-4.1407,-4.1183,-4.1172,-4.2031,-4.2754,-4.3359,-4.3789,-4.3984,-4.4484,-4.5515,-4.5883,-4.6113,-4.6289,-4.584,-4.541,-4.5058,-4.3887,-4.3008,-4.2578,-4.1836,-4.1387,-4.1308,-4.1211,-4.1172,-4.1172,-4.1172,-4.1172,-4.1172,-4.0312,-3.9844,-3.9707,-3.8125,-3.7383,-3.7266,-3.6484,-3.6055,-3.5859,-3.543,-3.5,-3.4531,-3.4023,-3.3144,-3.2229,-3.2229,-3.1621,-3.0898,-3.0898,-3.084,-3.0703,-3.0312,-2.9863,-2.9375,-2.9023,-2.8633,-2.8301,-2.8301,-2.8301,-2.8301,-2.8301,-2.8301,-2.8301,-2.8301,-2.8223,-2.8105,-2.7904,-2.7656,-2.7578,-2.7754,-2.7441,-2.7383,-2.8164,-2.8008,-2.791,-2.8242,-2.8301,-2.8301,-2.8301,-2.8594,-2.8672,-2.832,-2.8594,-2.8633,-2.8203,-2.7461,-2.6973,-2.6894,-2.6122,-2.5693,-2.5693,-2.6074,-2.6269,-2.6269,-2.6269,-2.6426,-2.6758,-2.6758,-2.6992,-2.7474,-2.7474,-2.7552,-4.6301,-4.4328,-4.183,-3.9603,-3.9931,-4.0715,0.0,-4.1053,-4.1358,-4.0769,-4.1166,-4.1581,-4.1305,-4.1798,-4.25,-4.3359,-4.3574,-4.3789,-4.4258,-4.498,-4.6081,-4.7734,-4.6245,-4.5469,-4.623,-4.5566,-4.5078,-4.5039,-4.416,-4.3457,-4.3027,-4.2539,-4.2109,-4.1738,-4.1367,-4.1172,-4.1172,-4.1172,-4.1172,-4.1172,-4.0312,-3.9687,-3.9258,-3.8281,-3.7656,-3.7266,-3.6797,-3.6172,-3.543,-3.4961,-3.4531,-3.4062,-3.3262,-3.2617,-3.2229,-3.2229,-3.1621,-3.0898,-3.0898,-3.0625,-3.0273,-3.0215,-2.9648,-2.8984,-2.8945,-2.8633,-2.8301,-2.8301,-2.8301,-2.8301,-2.8301,-2.8301,-2.8301,-2.8301,-2.8008,-2.7832,-2.8144,-2.7617,-2.7305,-2.8066,-2.7871,-2.7754,-2.8203,-2.8262,-2.8242,-2.8281,-2.8301,-2.8301,-2.8301,-2.834,-2.834,-2.8301,-2.834,-2.8184,-2.7826,-2.7285,-2.6855,-2.6484,-2.5996,-2.5693,-2.5693,-2.5732,-2.5752,-2.5752,-2.5752,-2.5791,-2.583,-2.583,-2.6113,-2.6543,-2.6543,-2.6934,-4.4697,-4.2886,-4.1114,-3.8356,-3.8608,-3.9596,-4.0026,-4.0369,-4.0649,-4.0876,-4.1387,-4.1758,-4.1562,-4.2441,-4.3281,-4.3652,-4.5243,-4.6555,-4.7025,-4.8004,-4.905,-4.9931,-4.8961,-4.8707,-4.9998,-4.846,-4.7835,-4.9149,-4.5774,-4.4169,-4.5331,-4.326,-4.1973,-4.1816,-4.1387,-4.1172,-4.1172,-4.1172,-4.1035,-4.0781,-4.0176,-3.9531,-3.8809,-3.7949,-3.7187,-3.6523,-3.6113,-3.6308,-3.6664,-3.5001,-3.462,-3.496,-3.3381,-3.2383,-3.1797,-3.1797,-3.1406,-3.0898,-3.0898,-3.0586,-3.0156,-2.9922,-2.9414,-2.8867,-2.8633,-2.8437,-2.8301,-2.8301,-2.8301,-2.8301,-2.8301,-2.8301,-2.8301,-2.8301,-2.8164,-2.8086,-2.8262,-2.8008,-2.7871,-2.8223,-2.8144,-2.8086,-2.8262,-2.8301,-2.8301,-2.8301,-2.8301,-2.8301,-2.8301,-2.8301,-2.8203,-2.7949,-2.7695,-2.748,-2.7305,-2.6894,-2.6582,-2.6406,-2.5977,-2.5693,-2.5693,-2.5693,-2.5693,-2.5693,-2.5693,-2.5693,-2.5693,-2.5996,-2.6211,-2.6387,-2.6387,-2.6582,-4.2811,-4.1584,-4.0869,-3.7677,-3.7891,-3.9141,-3.9902,-4.0156,-4.043,-4.1055,-4.1601,-4.2131,-4.2723,-4.3959,-4.5022,-4.5697,-4.7834,-4.9539,-4.9882,-5.063,-5.139,-5.1957,-5.1639,-5.2159,-5.3841,-5.1271,-5.0158,-5.1899,-4.7966,-4.608,-4.7511,-4.5059,-4.3349,-4.2623,-4.2204,-4.1753,-4.1172,-4.1172,-4.0957,-4.0527,-4.0098,-3.9375,-3.8359,-3.7519,-3.6719,-3.5996,-3.5703,-3.6323,-3.7459,-3.5356,-3.521,-3.604,-3.3882,-3.2695,-3.2057,-3.1564,-3.1152,-3.0898,-3.0898,-3.0508,-2.998,-2.9668,-2.9199,-2.8691,-2.8379,-2.8301,-2.8301,-2.8301,-2.8301,-2.8301,-2.8301,-2.8301,-2.8301,-2.8301,-2.8301,-2.8301,-2.8301,-2.8301,-2.8301,-2.8301,-2.8301,-2.8301,-2.8301,-2.8301,-2.8301,-2.8301,-2.8301,-2.8301,-2.8301,-2.8301,-2.8184,-2.7924,-2.7441,-2.7148,-2.7031,-2.6621,-2.6328,-2.6211,-2.5869,-2.5693,-2.5693,-2.5693,-2.5693,-2.5693,-2.5693,-2.5693,-2.5693,-2.6055,-2.6211,-2.6211,-2.6211,-2.6211,-4.0968,-4.0673,-4.089,-3.8037,-3.8574,-3.9961,-4.041,-4.084,-4.1152,-4.1172,-4.1836,-4.3022,-4.5071,-4.6653,-4.8375,-5.0769,-5.1765,-5.2182,-5.2204,-5.2101,-5.2525,-5.3696,-5.3708,-5.4443,-5.6626,-5.3062,-5.0791,-5.134,-5.0389,-4.9552,-4.9039,-4.8548,-4.7127,-4.4691,-4.4251,-4.3151,-4.125,-4.1172,-4.0957,-4.0527,-4.0098,-3.9219,-3.791,-3.707,-3.6445,-3.6016,-3.6016,-3.6423,-3.7043,-3.5998,-3.6282,-3.7125,-3.4651,-3.3654,-3.3418,-3.162,-3.0898,-3.0898,-3.0898,-3.0332,-2.9646,-2.957,-2.9004,-2.832,-2.8301,-2.8301,-2.8301,-2.8301,-2.8301,-2.8301,-2.8301,-2.8301,-2.8301,-2.8301,-2.8301,-2.8301,-2.8301,-2.8301,-2.8301,-2.8301,-2.8301,-2.8301,-2.8301,-2.8301,-2.8301,-2.8301,-2.8301,-2.8301,-2.8301,-2.8301,-2.8281,-2.8281,-2.7891,-2.748,-2.7051,-2.6621,-2.6211,-2.5732,-2.5693,-2.5693,-2.5693,-2.5693,-2.5693,-2.5693,-2.5693,-2.5693,-2.5693,-2.5693,-2.5713,-2.5713,-2.5713,-2.5713,-4.2563,-4.2692,-4.3211,-4.2223,-4.1809,-4.1908,-4.2741,-4.2019,-4.1172,-4.1172,-4.2657,-4.4169,-4.4845,-4.7211,-4.9522,-5.0724,-5.2867,-5.4517,-5.4821,-5.5826,-5.6221,-5.5484,-5.5386,-5.5336,-5.5393,-5.3483,-5.3259,-5.5573,-5.2132,-5.0539,-5.1681,-5.0034,-4.7706,-4.4789,-4.4621,-4.3515,-4.125,-4.0879,-4.0371,-3.9629,-3.8359,-3.7519,-3.707,-3.6504,-3.6016,-3.5653,-3.6426,-3.7338,-3.8222,-3.7199,-3.7498,-3.8292,-3.6025,-3.4962,-3.4566,-3.297,-3.2358,-3.2207,-3.1208,-3.0312,-2.9626,-2.9626,-2.8984,-2.8301,-2.8301,-2.8301,-2.8301,-2.8301,-2.8301,-2.8301,-2.8301,-2.8301,-2.8301,-2.8301,-2.8301,-2.8301,-2.8301,-2.8301,-2.8301,-2.8301,-2.8301,-2.8301,-2.8301,-2.8301,-2.8301,-2.8301,-2.8301,-2.8301,-2.8301,-2.7793,-2.7441,-2.7441,-2.6816,-2.6328,-2.6122,-2.5986,-2.5898,-2.5693,-2.5693,-2.5693,-2.5693,-2.5693,-2.5693,-2.5693,-2.5693,-2.5693,-2.5693,-2.5693,-2.5693,-2.5693,-2.5693,-2.5693,-4.3649,-4.4278,-4.5113,-4.4619,-4.4316,-4.4375,-4.4976,-4.4172,-4.3304,-4.3304,-4.4403,-4.5707,-4.6458,-4.8493,-5.0506,-5.1775,-5.3919,-5.5824,-5.6915,-5.7514,-5.765,-5.7173,-5.642,-5.5717,-5.5214,-5.4205,-5.4598,-5.6848,-5.3654,-5.223,-5.3543,-5.1882,-4.9319,-4.5912,-4.5739,-4.4259,-4.125,-4.0742,-4.0,-3.8965,-3.7402,-3.668,-3.6729,-3.6873,-3.6683,-3.6308,-3.7486,-3.8583,-3.9345,-3.8318,-3.8597,-3.937,-3.7269,-3.6329,-3.589,-3.4459,-3.3901,-3.3586,-3.1614,-3.0312,-2.9626,-2.9626,-2.8984,-2.8301,-2.8301,-2.8301,-2.8301,-2.8301,-2.8301,-2.8301,-2.8301,-2.8301,-2.8301,-2.8301,-2.8301,-2.8301,-2.8301,-2.8301,-2.8301,-2.8301,-2.8301,-2.8301,-2.8301,-2.8301,-2.8301,-2.8301,-2.8301,-2.8301,-2.8301,-2.7812,-2.7422,-2.7266,-2.6758,-2.6309,-2.5996,-2.5977,-2.5898,-2.5693,-2.5693,-2.5693,-2.5693,-2.5693,-2.5693,-2.5693,-2.5693,-2.5693,-2.5693,-2.5693,-2.5693,-2.5693,-2.5693,-2.5693,-4.446,-4.5445,-4.6674,-4.5622,-4.6194,-4.7057,-4.7175,-4.7029,-4.6955,-4.6933,-4.6911,-4.7545,-4.9487,-5.0318,-5.1537,-5.4152,-5.5089,-5.6244,-5.8453,-5.7374,-5.6947,-5.8504,-5.6771,-5.5666,-5.6118,-5.5189,-5.4787,-5.5315,-5.4863,-5.4561,-5.4607,-5.4034,-5.1941,-4.7991,-4.732,-4.5148,-4.121,-4.0664,-3.9785,-3.8535,-3.7406,-3.6799,-3.6848,-3.8161,-3.8411,-3.7971,-3.9258,-4.0006,-4.0277,-3.9347,-3.9588,-4.0292,-3.8384,-3.7636,-3.74,-3.5945,-3.5398,-3.5013,-3.2113,-3.0541,-2.9869,-2.9849,-2.9223,-2.8427,-2.8408,-2.8335,-2.8301,-2.8301,-2.8301,-2.8301,-2.8301,-2.8301,-2.8301,-2.8301,-2.8301,-2.8301,-2.832,-2.832,-2.832,-2.832,-2.8301,-2.8301,-2.8301,-2.8301,-2.8301,-2.8301,-2.8301,-2.8301,-2.8301,-2.8281,-2.8105,-2.7728,-2.7689,-2.7337,-2.6465,-2.6387,-2.6211,-2.5752,-2.5693,-2.5693,-2.5693,-2.5693,-2.5693,-2.5693,-2.5693,-2.5693,-2.5693,-2.5693,-2.5693,-2.5693,-2.5693,-2.5693,-4.8032,-4.9048,-5.0278,-5.1187,-4.9645,-4.8193,-4.906,-4.8072,-4.6866,-4.6486,-4.7548,-4.8404,-4.8161,-5.0458,-5.2849,-5.434,-5.5717,-5.7248,-5.9056,-5.893,-5.8529,-5.8152,-5.7223,-5.6344,-5.5666,-5.4963,-5.4637,-5.4762,-5.4637,-5.4386,-5.3934,-5.4185,-5.216,-4.74,-4.7551,-4.5417,-4.0684,-3.9609,-3.875,-3.8086,-3.8373,-3.8568,-3.8615,-3.9908,-4.0074,-3.9298,-4.0318,-4.0481,-3.9983,-4.0025,-4.023,-4.0398,-3.9509,-3.9129,-3.8973,-3.7477,-3.6918,-3.6649,-3.4792,-3.379,-3.328,-3.2878,-3.1668,-3.0314,-2.991,-2.9112,-2.8301,-2.8301,-2.8301,-2.8301,-2.8301,-2.8301,-2.8301,-2.8301,-2.8301,-2.8379,-2.8691,-2.8769,-2.8769,-2.8769,-2.8516,-2.8301,-2.8301,-2.8301,-2.8301,-2.8301,-2.8301,-2.8301,-2.8301,-2.8027,-2.7656,-2.7226,-2.7187,-2.6973,-2.6426,-2.6387,-2.6348,-2.623,-2.5869,-2.5693,-2.5693,-2.5693,-2.5693,-2.5693,-2.5693,-2.5693,-2.5693,-2.5693,-2.5693,-2.5693,-2.5693,-2.5693,-5.0981,-5.2101,-5.3227,-5.4432,-5.2867,-5.112,-5.1562,-5.0392,-4.8921,-4.7931,-4.8564,-4.909,-4.8196,-4.9892,-5.19,-5.3256,-5.4662,-5.6394,-5.8805,-5.873,-5.8453,-5.8579,-5.7675,-5.6796,-5.6168,-5.539,-5.4938,-5.4938,-5.4461,-5.416,-5.4084,-5.3109,-5.0986,-4.7535,-4.6616,-4.428,-4.0254,-3.9141,-3.8675,-3.8799,-3.9081,-3.9097,-3.8954,-4.0298,-4.004,-3.8663,-4.0264,-4.0368,-3.9459,-4.0187,-4.0375,-4.0124,-3.9823,-3.9697,-3.9594,-3.8792,-3.8477,-3.8348,-3.753,-3.6932,-3.6179,-3.4388,-3.2581,-3.1064,-3.0706,-2.9518,-2.834,-2.8516,-2.8437,-2.834,-2.8516,-2.8437,-2.8379,-2.8769,-2.9232,-2.946,-2.9266,-2.9729,-3.0003,-2.9309,-2.9023,-2.8848,-2.8848,-2.8691,-2.8574,-2.8574,-2.8418,-2.8301,-2.8301,-2.8086,-2.7715,-2.709,-2.7187,-2.7051,-2.6445,-2.6387,-2.6387,-2.6387,-2.5977,-2.5693,-2.5693,-2.5693,-2.5693,-2.5693,-2.5693,-2.5693,-2.5693,-2.5693,-2.5693,-2.5693,-2.5693,-2.5693,-5.3585,-5.4741,-5.571,-5.6348,-5.56,-5.4622,-5.4299,-5.3178,-5.1756,-5.0215,-4.9707,-4.9289,-4.8661,-4.9113,-5.0167,-5.1925,-5.3105,-5.4988,-5.8328,-5.7901,-5.7775,-5.9232,-5.8052,-5.7123,-5.7047,-5.6093,-5.5491,-5.5491,-5.4461,-5.4009,-5.4436,-5.191,-4.9603,-4.7827,-4.5009,-4.2371,-3.9902,-3.9023,-3.9097,-4.0082,-3.974,-3.9432,-3.9163,-4.0329,-3.9733,-3.7846,-3.9785,-4.0054,-3.9307,-4.017,-4.0199,-3.9697,-3.9697,-3.9697,-3.9697,-3.9697,-3.9697,-3.9697,-3.9697,-3.9371,-3.8489,-3.5375,-3.3107,-3.1612,-3.1254,-3.0019,-2.8706,-2.8863,-2.8691,-2.8555,-2.8906,-2.873,-2.8706,-2.9652,-3.0554,-3.1016,-3.0419,-3.1251,-3.1688,-3.002,-2.9777,-2.9829,-2.9626,-2.9258,-2.8984,-2.8926,-2.8613,-2.8359,-2.8301,-2.8301,-2.7969,-2.7109,-2.7402,-2.7395,-2.6543,-2.6465,-2.6504,-2.6562,-2.6094,-2.581,-2.5849,-2.5752,-2.5713,-2.5771,-2.5908,-2.5868,-2.5693,-2.5868,-2.5868,-2.5693,-2.5752,-2.5752,-5.6251,-5.6795,-5.7395,-5.7965,-5.6996,-5.6025,-5.6346,-5.452,-5.2433,-5.1711,-5.0178,-4.8611,-4.7606,-4.8611,-5.0293,-5.2427,-5.3708,-5.5566,-5.888,-5.883,-5.8529,-5.883,-5.8202,-5.7549,-5.7072,-5.6445,-5.6068,-5.6068,-5.5039,-5.426,-5.3884,-5.2953,-5.0765,-4.7237,-4.2903,-4.0397,-3.9902,-3.9023,-3.9398,-4.1095,-4.1581,-4.1861,-4.1927,-4.2441,-4.2113,-4.1187,-4.0751,-4.07,-4.0877,-4.0621,-4.0199,-3.9697,-3.9697,-3.9697,-3.9697,-3.9697,-3.9697,-3.9697,-3.9697,-3.9622,-3.9319,-3.7765,-3.6004,-3.4175,-3.2577,-3.1374,-3.0298,-2.9213,-2.9121,-2.9375,-2.9434,-2.945,-2.9707,-3.1072,-3.1542,-3.2071,-3.3464,-3.393,-3.3334,-3.0625,-3.0828,-3.1004,-2.9793,-2.9512,-2.9336,-2.8965,-2.8848,-2.8691,-2.834,-2.8301,-2.7969,-2.7109,-2.7402,-2.7461,-2.6953,-2.6914,-2.7051,-2.7474,-2.6699,-2.6426,-2.6777,-2.6064,-2.5849,-2.6269,-2.6947,-2.6764,-2.5693,-2.6764,-2.6716,-2.5693,-2.6113,-2.6074,-5.8887,-5.9291,-5.9617,-6.0206,-5.9126,-5.7765,-5.7087,-5.5464,-5.3511,-5.1674,-5.0762,-4.9778,-4.8162,-4.8961,-5.0269,-5.1431,-5.2553,-5.4436,-5.775,-5.775,-5.7625,-5.8227,-5.7801,-5.7223,-5.6671,-5.6369,-5.6219,-5.6219,-5.5189,-5.4436,-5.416,-5.1435,-4.839,-4.5279,-4.1739,-3.9785,-3.9531,-3.9871,-4.0817,-4.234,-4.3374,-4.3294,-4.2277,-4.1679,-4.0731,-3.9511,-3.9094,-3.9561,-4.0538,-4.0533,-4.035,-4.0099,-3.9798,-3.9697,-3.9697,-3.9697,-3.9697,-3.9697,-3.9697,-3.9496,-3.917,-3.8642,-3.7168,-3.5429,-3.4411,-3.2679,-3.0965,-3.0792,-3.0163,-2.9685,-2.9844,-3.0322,-3.1017,-3.219,-3.3069,-3.4065,-3.5749,-3.5526,-3.4548,-3.3112,-3.3274,-3.3179,-3.1646,-3.1238,-3.0737,-2.9721,-2.9199,-2.91,-2.9634,-2.9497,-2.9112,-2.8442,-2.8635,-2.8911,-2.9421,-2.9239,-2.9003,-2.8788,-2.8499,-2.784,-2.673,-2.6692,-2.648,-2.6035,-2.7058,-2.7315,-2.6716,-2.8189,-2.8628,-2.8031,-2.8543,-2.8648,-6.0916,-6.1313,-6.1433,-6.1972,-6.1084,-5.9655,-5.7996,-5.645,-5.458,-5.1933,-5.1405,-5.0814,-4.8842,-4.9317,-5.0089,-5.0377,-5.1272,-5.308,-5.6394,-5.6495,-5.657,-5.76,-5.7323,-5.6821,-5.6269,-5.6219,-5.6168,-5.6043,-5.5013,-5.4336,-5.421,-4.9598,-4.6139,-4.4294,-4.1807,-4.0286,-3.9909,-4.1263,-4.2562,-4.3916,-4.4757,-4.4114,-4.1918,-4.054,-3.9059,-3.7635,-3.7588,-3.8643,-4.0322,-4.0571,-4.0626,-4.045,-3.9898,-3.9697,-3.9697,-3.9697,-3.9697,-3.9697,-3.9697,-3.9421,-3.9019,-3.8969,-3.7788,-3.6365,-3.5958,-3.3921,-3.1816,-3.2285,-3.1385,-3.0409,-3.0747,-3.167,-3.2833,-3.3785,-3.5178,-3.6487,-3.7317,-3.6811,-3.6054,-3.5398,-3.5563,-3.5178,-3.3417,-3.2763,-3.1967,-3.0305,-2.9492,-2.9456,-3.0683,-3.0538,-3.0387,-3.0687,-3.0356,-3.0543,-3.1614,-3.1353,-3.0914,-3.0298,-3.0409,-2.9611,-2.7571,-2.7944,-2.7678,-2.6645,-2.7915,-2.8434,-2.8151,-2.9927,-3.0621,-3.0409,-3.0903,-3.1131,-6.1765,-6.2002,-6.2032,-6.2091,-6.1978,-6.1476,-6.013,-5.7749,-5.5415,-5.3895,-5.2066,-5.035,-4.8762,-4.8975,-4.9594,-5.0302,-5.0946,-5.2503,-5.5817,-5.6244,-5.6445,-5.7047,-5.7072,-5.6821,-5.6269,-5.6219,-5.6018,-5.5491,-5.4411,-5.3582,-5.3105,-4.9223,-4.686,-4.6668,-4.3888,-4.2324,-4.2282,-4.3306,-4.4482,-4.5733,-4.5344,-4.4114,-4.1918,-4.054,-3.968,-3.9264,-3.8484,-3.9603,-4.1943,-4.1451,-4.0924,-4.045,-3.9898,-3.9697,-3.9697,-3.9697,-3.9697,-3.9697,-3.9697,-3.9672,-3.9546,-3.9044,-3.8417,-3.7593,-3.6365,-3.508,-3.3876,-3.273,-3.2602,-3.2803,-3.2824,-3.3927,-3.534,-3.6788,-3.819,-3.8973,-3.7743,-3.8477,-3.8477,-3.5836,-3.6379,-3.6433,-3.3564,-3.3035,-3.2292,-3.0007,-2.957,-2.9749,-3.0287,-3.0349,-3.1214,-3.3702,-3.2499,-3.1565,-3.1663,-3.1667,-3.1748,-3.204,-3.1721,-3.1381,-3.1037,-3.0322,-2.9833,-2.9598,-3.0974,-3.1113,-2.9974,-3.1763,-3.2066,-3.0974,-3.142,-3.1398,-6.1912,-6.2391,-6.269,-6.269,-6.2391,-6.1642,-5.9907,-5.8308,-5.6775,-5.5011,-5.4007,-5.2963,-5.1455,-5.0628,-5.0166,-5.027,-4.9698,-5.0293,-5.3306,-5.3457,-5.3934,-5.5817,-5.544,-5.534,-5.6143,-5.5616,-5.4988,-5.4411,-5.3959,-5.3482,-5.2955,-5.0269,-4.8515,-4.7888,-4.5631,-4.4096,-4.3507,-4.496,-4.5829,-4.5996,-4.6527,-4.5676,-4.3491,-4.2017,-4.1233,-4.0982,-4.0022,-4.0784,-4.2665,-4.2057,-4.1505,-4.0899,-4.04,-3.9998,-3.9697,-3.9697,-3.9697,-3.9697,-3.9697,-3.9697,-3.9647,-3.9446,-3.922,-3.8842,-3.8038,-3.6836,-3.5716,-3.5534,-3.4967,-3.4403,-3.4403,-3.5508,-3.6996,-3.8477,-3.9258,-3.9517,-3.8973,-3.931,-3.9362,-3.8214,-3.8425,-3.7873,-3.4958,-3.4403,-3.3828,-3.1978,-3.1467,-3.1965,-3.393,-3.36,-3.3993,-3.5893,-3.441,-3.3664,-3.4438,-3.4535,-3.4245,-3.3601,-3.3814,-3.329,-3.1712,-3.1779,-3.1435,-3.0631,-3.1926,-3.2298,-3.1833,-3.3591,-3.4208,-3.3716,-3.4293,-3.4414,-6.1965,-6.257,-6.3079,-6.3079,-6.26,-6.1583,-5.9548,-5.859,-5.7573,-5.5598,-5.5179,-5.4743,-5.3256,-5.1727,-5.0541,-5.0002,-4.8932,-4.8962,-5.1272,-5.1548,-5.2251,-5.4185,-5.3708,-5.3758,-5.5114,-5.4662,-5.4135,-5.3733,-5.3557,-5.3306,-5.2955,-5.1607,-5.0213,-4.8722,-4.7075,-4.5803,-4.5097,-4.676,-4.7237,-4.6561,-4.7431,-4.6537,-4.4079,-4.2817,-4.215,-4.1816,-4.0972,-4.1476,-4.2936,-4.2439,-4.1831,-4.1225,-4.0727,-4.0174,-3.9697,-3.9697,-3.9697,-3.9697,-3.9697,-3.9697,-3.9697,-3.9697,-3.9697,-3.9622,-3.922,-3.8123,-3.7054,-3.7411,-3.6757,-3.6054,-3.6511,-3.737,-3.84,-3.9465,-3.9697,-3.9697,-3.9697,-3.9697,-3.9697,-3.9697,-3.9697,-3.8921,-3.6379,-3.5945,-3.5408,-3.3763,-3.324,-3.3888,-3.6195,-3.5863,-3.5912,-3.7089,-3.6038,-3.555,-3.6335,-3.6405,-3.6001,-3.5066,-3.5464,-3.4885,-3.2905,-3.3386,-3.3146,-3.2112,-3.3146,-3.3661,-3.3661,-3.5087,-3.578,-3.5805,-3.6182,-3.6405,-6.204,-6.257,-6.3079,-6.3079,-6.26,-6.1583,-5.9548,-5.859,-5.7573,-5.5598,-5.5179,-5.4743,-5.3256,-5.1727,-5.0404,-4.9478,-4.9009,-4.9163,-5.0268,-5.1398,-5.2101,-5.2126,-5.2126,-5.2352,-5.2904,-5.3406,-5.3708,-5.3708,-5.3231,-5.2929,-5.2929,-5.2861,-5.1709,-4.9176,-4.8041,-4.7519,-4.7427,-4.8838,-4.9038,-4.7845,-4.7908,-4.6143,-4.2885,-4.2483,-4.1876,-4.1211,-4.0748,-4.1476,-4.2936,-4.2439,-4.1831,-4.1225,-4.0727,-4.0174,-3.9697,-3.9697,-3.9697,-3.9697,-3.9697,-3.9697,-3.9697,-3.9697,-3.9697,-3.9697,-3.9697,-3.8687,-3.7506,-3.753,-3.7477,-3.7796,-3.931,-3.9697,-3.9697,-3.9697,-3.9697,-3.9697,-3.9697,-3.9697,-3.9697,-3.9697,-3.9697,-3.9233,-3.7743,-3.7477,-3.6808,-3.4908,-3.4603,-3.4903,-3.5876,-3.6009,-3.6323,-3.7139,-3.7186,-3.696,-3.6455,-3.6405,-3.6405,-3.6358,-3.6405,-3.6107,-3.5462,-3.5483,-3.5232,-3.468,-3.5207,-3.5483,-3.5483,-3.6081,-3.6405,-3.6405,-3.6405,-3.6405,-6.0442,-6.0826,-6.0924,-6.0475,-6.0206,-5.9638,-5.8082,-5.7573,-5.7004,-5.5508,-5.5179,-5.5078,-5.459,-5.2427,-5.0877,-5.135,-4.9577,-4.856,-4.969,-5.0494,-5.1247,-5.2026,-5.3105,-5.3557,-5.298,-5.3406,-5.3557,-5.3206,-5.303,-5.2929,-5.2929,-5.2201,-5.143,-5.0598,-5.0277,-4.9561,-4.8426,-4.8857,-4.8485,-4.738,-4.738,-4.6398,-4.465,-4.4141,-4.3514,-4.2971,-4.2428,-4.2544,-4.2936,-4.2439,-4.1831,-4.1225,-4.0727,-4.0174,-3.9697,-3.9697,-3.9697,-3.9697,-3.9697,-3.9697,-3.9697,-3.9697,-3.9697,-3.9697,-3.9697,-3.9362,-3.9025,-3.9025,-3.9025,-3.9129,-3.9569,-3.9697,-3.9697,-3.9697,-3.9697,-3.9697,-3.9697,-3.9697,-3.9697,-3.9697,-3.9697,-3.9233,-3.7743,-3.753,-3.7299,-3.6654,-3.6577,-3.7062,-3.8352,-3.8236,-3.809,-3.8341,-3.7638,-3.696,-3.6455,-3.6405,-3.6405,-3.6405,-3.6405,-3.6329,-3.6107,-3.6107,-3.6031,-3.5902,-3.6006,-3.6107,-3.6107,-3.6329,-3.6405,-3.6405,-3.6405,-3.6405,-5.8889,-5.9471,-5.9608,-5.9189,-5.8919,-5.8441,-5.7334,-5.6915,-5.6436,-5.5418,-5.4999,-5.4729,-5.4428,-5.2149,-5.0491,-5.0854,-4.9023,-4.8008,-4.9138,-4.9766,-5.0444,-5.1373,-5.2578,-5.3055,-5.2377,-5.298,-5.3281,-5.2955,-5.2929,-5.2829,-5.2628,-5.1975,-5.1398,-5.0971,-5.0544,-4.9841,-4.8786,-4.856,-4.8008,-4.7068,-4.6928,-4.6351,-4.5472,-4.4669,-4.4116,-4.3765,-4.3212,-4.2986,0.0,-4.2439,-4.1831,-4.1225,-4.0727,-4.0174,-3.9697,-3.9697,-3.9697,-3.9697,-3.9697,-3.9697,-3.9697,-3.9697,-3.9697,-3.9697,-3.9697,-3.9697,-3.9697,-3.9697,-3.9697,-3.9697,-3.9697,-3.9697,-3.9697,-3.9697,-3.9697,-3.9697,-3.9697,-3.9697,-3.9697,-3.9697,-3.9697,-3.9413,-3.8477,-3.8348,-3.8348,-3.8348,-3.8348,-3.8635,-3.9569,-3.9396,-3.9094,-3.8944,-3.804,-3.7262,-3.6757,-3.6531,-3.6405,-3.6405,-3.6405,-3.6405,-3.6405,-3.6405,-3.6505,-3.6707,-3.6505,-3.6505,-3.6732,-3.6505,-3.6405,-3.6405,-3.6631,-3.6732,0.0,-5.8261,-5.877,-5.877,-5.8321,-5.7752,-5.7094,-5.6526,0.0,-5.5138,-5.446,-5.379,-5.2948,-5.1058,-4.939,-4.8599,-4.7701,-4.7456,-4.856,-4.9289,-4.9916,-5.0469,-5.1046,-5.1373,-5.1348,-5.2302,-5.2929,-5.2929,-5.2879,-5.2653,-5.2126,-5.2026,-5.1498,-5.0444,-4.9314,-4.8711,-4.8711,-4.8134,-4.7581,-4.7079,-4.6527,-4.5974,-4.5397,-4.4292,-4.379,-4.3714,-4.3212,-4.2986,-4.2992,-4.2389,-4.1806,-4.1225,-4.0701,-4.0149,-3.9697,-3.9697,-3.9697,-3.9697,-3.9697,-3.9697,-3.9697,-3.9697,-3.9697,-3.9697,-3.9697,-3.9697,-3.9697,-3.9697,-3.9697,-3.9697,-3.9697,-3.9697,-3.9697,-3.9697,-3.9697,-3.9697,-3.9697,-3.9697,-3.9697,-3.9697,-3.9697,-3.9697,-3.9697,-3.9697,-3.9697,-3.9697,-3.9697,-3.9697,-3.9697,-3.9697,-3.9496,-3.8994,-3.8417,-3.7864,-3.7337,-3.6782,-3.6405,-3.6405,-3.6455,-3.6455,-3.6455,-3.6505,-3.6782,-3.7236,-3.6782,-3.6782,-3.7236,-3.6782,-3.6531,-3.6531,-3.701,-3.7236,-5.4296,0.0,-5.5359,-5.5359,-5.5628,-5.5837,0.0,-5.5538,-5.4955,-5.3165,-5.2646,-5.2122,-5.0859,-4.9281,-4.8243,-4.8452,-4.7367,-4.6878,-4.7958,-4.9715,-5.1096,-5.1649,-5.2201,-5.2377,-5.195,-5.2528,-5.2929,-5.2929,-5.2528,-5.2251,-5.2126,-5.1272,-5.0695,-5.0419,-4.8912,-4.8109,-4.8109,-4.7581,-4.7054,-4.6502,-4.5949,-4.5372,-4.4794,-4.4116,-4.3564,-4.3162,-4.3037,-4.2986,-4.2911,-4.1932,-4.1401,-4.12,-4.0275,-3.9798,-3.9697,-3.9697,-3.9697,-3.9697,-3.9697,-3.9697,-3.9697,-3.9697,-3.9697,-3.9697,-3.9697,-3.9697,-3.9697,-3.9697,-3.9697,-3.9697,-3.9697,-3.9697,-3.9697,-3.9697,-3.9697,-3.9697,-3.9697,-3.9697,-3.9697,-3.9697,-3.9697,-3.9697,-3.9697,-3.9697,-3.9697,-3.9697,-3.9697,-3.9697,-3.9697,-3.9697,-3.9647,-3.9521,-3.8994,-3.8617,-3.8542,-3.7235,-3.6405,-3.6405,-3.6807,-3.6985,-3.6985,-3.7387,-3.7688,-3.7814,-3.7688,-3.7688,-3.7814,-3.7688,-3.7613,-3.7613,-3.7739,-3.7814,-5.2347,-5.3234,-5.4221,-5.4221,-5.4491,-5.473,-5.473,-5.401,-5.3018,-5.1895,-5.0909,-4.988,-4.8709,-4.7854,-4.7249,-4.716,-4.6866,-4.7154,-4.8485,-5.0193,-5.1498,-5.2051,-5.2377,-5.2528,-5.2477,-5.2754,-5.2829,-5.2578,-5.2277,-5.1875,-5.1373,-5.0519,-4.9916,-4.9665,-4.8284,-4.7657,-4.7908,-4.7154,-4.6476,-4.5924,-4.5372,-4.492,-4.4593,-4.379,-4.3388,-4.3313,-4.2866,-4.2665,-4.2564,-4.1404,-4.0899,-4.0824,-4.0023,-3.9697,-3.9697,-3.9697,-3.9697,-3.9697,-3.9697,-3.9697,-3.9697,-3.9697,-3.9697,-3.9697,-3.9697,-3.9697,-3.9697,-3.9697,-3.9697,-3.9697,-3.9697,-3.9697,-3.9697,-3.9697,-3.9697,-3.9697,-3.9697,-3.9697,-3.9697,-3.9697,-3.9697,-3.9697,-3.9697,-3.9697,-3.9697,-3.9697,-3.9697,-3.9697,-3.9697,-3.9697,-3.9697,-3.9697,-3.9195,-3.8919,-3.8919,-3.7789,-3.7111,-3.7111,-3.7387,-3.7563,-3.7563,-3.7839,-3.8015,-3.8015,-3.8266,-3.8266,-3.8015,-3.8015,-3.8015,-3.8015,-3.8291,-3.8391,-5.1349,-5.2755,-5.4162,-5.3952,-5.3982,-5.4042,-5.4042,-5.2452,-5.0889,-5.0685,-4.9098,-4.7511,-4.6684,-4.6533,-4.6342,-4.5733,-4.6602,-4.7958,-4.9615,-5.0745,-5.1574,-5.2051,-5.2176,-5.2377,-5.2754,-5.2804,-5.2603,-5.2126,-5.1875,-5.1297,-5.0343,-4.969,-4.9113,-4.8661,-4.7657,-4.7355,-4.7782,-4.6728,-4.5949,-4.5472,-4.4819,-4.4493,-4.4468,-4.3438,-4.3237,-4.3614,-4.2665,-4.2213,-4.2112,-4.0978,-4.0526,-4.045,-3.9898,-3.9697,-3.9697,-3.9697,-3.9697,-3.9697,-3.9697,-3.9697,-3.9697,-3.9697,-3.9697,-3.9697,-3.9697,-3.9697,-3.9697,-3.9697,-3.9697,-3.9697,-3.9697,-3.9697,-3.9697,-3.9697,-3.9697,-3.9697,-3.9697,-3.9697,-3.9697,-3.9697,-3.9697,-3.9697,-3.9697,-3.9697,-3.9697,-3.9697,-3.9697,-3.9697,-3.9697,-3.9697,-3.9697,-3.9697,-3.927,-3.9045,-3.9045,-3.8542,-3.8266,-3.8266,-3.8191,-3.8165,-3.8266,-3.8266,-3.8266,-3.8266,-3.8743,-3.8743,-3.8266,-3.8266,-3.8266,-3.8266,-3.8768,-3.9045,-5.1887,-5.3114,-5.3952,-5.2785,-5.2935,-5.3324,-5.3324,-5.1777,-5.0004,-4.8822,-4.7295,-4.5939,-4.5126,-4.5345,-4.5818,-4.616,-4.7506,-4.9113,-5.0795,-5.1574,-5.2,-5.2101,-5.2528,-5.2653,-5.2277,-5.2226,-5.2201,-5.2126,-5.0795,-4.9916,-4.9715,-4.8736,-4.8134,-4.8033,-4.7456,-4.7179,-4.7193,-4.6175,-4.5573,-4.5472,-4.4443,-4.3915,-4.3915,-4.3263,-4.3011,-4.3062,-4.2489,-4.2213,-4.2112,-4.0978,-4.0526,-4.045,-3.9898,-3.9697,-3.9697,-3.9697,-3.9697,-3.9697,-3.9697,-3.9697,-3.9697,-3.9697,-3.9697,-3.9697,-3.9697,-3.9697,-3.9697,-3.9697,-3.9697,-3.9697,-3.9697,-3.9697,-3.9697,-3.9697,-3.9697,-3.9697,-3.9697,-3.9697,-3.9697,-3.9697,-3.9697,-3.9697,-3.9697,-3.9697,-3.9697,-3.9697,-3.9697,-3.9697,-3.9697,-3.9697,-3.9697,-3.9697,-3.9622,-3.9572,-3.9572,-3.9496,-3.9446,-3.9446,-3.8994,-3.8944,-3.9421,-3.9446,-3.9446,-3.9446,-3.9521,-3.9521,-3.9446,-3.9446,-3.9446,-3.9446,-3.9521,-3.9572,-5.105,-5.2097,-5.2729,-5.1012,-5.1581,-5.2222,-5.0789,-4.886,-4.7224,-4.6541,-4.5281,-4.4331,-4.418,-4.5146,-4.6502,-4.8234,-4.9163,-5.0042,-5.1122,-5.1498,-5.1774,-5.2076,-5.2327,-5.2503,-5.2553,-5.2277,-5.185,-5.1247,-5.0193,-4.9314,-4.8711,-4.7933,-4.7355,-4.7054,-4.6527,-4.61,-4.5773,-4.497,-4.4719,-4.502,-4.4192,-4.3489,-4.2911,-4.2715,-4.2359,-4.2057,-4.1505,-4.1279,-4.1204,-4.04,-4.0074,-4.0049,-3.9798,-3.9697,-3.9697,-3.9697,-3.9697,-3.9697,-3.9697,-3.9697,-3.9697,-3.9697,-3.9697,-3.9697,-3.9697,-3.9697,-3.9697,-3.9697,-3.9697,-3.9697,-3.9697,-3.9697,-3.9697,-3.9697,-3.9697,-3.9697,-3.9697,-3.9697,-3.9697,-3.9697,-3.9697,-3.9697,-3.9697,-3.9697,-3.9697,-3.9697,-3.9697,-3.9697,-3.9697,-3.9697,-3.9697,-3.9697,-3.9697,-3.9697,-3.9697,-3.9697,-3.9697,-3.9697,-3.9446,-3.9421,-3.9697,-3.9697,-3.9697,-3.9697,-3.9697,-3.9697,-3.9697,-3.9697,-3.9697,-3.9697,-3.9697,-3.9697,-5.0467,-5.1319,-5.1691,-4.9504,-5.0241,-5.0835,-4.8538,-4.6435,-4.5073,-4.5337,-4.4292,-4.3539,-4.4091,-4.5673,-4.7657,-5.0042,-5.0645,-5.1021,-5.1574,-5.1674,-5.1825,-5.2251,-5.2302,-5.2402,-5.2703,-5.2226,-5.1448,-5.0318,-4.959,-4.8761,-4.7782,-4.723,-4.6753,-4.6326,-4.5773,-4.5271,-4.4844,-4.4141,-4.394,-4.4242,-4.3815,-4.3037,-4.1982,-4.2288,-4.1982,-4.125,-4.0902,-4.0651,-4.0475,-3.9923,-3.9697,-3.9697,-3.9697,-3.9697,-3.9697,-3.9697,-3.9697,-3.9697,-3.9697,-3.9697,-3.9697,-3.9697,-3.9697,-3.9697,-3.9697,-3.9697,-3.9697,-3.9697,-3.9697,-3.9697,-3.9697,-3.9697,-3.9697,-3.9697,-3.9798,-3.9848,-3.9722,-3.9798,-3.9848,-3.9722,-3.9929,-4.0211,-4.0338,-4.0262,-4.0211,-4.0338,-3.9954,-3.9697,-3.9697,-3.9697,-3.9697,-3.9697,-3.9697,-3.9697,-3.9697,-3.9697,-3.9697,-3.9697,-3.9697,-3.9697,-3.9697,-3.9697,-3.9697,-3.9697,-3.9697,-3.9697,-3.9697,-3.9697,-3.9697,-3.9697,-4.0032,-3.9981,-5.1239,-5.1648,-5.1572,-4.8953,-4.8893,-4.923,-4.8156,-4.6382,-4.5311,-4.6365,-4.5474,-4.4694,-4.5271,-4.7129,-4.8987,-5.0218,-5.1297,-5.2176,-5.2729,-5.2804,-5.2829,-5.2854,-5.2879,-5.2678,-5.2201,-5.1674,-5.087,-4.9741,-4.8636,-4.7782,-4.723,-4.6677,-4.6351,-4.6301,-4.5773,-4.5472,-4.5422,-4.4342,-4.3564,-4.3087,-4.3062,-4.2459,-4.1376,-4.2459,-4.2333,-4.1275,-4.125,-4.0924,-4.0475,-3.9923,-3.9697,-3.9697,-3.9697,-3.9697,-3.9697,-3.9697,-3.9697,-3.9697,-3.9697,-3.9697,-3.9697,-3.9697,-3.9697,-3.9697,-3.9697,-3.9697,-3.9697,-3.9697,-3.9697,-3.9697,-3.9697,-3.9697,-3.9697,-3.9697,-4.0099,-4.0325,-3.9798,-4.0099,-4.03,-3.9798,-4.0642,-4.1676,-4.2303,-4.186,-4.1676,-4.233,-4.085,-3.9697,-3.9697,-3.9697,-3.9697,-3.9697,-3.9697,-3.9697,-3.9697,-3.9697,-3.9697,-3.9697,-3.9697,-3.9697,-3.9697,-3.9697,-3.9697,-3.9697,-3.9697,-3.9697,-3.9697,-3.9697,-3.9697,-3.9749,-4.0895,-4.0844,-5.1045,-5.0713,-4.9935,-4.8064,-4.6917,-4.6293,-4.6057,-4.5116,-4.4484,-4.5221,-4.5497,-4.5849,-4.6401,-4.7456,-4.8711,-5.0167,-5.1373,-5.2302,-5.2854,-5.2929,-5.2804,-5.2452,-5.2427,-5.2201,-5.1649,-5.1071,-5.0268,-4.9163,-4.836,-4.7531,-4.6677,-4.6426,-4.5999,-4.5296,-4.507,-4.4618,-4.394,-4.3162,-4.2715,-4.2514,-4.2811,-4.2233,-4.0852,-4.1605,-4.1354,-4.0325,-4.0676,-4.0526,-4.0023,-4.0149,-3.9998,-3.9697,-3.9697,-3.9697,-3.9697,-3.9697,-3.9697,-3.9697,-3.9697,-3.9697,-3.9697,-3.9697,-3.9697,-3.9697,-3.9697,-3.9697,-3.9697,-3.9697,-3.9697,-3.9697,-3.9697,-3.9697,-3.9772,-4.0124,-4.0375,-4.0788,-4.175,-4.2164,-4.2475,-4.3205,-4.3701,-4.4102,-4.437,-4.4184,-4.3805,-4.3218,-4.221,-4.1286,-4.0757,-4.0124,-3.9823,-4.0174,-3.9898,-3.9697,-3.9697,-4.0415,-4.0567,-3.9749,-3.9697,-3.9697,-3.9697,-3.9697,-3.9697,-3.9697,-3.9697,-3.9697,-3.9697,-4.0516,-4.0895,-4.0895,-4.2181,-4.2496,-5.0703,-4.9792,-4.8596,-4.7021,-4.5543,-4.4535,-4.4626,-4.4087,-4.384,-4.4945,-4.5773,-4.6476,-4.6968,-4.7556,-4.8335,-4.969,-5.0996,-5.1975,-5.2352,-5.2402,-5.2277,-5.19,-5.185,-5.1624,-5.1071,-5.0645,-4.9891,-4.8586,-4.8134,-4.7431,-4.6376,-4.6301,-4.5874,-4.492,-4.4719,-4.4192,-4.3237,-4.2564,-4.2112,-4.1907,-4.2283,-4.1781,-4.0551,-4.1254,-4.1003,-3.9973,-4.035,-4.03,-3.9973,-4.0174,-4.0023,-3.9697,-3.9697,-3.9697,-3.9697,-3.9697,-3.9697,-3.9697,-3.9697,-3.9697,-3.9697,-3.9697,-3.9697,-3.9697,-3.9697,-3.9697,-3.9697,-3.9697,-3.9697,-3.9825,-4.044,-4.0285,-4.0153,-4.0949,-4.1411,-4.2137,-4.3715,-4.4208,-4.4543,-4.5327,-4.5839,-4.6139,-4.6335,-4.6223,-4.5846,-4.5048,-4.3731,-4.2628,-4.2027,-4.0915,-4.035,-4.0727,-4.0819,-4.0618,-4.0025,-4.1714,-4.2137,-4.044,-4.0873,-4.0747,-3.9749,-3.9697,-3.9697,-3.9697,-3.9697,-3.9878,-4.0313,-4.1169,-4.1789,-4.223,-4.3504,-4.3882,-5.031,-4.9047,-4.7822,-4.5879,-4.4969,-4.4425,-4.4174,-4.355,-4.3614,-4.5874,-4.6326,-4.6476,-4.6968,-4.7556,-4.8083,-4.8661,-5.0167,-5.1272,-5.1272,-5.1272,-5.1272,-5.1272,-5.1272,-5.1046,-5.0469,-5.0393,-4.9715,-4.8033,-4.7908,-4.7431,-4.6376,-4.6301,-4.605,-4.5497,-4.492,-4.4342,-4.379,-4.2766,-4.1882,-4.1275,-4.1275,-4.1,-4.0551,-4.1685,-4.1555,-4.0501,-4.0526,-4.0526,-4.0475,-3.9923,-3.9697,-3.9697,-3.9697,-3.9697,-3.9749,-3.9749,-3.9749,-3.9749,-3.9749,-3.9749,-3.9749,-3.9697,-3.9697,-3.9697,-3.9697,-3.9697,-3.9697,-3.9697,-3.9697,-4.0158,-4.2077,-4.1544,-4.0868,-4.2285,-4.3462,-4.4488,-4.5338,-4.5946,-4.6167,-4.5684,-4.6546,-4.7633,-4.8221,-4.7817,-4.7615,-4.8173,-4.5486,-4.3436,-4.3384,-4.2184,-4.1354,-4.1329,-4.2579,-4.2657,-4.0709,-4.3573,-4.4409,-4.1769,-4.3454,-4.3067,-3.9852,-3.9749,-3.9749,-3.9749,-3.9749,-4.0364,-4.1591,-4.164,-4.2252,-4.3551,-4.484,-4.4748,-5.1622,-4.9487,-4.7749,-4.6943,-4.5184,-4.3863,-4.4652,-4.3884,-4.3815,-4.6828,-4.6828,-4.6476,-4.6968,-4.6954,-4.6979,-4.7531,-4.8686,-4.9791,-5.0569,-5.067,-5.067,-5.067,-5.067,-5.0444,-4.9891,-4.949,-4.8887,-4.7983,-4.7581,-4.7054,-4.6351,-4.5949,-4.5472,-4.4895,-4.4342,-4.3589,-4.2715,-4.1932,-4.1505,-4.1275,-4.0953,-4.0475,-3.9973,-4.0676,-4.0601,-3.9948,-4.035,-4.03,-3.9923,-3.9772,-3.9697,-3.9697,-3.9697,-4.0262,-4.1019,-4.1019,-4.1591,-4.223,-4.1369,-4.1019,-4.0895,-3.9981,-3.9697,-3.9697,-3.9697,-3.9697,-3.9697,-3.9697,-3.9697,-3.9926,-4.0847,-4.1828,-4.2968,-4.4773,-4.543,-4.6114,-4.7716,-4.8239,-4.8571,-4.9347,-4.9823,-5.0147,-5.0325,-5.0206,-4.9472,-4.7728,-4.6321,-4.4582,-4.2235,-4.273,-4.3178,-4.2814,-4.3178,-4.3562,-4.3956,-4.5727,-4.6135,-4.4458,-4.5717,-4.4872,-4.1172,-4.1887,-4.1936,-4.1019,-4.1936,-4.2544,-4.293,-4.3834,-4.4442,-4.4886,-4.6166,-4.655,-5.1495,-4.9148,-4.7156,-4.7006,-4.5717,-4.457,-4.4683,-4.4351,-4.4669,-4.7104,-4.6903,-4.6401,-4.6753,-4.6527,-4.6426,-4.6753,-4.7732,-4.8661,-4.9314,-4.9615,-4.9766,-4.9766,-4.9967,-4.9866,-4.9314,-4.8962,-4.8435,-4.7657,-4.7104,-4.6577,-4.6024,-4.5447,-4.4895,-4.4317,-4.3765,-4.3062,-4.2213,-4.1404,-4.0949,-4.1003,-4.045,-4.0023,-3.9722,-4.0275,-4.0325,-4.0049,-4.0375,-4.0199,-3.9697,-3.9697,-3.9697,-3.9749,-4.0262,-4.0945,-4.164,-4.2181,-4.2834,-4.3409,-4.2593,-4.2035,-4.1468,-4.0693,-4.0134,-3.9697,-3.9697,-3.9697,-3.9697,-3.9697,-3.9697,-4.0106,-4.2008,-4.3349,-4.4563,-4.5944,-4.6879,-4.7935,-4.964,-4.9969,-5.0239,-5.1058,-5.1229,-5.1229,-5.1229,-5.1229,-5.065,-4.9014,-4.8028,-4.6127,-4.2442,-4.3965,-4.4992,-4.415,-4.5054,-4.5706,-4.5835,-4.7722,-4.817,-4.6381,-4.7662,-4.7156,-4.4007,-4.3877,-4.3417,-4.2377,-4.3122,-4.374,-4.4256,-4.5024,-4.5644,-4.6166,-4.7242,-4.7549,-5.0506,-4.8568,-4.6651,-4.6599,-4.6472,-4.5996,-4.4671,-4.4888,-4.5623,-4.6677,-4.6552,-4.6225,-4.6225,-4.62,-4.6175,-4.6225,-4.7054,-4.7732,-4.7832,-4.8284,-4.8636,-4.8686,-4.9138,-4.9238,-4.8736,-4.8661,-4.8184,-4.7129,-4.6552,-4.5999,-4.5447,-4.4869,-4.4292,-4.374,-4.3187,-4.2665,-4.2062,-4.1028,-4.0501,-4.0425,-3.9923,-3.9697,-3.9722,-4.0199,-4.045,-4.045,-4.045,-4.0149,-3.9697,-3.9697,-3.9697,-3.9826,-4.1069,-4.164,-4.1936,-4.3218,-4.374,-4.3834,-4.3693,-4.293,-4.1936,-4.169,-4.0844,-3.9826,-3.9749,-3.9697,-3.9697,-3.9697,-3.9697,-4.0568,-4.4353,-4.5398,-4.5663,-4.6378,-4.8013,-4.9727,-5.0964,-5.1229,-5.1229,-5.1229,-5.1229,-5.1229,-5.1229,-5.1229,-5.1182,-5.1058,-4.9969,-4.7757,-4.3852,-4.5661,-4.6785,-4.5502,-4.7656,-4.8509,-4.6873,-4.9503,-5.0194,-4.788,-4.9343,-4.9495,-4.7735,-4.5883,-4.4475,-4.3776,-4.3815,-4.4396,-4.5598,-4.5598,-4.6195,-4.7399,-4.7997,-4.7997,-5.1177,-4.9992,-4.9256,-4.8129,-4.7041,-4.6027,-4.5608,-4.4836,-4.4342,-4.502,-4.5422,-4.5673,-4.5673,-4.5296,-4.5146,-4.5598,-4.5849,-4.6301,-4.7179,-4.7405,-4.7631,-4.8033,-4.8209,-4.8234,-4.8109,-4.7732,-4.7205,-4.6552,-4.5974,-4.5422,-4.4844,-4.4292,-4.374,-4.3162,-4.2665,-4.1856,-4.0877,-4.0626,-4.03,-3.9873,-3.9747,-3.9697,-3.9697,-3.9823,-3.9873,-3.9873,-3.9873,-3.9798,-3.9697,-3.9697,-3.9697,-3.9826,-4.1069,-4.223,-4.3266,-4.4489,-4.5644,-4.6344,-4.5343,-4.484,-4.4256,-4.2279,-4.1419,-4.0969,-3.9981,-3.9697,-3.9697,-3.9697,-3.9697,-4.0337,-4.3118,-4.4652,-4.602,-4.8084,-4.9737,-5.087,-5.1105,-5.1229,-5.1229,-5.1229,-5.1229,-5.1229,-5.1229,-5.1229,-5.087,-4.9776,-4.9357,-4.8489,-4.6474,-4.7707,-4.8638,-4.8339,-4.8837,-4.9475,-5.0081,-5.078,-5.0939,-5.0406,-5.079,-5.0551,-4.9664,-4.8233,-4.6953,-4.5813,-4.622,-4.6638,-4.6887,-4.6887,-4.7286,-4.8087,-4.8207,-4.8476,-5.1643,-5.066,-5.0006,-4.937,-4.841,-4.7343,-4.6317,-4.4993,-4.3793,-4.3148,-4.4141,-4.492,-4.4392,-4.4468,-4.4543,-4.4317,-4.4719,-4.5271,-4.5789,-4.6401,-4.6853,-4.7104,-4.7606,-4.7807,-4.7556,-4.728,-4.6803,-4.5974,-4.5397,-4.4819,-4.4267,-4.3463,-4.2942,-4.264,-4.1806,-4.1103,-4.0526,-4.0249,-3.9973,-3.9697,-3.9697,-3.9697,-3.9697,-3.9697,-3.9697,-3.9697,-3.9697,-3.9697,-3.9697,-3.9697,-4.0083,-4.0743,-4.2035,-4.3313,-4.4535,-4.5824,-4.6726,-4.7222,-4.655,-4.5913,-4.507,-4.3122,-4.2133,-4.1369,-4.0083,-3.9697,-3.9697,-3.9697,-3.9697,-4.0363,-4.3178,-4.4683,-4.6238,-4.8981,-5.049,-5.1229,-5.1229,-5.1229,-5.1229,-5.1229,-5.1229,-5.1229,-5.1229,-5.1229,-5.0745,-4.9406,-4.9776,-4.9406,-4.735,-4.8886,-4.9921,-4.9259,-4.9776,-5.043,-5.1105,-5.1229,-5.1229,-5.1229,-5.1229,-5.105,-5.0674,-4.9763,-4.8774,-4.7829,-4.8075,-4.8237,-4.8237,-4.7938,-4.8117,-4.879,-4.879,-4.9,-5.1957,-5.1012,-5.0128,-5.0426,-4.9834,-4.8743,-4.7051,-4.5551,-4.3966,-4.2047,-4.2897,-4.379,-4.2861,-4.3438,-4.3815,-4.3087,-4.374,-4.4443,-4.4719,-4.5573,-4.62,-4.6301,-4.7079,-4.7456,-4.6968,-4.6943,-4.6527,-4.5422,-4.4895,-4.4292,-4.3564,-4.2715,-4.2112,-4.1936,-4.0978,-4.0475,-4.0375,-3.9923,-3.9697,-3.9697,-3.9697,-3.9697,-3.9697,-3.9697,-3.9697,-3.9697,-3.9697,-3.9697,-3.9697,-3.9697,-4.0465,-4.1739,-4.2978,-4.4256,-4.5553,-4.6814,-4.7309,-4.7309,-4.7309,-4.6594,-4.5479,-4.3975,-4.2786,-4.164,-4.0185,-3.9697,-3.9722,-3.9798,-3.9848,-4.0619,-4.3939,-4.5225,-4.6469,-4.9609,-5.0794,-5.1229,-5.1229,-5.1229,-5.1229,-5.1229,-5.1229,-5.1229,-5.1229,-5.1229,-5.0822,-4.9727,-5.0508,-5.0383,-4.8088,-4.9776,-5.0745,-4.9679,-5.0555,-5.1229,-5.1229,-5.1229,-5.1229,-5.1229,-5.1319,-5.1349,-5.1229,-5.0764,-5.0272,-4.9613,-4.9419,-4.9299,-4.9299,-4.876,-4.8805,-4.9434,-4.9434,-4.9539,-5.2137,-5.1286,-5.0832,-5.1418,-5.0385,-4.8989,-4.8161,-4.6861,-4.5258,-4.3335,-4.2309,-4.1677,-4.1526,-4.1626,-4.2032,-4.2836,-4.3112,-4.3714,-4.5171,-4.5497,-4.5773,-4.625,-4.6426,-4.6502,-4.6426,-4.6426,-4.5949,-4.4819,-4.4669,-4.3966,-4.2514,-4.2288,-4.176,-4.0777,-4.0601,-4.03,-3.9798,-3.9722,-3.9697,-3.9697,-3.9697,-3.9697,-3.9697,-3.9697,-3.9697,-3.9697,-3.9697,-3.9697,-3.9697,-3.9697,-4.0465,-4.1739,-4.2978,-4.4256,-4.5553,-4.6814,-4.7309,-4.7309,-4.7309,-4.7222,-4.6638,-4.4256,-4.3361,-4.2786,-4.0415,-3.9697,-3.9798,-4.0275,-4.04,-4.1283,-4.5056,-4.6117,-4.7038,-5.0307,-5.1139,-5.1229,-5.1229,-5.1229,-5.1229,-5.1229,-5.1229,-5.1229,-5.1229,-5.1229,-5.1105,-5.0964,-5.1058,-5.1058,-5.0698,-5.0964,-5.1105,-5.0964,-5.1058,-5.1229,-5.1229,-5.1229,-5.1229,-5.1229,-5.1768,-5.1828,-5.1229,-5.1678,-5.1618,-5.096,-4.9853,-4.9299,-4.9299,-4.9209,-4.9464,-5.0076,-5.0076,-5.0375,-5.3298,-5.2525,-5.1957,-5.1845,-5.121,-5.0147,-4.8217,-4.7281,-4.6174,-4.3862,-4.2356,-4.1337,-4.0908,-4.1075,-4.1351,-4.158,-4.1856,-4.2434,-4.3463,-4.4166,-4.4744,-4.5296,-4.5924,-4.6175,-4.5874,-4.5849,-4.5372,-4.4242,-4.4166,-4.3589,-4.2288,-4.1856,-4.1329,-4.0551,-4.0224,-3.9948,-3.9697,-3.9697,-4.0083,-4.0743,-4.0032,-4.0083,-4.0743,-4.0743,-4.0364,-3.9697,-3.9697,-3.9697,-3.9749,-4.0465,-4.1492,-4.2786,-4.4069,-4.5343,-4.655,-4.7062,-4.7309,-4.7309,-4.7309,-4.7309,-4.6887,-4.4303,-4.3504,-4.3026,-4.0465,-3.9898,-4.0199,-4.045,-4.0752,-4.1478,-4.3905,-4.5458,-4.6951,-4.9485,-5.0947,-5.1858,-5.2247,-5.1738,-5.1229,-5.1229,-5.1229,-5.1229,-5.1229,-5.1229,-5.1229,-5.1229,-5.1229,-5.1229,-5.1229,-5.1229,-5.1229,-5.1229,-5.1229,-5.1229,-5.1229,-5.1558,-5.1768,-5.1768,-5.2396,-5.2456,-5.1798,-5.2037,-5.1887,-5.1229,-5.0661,-5.0361,-5.0361,-5.0002,-5.0152,-5.0734,-5.0375,-5.0554,-5.3853,-5.3251,-5.2524,-5.2172,-5.1931,-5.1199,-4.8771,-4.8085,-4.7207,-4.4753,-4.3375,-4.2315,-4.1439,-4.1074,-4.0827,-4.0551,-4.0852,-4.1379,-4.2112,-4.2986,-4.379,-4.4342,-4.5296,-4.5773,-4.5522,-4.5347,-4.492,-4.4066,-4.374,-4.3112,-4.2007,-4.143,-4.0824,-4.0325,-3.9898,-3.9697,-3.9697,-4.0032,-4.0642,-4.1591,-4.0642,-4.0693,-4.1591,-4.1269,-4.0794,-4.016,-4.016,-4.016,-4.0262,-4.1219,-4.2544,-4.4069,-4.5024,-4.6166,-4.7309,-4.7309,-4.7309,-4.7309,-4.7309,-4.7309,-4.6931,-4.4674,-4.374,-4.3074,-4.0844,-4.0232,-4.0375,-4.0651,-4.0974,-4.1755,-4.3676,-4.5448,-4.727,-4.9424,-5.1246,-5.2546,-5.2845,-5.2157,-5.1409,-5.1259,-5.1229,-5.1259,-5.1439,-5.1319,-5.1289,-5.1439,-5.1319,-5.1229,-5.1229,-5.1229,-5.1229,-5.1229,-5.1229,-5.1289,-5.1439,-5.1917,-5.2276,-5.2426,-5.3084,-5.3144,-5.2486,-5.2606,-5.2396,-5.1738,-5.1558,-5.1379,-5.1229,-5.0674,-5.0704,-5.1199,-5.0674,-5.0704,-5.3146,-5.2692,-5.2039,-5.2688,-5.2299,-5.1593,-5.0796,-4.9877,-4.8609,-4.6657,-4.5683,-4.484,-4.3579,-4.1372,-3.9948,-4.0425,-4.0551,-4.0927,-4.2062,-4.2715,-4.3212,-4.379,-4.4342,-4.492,-4.5447,-4.4995,-4.4644,-4.4593,-4.3614,-4.2534,-4.1401,-4.0852,-4.03,-3.9747,-3.9697,-3.9697,-3.9697,-4.0895,-4.1541,-4.1591,-4.1541,-4.1541,-4.1541,-4.0364,-4.0415,-4.1518,-4.1518,-4.1518,-4.1518,-4.1541,-4.3074,-4.5298,-4.5343,-4.6166,-4.7309,-4.7309,-4.7309,-4.7309,-4.7309,-4.7309,-4.7062,-4.5734,-4.4489,-4.3266,-4.1936,-4.0668,-3.9948,-4.0949,-4.125,-4.2174,-4.5885,-4.7453,-4.8701,-5.1394,-5.2587,-5.2965,-5.2366,-5.2187,-5.1977,-5.1349,-5.1229,-5.1409,-5.2037,-5.1618,-5.1439,-5.2067,-5.1618,-5.1229,-5.1229,-5.1229,-5.1229,-5.1229,-5.1229,-5.1468,-5.2097,-5.2187,-5.2456,-5.3084,-5.3773,-5.3832,-5.3144,-5.3773,-5.3773,-5.3084,-5.2456,-5.1858,-5.1229,-5.1169,-5.1199,-5.1229,-5.1169,-5.1199,-5.1894,-5.2068,-5.2163,-5.2188,-5.2335,-5.2284,-5.1389,-5.0372,-4.9286,-4.817,-4.6609,-4.5252,-4.4794,-4.2641,-4.0997,-4.1154,-4.0517,-4.0249,-4.1003,-4.158,-4.2258,-4.3162,-4.3765,-4.4166,-4.4392,-4.4217,-4.394,-4.3589,-4.2861,-4.2133,-4.1326,-4.0802,-4.0249,-3.9722,-3.9697,-4.0083,-4.0895,-4.1369,-4.2398,-4.4022,-4.3218,-4.2834,-4.2786,-4.235,-4.1936,-4.164,-4.2447,-4.2834,-4.2882,-4.3693,-4.4581,-4.5479,-4.6299,-4.6931,-4.7309,-4.7309,-4.7309,-4.7309,-4.7309,-4.7309,-4.7062,-4.5824,-4.507,-4.4303,-4.223,-4.1531,-4.1389,-4.1317,-4.22,-4.3544,-4.5288,-4.7564,-5.0112,-5.2872,-5.3982,-5.4281,-5.3623,-5.2815,-5.2127,-5.1887,-5.1498,-5.1439,-5.2097,-5.2007,-5.2067,-5.2725,-5.2276,-5.1858,-5.1858,-5.1858,-5.1858,-5.1858,-5.2217,-5.2576,-5.2815,-5.3234,-5.3593,-5.3832,-5.4461,-5.4551,-5.3862,-5.4072,-5.3892,-5.3204,-5.2546,-5.2097,-5.1858,-5.1439,-5.1229,-5.1229,-5.1229,-5.1229,-5.1082,-5.1386,-5.1696,-5.2257,-5.2461,-5.2487,-5.23,-5.1296,-5.0203,-4.9774,-4.8282,-4.707,-4.707,-4.5035,-4.3136,-4.235,-4.1541,-4.0974,-4.0875,-4.136,-4.1785,-4.2112,-4.2811,-4.3313,-4.3514,-4.3514,-4.3438,-4.3263,-4.2409,-4.1731,-4.13,-4.0651,-4.0074,-3.9697,-3.9697,-4.0313,-4.1591,-4.2035,-4.3313,-4.5389,-4.4116,-4.3504,-4.3456,-4.2593,-4.223,-4.2252,-4.3122,-4.374,-4.421,-4.507,-4.5644,-4.6121,-4.6975,-4.7309,-4.7309,-4.7309,-4.7309,-4.7309,-4.7309,-4.7309,-4.7149,-4.6299,-4.5734,-4.507,-4.3409,-4.2547,-4.2077,-4.1979,-4.2547,-4.365,-4.5555,-4.8761,-5.205,-5.4052,-5.488,-5.5059,-5.464,-5.3653,-5.2755,-5.2276,-5.1858,-5.1768,-5.2426,-5.2336,-5.2486,-5.3384,-5.2965,-5.2546,-5.2546,-5.2546,-5.2546,-5.2546,-5.2905,-5.3264,-5.3503,-5.3952,-5.4311,-5.4521,-5.494,-5.4999,-5.4551,-5.4551,-5.4311,-5.3862,-5.3204,-5.2755,-5.2516,-5.1648,-5.1229,-5.1229,-5.1439,-5.1678,0.0,0.0,0.0,-5.2841,-5.2561,-5.2178,-5.3634,-5.2578,-5.1357,-5.1421,-5.0877,-5.0365,-5.0397,-4.8532,-4.627,-4.406,-4.3598,-4.3074,-4.1838,-4.2066,-4.1954,-4.0711,-4.1588,-4.2443,-4.2967,-4.2961,-4.3212,-4.374,-4.2258,-4.1275,-4.1275,-4.03,-3.9697,-3.9697,-3.9749,-4.0364,-4.164,-4.293,-4.421,-4.5434,-4.421,-4.3551,-4.3409,-4.0995,-4.1219,-4.3504,-4.3551,-4.4256,-4.5434,-4.5434,-4.6166,-4.7309,-4.7309,-4.7309,-4.7309,-4.7309,-4.7309,-4.7309,-4.7309,-4.7309,-4.7309,-4.7309,-4.6462,-4.5434,-4.5417,-4.3721,-4.1954,-4.2913,-4.2421,-4.2541,-4.7095,-5.1244,-5.4371,-5.5029,-5.5179,-5.5179,-5.5179,-5.47,-5.3832,-5.2516,-5.2247,-5.2426,-5.3084,-5.2665,-5.2695,-5.4012,-5.3623,-5.3174,-5.3174,-5.3174,-5.3204,-5.3204,-5.3234,-5.3503,-5.4192,-5.4251,-5.4521,-5.5149,-5.5209,-5.5209,-5.5179,-5.5209,-5.5209,-5.5179,-5.4551,-5.3892,-5.3204,-5.1887,-5.1229,-5.1229,-5.1887,-5.2546,-4.863,0.0,0.0,0.0,0.0,0.0,-5.2571,-5.1411,-5.0468,-5.1549,-5.0601,-4.9751,-5.0301,-4.9867,-4.9242,-4.8573,-4.5665,-4.3361,-4.3026,-4.3115,-4.2851,-4.1979,-4.2528,-4.278,-4.2443,-4.2735,-4.3037,-4.3187,-4.2057,-4.1275,-4.1275,-4.03,-3.9697,-3.9697,-4.0592,-4.169,-4.2978,-4.4256,-4.5508,-4.677,-4.6388,-4.5252,-4.3504,-4.374,-4.3693,-4.3551,-4.4442,-4.5598,-4.677,-4.677,-4.6975,-4.7309,-4.7309,-4.7309,-4.7309,-4.7309,-4.7309,-4.7309,-4.7309,-4.7309,-4.7309,-4.7309,-4.7062,-4.6683,-4.6285,-4.5634,-4.4945,-4.4113,-4.5102,-4.7228,-5.0863,-5.2961,-5.4371,-5.5029,-5.5179,-5.5179,-5.5179,-5.5029,-5.467,-5.3832,-5.3264,-5.3114,-5.3803,-5.3773,-5.3773,-5.4162,-5.3623,-5.3174,-5.3174,-5.3174,-5.3384,-5.3862,-5.4341,-5.47,-5.491,-5.491,-5.4999,-5.5179,-5.5628,-5.5688,-5.5209,-5.5658,-5.5688,-5.5209,-5.4551,-5.4132,-5.3922,-5.2576,-5.1678,-5.1229,-5.1887,-5.2546,-4.7605,-4.8297,-4.9284,-5.031,0.0,0.0,-5.2063,-5.1262,-5.0558,-5.1425,-5.0775,-5.032,-5.1077,-5.0847,-5.0649,-5.0973,-4.842,-4.6035,-4.5035,-4.4927,-4.4424,-4.3003,-4.3059,-4.3049,-4.2646,-4.284,-4.2986,-4.2986,-4.1957,-4.1075,-4.0676,-4.0049,-3.9929,-4.0465,-4.1219,-4.2447,-4.4256,-4.5024,-4.6032,-4.7309,-4.677,-4.5734,-4.4303,-4.4489,-4.4489,-4.4303,-4.507,-4.6121,-4.7309,-4.7309,-4.7309,-4.7309,-4.7309,-4.7309,-4.7309,-4.7309,-4.7309,-4.7309,-4.7309,-4.7309,-4.7309,-4.7309,-4.7309,-4.7298,-4.7197,-4.6828,-4.6318,-4.5951,-4.7622,-4.9898,-5.1806,-5.3466,-5.473,-5.5089,-5.5179,-5.5179,-5.5179,-5.5179,-5.4999,-5.4341,-5.3892,-5.3743,-5.4132,-5.4221,-5.4221,-5.4221,-5.3862,-5.3623,-5.3623,-5.3623,-5.3862,-5.4551,-5.497,-5.5179,-5.5179,-5.5179,-5.5179,-5.5179,-5.5807,-5.5987,-5.5628,-5.5957,-5.6038,-5.5598,-5.497,-5.4491,-5.4221,-5.2845,-5.2127,-5.2067,-5.2725,-5.3384,-4.707,-4.744,-4.8101,-5.0287,-5.0443,0.0,-5.1758,-5.1555,-5.115,-5.1286,-5.1285,-5.1454,-5.2266,-5.1695,-5.1305,-5.1966,-5.1336,-4.9946,-4.76,-4.7267,-4.6388,-4.4153,-4.3719,-4.3512,-4.3229,-4.3133,-4.3053,-4.2942,-4.1882,-4.0802,-3.9747,-3.9697,-4.0262,-4.1541,-4.1739,-4.2978,-4.5389,-4.5553,-4.6166,-4.7309,-4.6166,-4.5553,-4.5343,-4.4349,-4.4442,-4.5389,-4.5553,-4.6255,-4.7309,-4.7309,-4.7309,-4.7309,-4.7309,-4.7309,-4.7309,-4.7309,-4.7309,-4.7309,-4.7309,-4.7309,-4.7309,-4.7309,-4.7309,-4.7429,-4.8177,-4.7611,-4.6992,-4.8172,-4.98,-5.1135,-5.1288,-5.3251,-5.5179,-5.5179,-5.5179,-5.5179,-5.5179,-5.5179,-5.5029,-5.4431,-5.4311,-5.4311,-5.4311,-5.4311,-5.4311,-5.4221,-5.4221,-5.4221,-5.4221,-5.4221,-5.4461,-5.5119,-5.5179,-5.5179,-5.5179,-5.5179,-5.5179,-5.5179,-5.5867,-5.6226,-5.6077,-5.6196,-5.6248,-5.6128,-5.5478,-5.488,-5.4221,-5.2935,-5.2665,-5.3324,-5.3922,-5.4551,-4.5426,-4.6451,-4.7737,-4.82,-4.9219,0.0,-5.0439,-5.0405,-5.0642,-5.186,-5.1623,-5.1623,-5.301,-5.3112,-5.301,-5.3145,-5.3041,-5.217,-5.0023,-4.9418,-4.8499,-4.649,-4.635,-4.5545,-4.3409,-4.3598,-4.3429,-4.2418,-4.1304,-4.04,-3.9722,-3.9697,-4.0262,-4.1541,-4.2593,-4.3882,-4.5389,-4.6388,-4.7062,-4.7309,-4.7062,-4.6388,-4.5434,-4.6211,-4.6121,-4.5434,-4.6506,-4.7062,-4.7309,-4.7309,-4.7309,-4.7309,-4.7309,-4.7309,-4.7309,-4.7309,-4.7309,-4.7309,-4.7309,-4.7309,-4.7309,-4.7309,-4.7309,-4.7519,-4.876,-4.891,-4.8997,-5.0258,-5.0867,-5.1367,-5.2477,-5.4013,-5.5179,-5.5179,-5.5179,-5.5179,-5.5179,-5.5179,-5.5149,-5.5029,-5.4999,-5.4999,-5.4999,-5.4999,-5.482,-5.4281,-5.4221,-5.4221,-5.4221,-5.4221,-5.4461,-5.5119,-5.5179,-5.5179,-5.5179,-5.5179,-5.5179,-5.5179,-5.6286,-5.6466,-5.5418,-5.6376,-5.6436,-5.5418,-5.5269,-5.488,-5.4221,-5.3384,-5.3354,-5.4012,-5.4162,-5.4551,-4.4754,-4.552,-4.6407,-4.7216,-4.8133,0.0,0.0,-4.9446,-4.9864,-5.098,-5.0608,-5.0574,-5.2097,-5.2063,-5.2029,-5.2773,-5.2909,-5.2673,-5.2065,-5.1658,-5.0962,-4.9885,-4.8757,-4.7538,-4.6155,-4.4617,-4.3048,-4.1462,-4.1664,-4.1492,-4.0694,-4.1269,-4.2181,-4.3456,-4.4116,-4.507,-4.6344,-4.6975,-4.7309,-4.7309,-4.7309,-4.6975,-4.6344,-4.7019,-4.6975,-4.6388,-4.7019,-4.7309,-4.7309,-4.7309,-4.7309,-4.7309,-4.7309,-4.7309,-4.7309,-4.7309,-4.7309,-4.7309,-4.7309,-4.7309,-4.7309,-4.7309,-4.7309,-4.7549,-4.891,-4.9733,-5.0391,-5.102,-5.1647,-5.2328,-5.3028,-5.4192,-5.5179,-5.5179,-5.5179,-5.5179,-5.5179,-5.5179,-5.5179,-5.5179,-5.5179,-5.5179,-5.5179,-5.5179,-5.497,-5.4311,-5.4221,-5.4221,-5.4221,-5.4221,-5.4461,-5.5119,-5.5179,-5.5179,-5.5179,-5.5179,-5.5179,-5.5179,-5.6107,-5.6346,-5.5718,-5.6286,-5.6166,-5.5209,-5.5179,-5.5029,-5.47,-5.4341,-5.4192,-5.4221,-5.4551,-5.488,-4.4649,-4.5032,-4.5428,-4.6618,-4.73,-4.7798,0.0,0.0,0.0,-4.971,-4.9499,-4.9627,-5.098,-5.071,-5.0744,-5.2097,-5.23,-5.2638,-5.3585,-5.3502,-5.3169,-5.2734,-5.0736,-4.9233,-4.891,-4.5539,-4.281,-4.1337,-4.2498,-4.287,-4.2039,-4.293,-4.4069,-4.5343,-4.5389,-4.6003,-4.7309,-4.7309,-4.7309,-4.7309,-4.7309,-4.7309,-4.7309,-4.7309,-4.7309,-4.7309,-4.7309,-4.7309,-4.7309,-4.7309,-4.7309,-4.7309,-4.7309,-4.7309,-4.7309,-4.7309,-4.7309,-4.7309,-4.7309,-4.7309,-4.7309,-4.7309,-4.7489,-4.7878,-4.9,-5.0182,-5.1229,-5.1229,-5.2067,-5.3025,-5.3144,-5.4102,-5.5029,-5.5149,-5.5179,-5.5179,-5.5179,-5.5179,-5.5179,-5.5179,-5.5179,-5.5179,-5.5179,-5.5179,-5.4999,-5.4491,-5.4401,-5.4401,-5.4401,-5.4401,-5.461,-5.5119,-5.5179,-5.5179,-5.5179,-5.5179,-5.5239,-5.5359,-5.5987,-5.6346,-5.6346,-5.6278,-5.5927,-5.5388,-5.5269,-5.5179,-5.5179,-5.5179,-5.491,-5.4401,-5.494,-5.5179,-4.5079,-4.5858,-4.6385,-4.5973,-4.7056,-4.7923,-4.6734,0.0,-4.8762,-4.8828,0.0,-5.0236,-5.1082,0.0,0.0,-5.2164,-5.23,-5.2807,-5.4262,-5.4464,-5.4045,-5.3074,-5.1869,-5.0507,-4.9058,-4.6035,-4.4081,-4.3879,-4.3636,-4.3403,-4.3266,-4.3409,-4.4069,-4.5343,-4.5389,-4.6003,-4.7309,-4.7309,-4.7309,-4.7309,-4.7309,-4.7309,-4.7309,-4.7309,-4.7309,-4.7309,-4.7309,-4.7309,-4.7309,-4.7309,-4.7309,-4.7309,-4.7309,-4.7309,-4.7309,-4.7309,-4.7309,-4.7309,-4.7309,-4.7309,-4.7309,-4.7309,-4.8087,-4.912,-4.9269,-5.0182,-5.1229,-5.1229,-5.1738,-5.2456,-5.3025,-5.3743,-5.4461,-5.5059,-5.5179,-5.5179,-5.5179,-5.5179,-5.5179,-5.5179,-5.5179,-5.5179,-5.5179,-5.5179,-5.5149,-5.5089,-5.5089,-5.5089,-5.5089,-5.5089,-5.5119,-5.5179,-5.5179,-5.5179,-5.5179,-5.5179,-5.5448,-5.6017,-5.6645,-5.7004,-5.7004,-5.6466,-5.6188,-5.6128,-5.5478,-5.5179,-5.5179,-5.5179,-5.5149,-5.5089,-5.5149,-5.5179,-4.5214,-4.5303,-4.5323,-4.5445,-4.5866,-4.6228,-4.597,-4.7004,-4.8165,-4.8594,0.0,0.0,0.0,0.0,0.0,0.0,-5.23,-5.2706,-5.3788,-5.3957,-5.4125,-5.4546,-5.3239,-5.1104,-4.8063,-4.6321,-4.4967,-4.389,-4.4592,-4.4931,-4.461,-4.5298,-4.5958,-4.6506,-4.6506,-4.677,-4.7309,-4.7309,-4.7309,-4.7309,-4.7309,-4.7309,-4.7309,-4.7309,-4.7309,-4.7309,-4.7309,-4.7309,-4.7309,-4.7309,-4.7309,-4.7309,-4.7309,-4.7309,-4.7309,-4.7309,-4.7309,-4.7309,-4.7309,-4.7309,-4.7369,-4.7758,-4.8506,-4.9389,-4.9733,-5.0481,-5.1229,-5.1229,-5.1977,-5.2755,-5.2636,-5.3683,-5.476,-5.464,-5.491,-5.5179,-5.5179,-5.5179,-5.5179,-5.5179,-5.5179,-5.5179,-5.5179,-5.5179,-5.5179,-5.5179,-5.5179,-5.5179,-5.5179,-5.5179,-5.5179,-5.5179,-5.5179,-5.5179,-5.5179,-5.5538,-5.5867,-5.6166,-5.6765,-5.7094,-5.7094,-5.6855,-5.6526,-5.6248,-5.5897,-5.5568,-5.5179,-5.5179,-5.5179,-5.5179,-5.5179,-5.5179,-4.5244,-4.5095,-4.4885,-4.5005,-4.497,-4.4941,-4.5033,-4.6326,-4.7697,-4.822,-4.8993,0.0,0.0,0.0,-5.0811,-5.2097,0.0,-5.257,-5.3382,-5.3518,-5.3991,-5.5243,-5.4159,-5.2118,-4.9182,-4.7862,-4.6674,-4.5333,-4.6015,-4.6318,-4.5943,-4.677,-4.7309,-4.7309,-4.7309,-4.7309,-4.7309,-4.7309,-4.7309,-4.7309,-4.7309,-4.7309,-4.7309,-4.7309,-4.7309,-4.7309,-4.7309,-4.7309,-4.7309,-4.7309,-4.7309,-4.7309,-4.7309,-4.7309,-4.7309,-4.7309,-4.7309,-4.7309,-4.7309,-4.7429,-4.7638,-4.8117,-4.8865,-4.9613,-5.0046,-5.0644,-5.1229,-5.1229,-5.2037,-5.2845,-5.2546,-5.3683,-5.485,-5.4551,-5.485,-5.5179,-5.5179,-5.5179,-5.5179,-5.5179,-5.5179,-5.5179,-5.5179,-5.5179,-5.5179,-5.5179,-5.5179,-5.5179,-5.5179,-5.5179,-5.5179,-5.5179,-5.5179,-5.5179,-5.5179,-5.5777,-5.6368,-5.6675,-5.7304,-5.7663,-5.7663,-5.7483,-5.7154,-5.6705,-5.6526,-5.6196,-5.5718,-5.5538,-5.5448,-5.5448,-5.5269,-5.5179,-4.5125,-4.5753,-4.5963,-4.4676,-4.4796,-4.4956,-4.3698,-4.5428,-4.7337,-4.7337,-4.9356,-5.1117,-5.1217,-5.1151,-5.142,-5.2198,-5.23,0.0,0.0,-5.3518,-5.3788,-5.4532,-5.4292,-5.403,-5.3884,-5.1374,-4.976,-4.9687,-4.8213,-4.7266,-4.7266,-4.7266,-4.7309,-4.7309,-4.7309,-4.7309,-4.7309,-4.7309,-4.7309,-4.7309,-4.7309,-4.7309,-4.7309,-4.7309,-4.7309,-4.7309,-4.7309,-4.7309,-4.7309,-4.7309,-4.7309,-4.7309,-4.7309,-4.7309,-4.7309,-4.7309,-4.7309,-4.7309,-4.7309,-4.7728,-4.8267,-4.8267,-4.9164,-5.0166,-5.0196,-5.0644,-5.1229,-5.1229,-5.1708,-5.2366,-5.2995,-5.3683,-5.4401,-5.4999,-5.5179,-5.5179,-5.5179,-5.5179,-5.5179,-5.5179,-5.5179,-5.5179,-5.5179,-5.5179,-5.5179,-5.5179,-5.5179,-5.5179,-5.5179,-5.5179,-5.5179,-5.5179,-5.5179,-5.5179,-5.5179,-5.5777,-5.6705,-5.7992,-5.868,-5.9039,-5.9039,-5.8441,-5.8082,-5.8052,-5.7393,-5.7064,-5.7034,-5.6436,-5.6188,-5.6188,-5.5478,-5.5179,-4.5244,-4.5454,-4.5544,-4.5095,-4.5125,-4.5185,-4.4736,-4.5791,-4.7114,-4.7823,-4.9164,-5.056,-5.1695,-5.1928,-5.2198,-5.2976,-5.3078,-5.3179,0.0,-5.3518,-5.3788,-5.4499,-5.3859,-5.321,-5.2679,-5.0643,-4.9264,-4.9151,-4.7588,-4.686,-4.7279,-4.7309,-4.7309,-4.7309,-4.7309,-4.7309,-4.7309,-4.7309,-4.7309,-4.7309,-4.7309,-4.7309,-4.7309,-4.7309,-4.7309,-4.7309,-4.7309,-4.7309,-4.7309,-4.7309,-4.7309,-4.7309,-4.7309,-4.7309,-4.7309,-4.7309,-4.7309,-4.7309,-4.7309,-4.7728,-4.8356,-4.885,-4.9523,-5.0285,-5.0704,-5.1003,-5.1229,-5.1229,-5.2007,-5.2785,-5.2576,-5.3683,-5.482,-5.4581,-5.488,-5.5179,-5.5179,-5.5179,-5.5179,-5.5179,-5.5179,-5.5179,-5.5179,-5.5179,-5.5179,-5.5179,-5.5179,-5.5179,-5.5179,-5.5179,-5.5179,-5.5179,-5.5179,-5.5359,-5.5807,-5.6825,-5.7842,-5.871,-5.8979,-5.9099,-5.9099,-5.889,-5.856,-5.8141,-5.7902,-5.7543,-5.7094,-5.6885,-5.6585,-5.6166,-5.6008,-5.5598,-4.4526,-4.4766,-4.4945,-4.4945,-4.5125,-4.5304,-4.5304,-4.6214,-4.7294,-4.7991,-4.9378,-5.081,-5.1931,-5.2472,-5.2909,-5.3416,-5.3518,-5.3518,0.0,-5.3518,-5.3687,-5.416,-5.3809,-5.3487,-5.3252,-5.1523,-5.0145,-4.9456,-4.8019,-4.7135,-4.695,-4.7189,-4.7309,-4.7309,-4.7309,-4.7309,-4.7309,-4.7309,-4.7309,-4.7309,-4.7309,-4.7309,-4.7309,-4.7309,-4.7309,-4.7309,-4.7309,-4.7309,-4.7309,-4.7309,-4.7309,-4.7309,-4.7309,-4.7309,-4.7309,-4.7309,-4.7309,-4.7339,-4.7578,-4.8087,-4.8745,-4.9404,-5.0062,-5.0614,-5.1079,-5.1229,-5.1229,-5.1229,-5.2157,-5.3084,-5.2665,-5.3862,-5.5089,-5.467,-5.488,-5.5179,-5.5179,-5.5388,-5.5538,-5.5538,-5.5718,-5.5867,-5.5867,-5.5688,-5.5538,-5.5538,-5.5538,-5.5628,-5.5837,-5.5867,-5.5867,-5.5867,-5.5867,-5.6137,-5.6825,-5.7633,-5.8411,-5.9069,-5.9099,-5.9099,-5.9099,-5.9099,-5.9129,-5.9189,-5.871,-5.8501,-5.853,-5.7812,-5.7244,-5.6855,-5.6615,-5.6286]},{"header":{"parameterUnit":"m.s-1","parameterCategory":1,"la1":30.6,"la2":29.2853,"lo1":-89.7004,"lo2":-87.6739,"dy":0.0162,"dx":0.0183,"nx":112,"ny":82,"refTime":"2024-04-08T18:00:00:Z","depth":0,"parameterNumber":3,"parameterNumberName":"V-component_of_WINDS"},"data":[0.0,0.0,0.0,0.0,0.0,0.0,0.0,0.0,0.0,0.0,0.0,0.0,0.0,0.0,0.0,0.0,0.0,0.0,0.0,0.0,0.0,0.0,0.0,0.0,0.0,0.0,0.0,0.0,0.0,0.0,0.0,0.0,0.0,0.0,0.0,0.0,0.0,0.0,0.0,0.0,0.0,0.0,0.0,0.0,0.0,0.0,0.0,0.0,0.0,0.0,0.0,0.0,0.0,0.0,0.0,0.0,0.0,0.0,0.0,0.0,0.0,0.0,0.0,0.0,0.0,0.0,0.0,0.0,0.0,0.0,0.0,0.0,0.0,0.0,0.0,0.0,0.0,0.0,0.0,0.0,0.0,0.0,0.0,0.0,0.0,0.0,0.0,0.0,0.0,0.0,3.2216,3.2197,3.347,3.4668,3.5644,3.498,3.3474,3.0938,0.0,0.0,0.0,0.0,0.0,0.0,0.0,0.0,0.0,0.0,0.0,0.0,0.0,0.0,0.0,0.0,0.0,0.0,0.0,0.0,0.0,0.0,0.0,0.0,0.0,0.0,0.0,0.0,0.0,0.0,0.0,0.0,0.0,0.0,0.0,0.0,0.0,0.0,0.0,0.0,0.0,0.0,0.0,0.0,0.0,0.0,0.0,0.0,0.0,0.0,0.0,0.0,0.0,0.0,0.0,0.0,0.0,0.0,0.0,0.0,0.0,0.0,0.0,0.0,0.0,0.0,0.0,0.0,0.0,0.0,0.0,0.0,0.0,0.0,0.0,0.0,0.0,0.0,0.0,0.0,0.0,0.0,0.0,0.0,0.0,0.0,0.0,0.0,0.0,0.0,0.0,0.0,0.0,0.0,0.0,0.0,0.0,0.0,0.0,0.0,0.0,0.0,0.0,0.0,3.5352,3.5204,3.5156,3.4961,3.4414,3.3906,3.253,3.0021,0.0,0.0,0.0,0.0,0.0,0.0,0.0,0.0,0.0,0.0,0.0,0.0,0.0,0.0,0.0,0.0,0.0,0.0,0.0,0.0,0.0,0.0,0.0,0.0,0.0,0.0,0.0,0.0,0.0,0.0,0.0,0.0,0.0,0.0,0.0,0.0,0.0,0.0,0.0,0.0,0.0,0.0,0.0,0.0,0.0,0.0,0.0,0.0,0.0,0.0,0.0,0.0,0.0,0.0,0.0,0.0,0.0,0.0,0.0,0.0,0.0,0.0,0.0,0.0,0.0,0.0,0.0,0.0,0.0,0.0,0.0,0.0,0.0,0.0,0.0,0.0,0.0,0.0,0.0,0.0,0.0,0.0,0.0,0.0,0.0,0.0,0.0,0.0,0.0,0.0,0.0,0.0,0.0,0.0,0.0,0.0,0.0,0.0,0.0,0.0,0.0,0.0,0.0,3.5656,3.6016,3.5842,3.5726,3.5264,3.4459,3.3594,3.2579,3.1432,3.1167,0.0,0.0,0.0,0.0,0.0,0.0,0.0,0.0,0.0,0.0,0.0,0.0,0.0,0.0,0.0,0.0,0.0,0.0,0.0,0.0,0.0,0.0,0.0,0.0,0.0,0.0,0.0,0.0,0.0,0.0,0.0,0.0,0.0,0.0,0.0,0.0,0.0,0.0,0.0,0.0,0.0,0.0,0.0,0.0,0.0,0.0,0.0,0.0,0.0,0.0,0.0,0.0,0.0,0.0,0.0,0.0,0.0,0.0,0.0,0.0,0.0,0.0,0.0,0.0,0.0,0.0,0.0,0.0,0.0,0.0,0.0,0.0,0.0,0.0,0.0,0.0,0.0,0.0,0.0,0.0,0.0,0.0,0.0,0.0,0.0,0.0,0.0,0.0,0.0,0.0,0.0,0.0,0.0,0.0,0.0,0.0,0.0,0.0,0.0,0.0,0.0,0.0,3.7257,3.6949,3.6932,3.6319,3.5666,3.5027,3.365,3.2754,3.2656,3.1934,0.0,0.0,0.0,0.0,0.0,0.0,0.0,0.0,0.0,0.0,0.0,0.0,0.0,0.0,0.0,0.0,0.0,0.0,0.0,0.0,0.0,0.0,0.0,0.0,0.0,0.0,0.0,0.0,0.0,0.0,0.0,0.0,0.0,0.0,0.0,0.0,0.0,0.0,0.0,0.0,0.0,0.0,0.0,0.0,0.0,0.0,0.0,0.0,0.0,0.0,0.0,0.0,0.0,0.0,0.0,0.0,0.0,0.0,0.0,0.0,0.0,0.0,0.0,0.0,0.0,0.0,0.0,0.0,0.0,0.0,0.0,0.0,0.0,0.0,0.0,0.0,0.0,0.0,0.0,0.0,0.0,0.0,0.0,0.0,0.0,0.0,0.0,0.0,0.0,0.0,0.0,0.0,0.0,0.0,0.0,0.0,0.0,0.0,0.0,0.0,0.0,0.0,4.0009,3.9561,4.0174,3.7984,3.6268,3.5747,3.3959,3.2637,3.2307,3.1777,0.0,0.0,0.0,0.0,0.0,0.0,0.0,0.0,0.0,0.0,0.0,0.0,0.0,0.0,0.0,0.0,0.0,0.0,0.0,0.0,0.0,0.0,0.0,0.0,0.0,0.0,0.0,0.0,0.0,0.0,0.0,0.0,0.0,0.0,0.0,0.0,0.0,0.0,0.0,0.0,0.0,0.0,0.0,0.0,0.0,0.0,0.0,0.0,0.0,0.0,0.0,0.0,0.0,0.0,0.0,0.0,0.0,0.0,0.0,0.0,0.0,0.0,0.0,0.0,0.0,0.0,0.0,0.0,0.0,0.0,0.0,0.0,0.0,0.0,0.0,0.0,0.0,0.0,0.0,0.0,0.0,0.0,0.0,0.0,0.0,0.0,0.0,0.0,0.0,0.0,0.0,0.0,0.0,0.0,0.0,0.0,0.0,0.0,0.0,0.0,0.0,0.0,4.0517,4.0519,4.0126,3.9441,3.8163,3.6011,3.486,3.372,3.2309,0.0,0.0,0.0,0.0,0.0,0.0,0.0,0.0,0.0,0.0,0.0,0.0,0.0,0.0,0.0,0.0,0.0,0.0,0.0,0.0,0.0,0.0,0.0,0.0,0.0,0.0,0.0,0.0,0.0,0.0,0.0,0.0,0.0,0.0,0.0,0.0,0.0,0.0,0.0,0.0,0.0,0.0,0.0,0.0,0.0,0.0,0.0,0.0,0.0,0.0,0.0,0.0,0.0,0.0,0.0,0.0,0.0,0.0,0.0,0.0,0.0,0.0,0.0,0.0,0.0,0.0,0.0,0.0,0.0,0.0,0.0,0.0,0.0,0.0,0.0,0.0,0.0,0.0,0.0,0.0,0.0,0.0,0.0,0.0,0.0,0.0,0.0,0.0,0.0,0.0,0.0,0.0,0.0,0.0,0.0,0.0,0.0,0.0,0.0,0.0,0.0,0.0,3.9672,4.0651,4.1097,4.0626,4.0425,3.9442,3.7264,3.5627,3.4152,3.2774,0.0,0.0,0.0,0.0,0.0,0.0,0.0,0.0,0.0,0.0,0.0,0.0,0.0,0.0,0.0,0.0,0.0,0.0,0.0,0.0,0.0,0.0,0.0,0.0,0.0,0.0,0.0,0.0,0.0,0.0,0.0,0.0,0.0,0.0,0.0,0.0,0.0,0.0,0.0,0.0,0.0,0.0,0.0,0.0,0.0,0.0,0.0,0.0,0.0,0.0,0.0,0.0,0.0,0.0,0.0,0.0,0.0,0.0,0.0,0.0,0.0,0.0,0.0,0.0,0.0,0.0,0.0,0.0,0.0,0.0,0.0,0.0,0.0,0.0,0.0,0.0,0.0,0.0,0.0,0.0,0.0,0.0,0.0,0.0,0.0,0.0,0.0,0.0,0.0,0.0,0.0,0.0,0.0,0.0,0.0,0.0,0.0,0.0,0.0,0.0,0.0,0.0,3.9648,4.0651,4.153,4.2137,4.0787,3.9807,3.9807,3.6086,3.3749,0.0,0.0,0.0,0.0,0.0,0.0,0.0,0.0,0.0,0.0,0.0,0.0,0.0,0.0,0.0,0.0,0.0,0.0,0.0,0.0,0.0,0.0,0.0,0.0,0.0,0.0,0.0,0.0,0.0,0.0,0.0,0.0,0.0,0.0,0.0,0.0,0.0,0.0,0.0,0.0,0.0,0.0,0.0,0.0,0.0,0.0,0.0,0.0,0.0,0.0,0.0,0.0,0.0,0.0,0.0,0.0,0.0,0.0,0.0,0.0,0.0,0.0,0.0,0.0,0.0,0.0,0.0,0.0,0.0,0.0,0.0,0.0,0.0,0.0,0.0,0.0,0.0,0.0,0.0,0.0,0.0,0.0,0.0,0.0,0.0,0.0,0.0,0.0,0.0,0.0,0.0,0.0,0.0,0.0,0.0,0.0,0.0,0.0,0.0,0.0,0.0,0.0,0.0,3.9871,4.1921,4.3134,4.2424,4.2238,4.1376,3.9348,3.7441,3.6067,3.5307,0.0,0.0,0.0,0.0,0.0,0.0,0.0,0.0,0.0,0.0,0.0,0.0,0.0,0.0,0.0,0.0,0.0,0.0,0.0,0.0,0.0,0.0,0.0,0.0,0.0,0.0,0.0,0.0,0.0,0.0,0.0,0.0,0.0,0.0,0.0,0.0,0.0,0.0,0.0,0.0,0.0,0.0,0.0,0.0,0.0,0.0,0.0,0.0,0.0,0.0,0.0,0.0,0.0,0.0,0.0,0.0,0.0,0.0,0.0,0.0,0.0,0.0,0.0,0.0,0.0,0.0,0.0,0.0,0.0,0.0,0.0,0.0,0.0,0.0,0.0,0.0,0.0,0.0,0.0,0.0,0.0,0.0,0.0,0.0,0.0,0.0,0.0,0.0,0.0,0.0,0.0,0.0,0.0,0.0,0.0,0.0,0.0,0.0,0.0,0.0,0.0,0.0,4.0555,4.2542,4.3676,4.321,4.2955,4.219,4.0454,3.8379,3.6914,3.6277,0.0,0.0,0.0,0.0,0.0,0.0,0.0,0.0,0.0,0.0,0.0,0.0,0.0,0.0,0.0,0.0,0.0,0.0,0.0,0.0,0.0,0.0,0.0,0.0,0.0,0.0,0.0,0.0,0.0,0.0,0.0,0.0,0.0,0.0,0.0,0.0,0.0,0.0,0.0,0.0,0.0,0.0,0.0,0.0,0.0,0.0,0.0,0.0,0.0,0.0,0.0,0.0,0.0,0.0,0.0,0.0,0.0,0.0,0.0,0.0,0.0,0.0,0.0,0.0,0.0,0.0,0.0,0.0,0.0,0.0,0.0,0.0,0.0,0.0,0.0,0.0,0.0,0.0,0.0,0.0,0.0,0.0,0.0,0.0,0.0,0.0,0.0,0.0,0.0,0.0,0.0,0.0,0.0,0.0,0.0,0.0,0.0,0.0,0.0,0.0,0.0,0.0,4.1671,4.2861,4.3804,4.4346,4.3355,4.2634,4.2534,3.9194,3.7139,3.7084,0.0,0.0,0.0,0.0,0.0,0.0,0.0,0.0,0.0,0.0,0.0,0.0,0.0,0.0,0.0,0.0,0.0,0.0,0.0,0.0,0.0,0.0,0.0,0.0,0.0,0.0,0.0,0.0,0.0,0.0,0.0,0.0,0.0,0.0,0.0,0.0,0.0,0.0,0.0,0.0,0.0,0.0,0.0,0.0,0.0,0.0,0.0,0.0,0.0,0.0,0.0,0.0,0.0,0.0,0.0,0.0,0.0,0.0,0.0,0.0,4.5145,4.5056,0.0,0.0,0.0,0.0,0.0,0.0,0.0,0.0,0.0,0.0,0.0,0.0,0.0,0.0,0.0,0.0,0.0,0.0,0.0,0.0,0.0,0.0,0.0,0.0,0.0,0.0,0.0,0.0,0.0,0.0,0.0,0.0,0.0,0.0,0.0,0.0,0.0,0.0,0.0,0.0,4.3081,4.4647,4.5551,4.5184,4.4918,4.4359,4.3362,4.1646,4.0404,3.9936,3.7192,0.0,0.0,0.0,0.0,0.0,0.0,0.0,0.0,0.0,0.0,0.0,0.0,0.0,0.0,0.0,0.0,0.0,0.0,0.0,0.0,0.0,0.0,0.0,0.0,0.0,0.0,0.0,0.0,0.0,0.0,0.0,0.0,0.0,0.0,0.0,0.0,0.0,0.0,0.0,0.0,0.0,0.0,0.0,0.0,0.0,0.0,0.0,0.0,0.0,0.0,0.0,0.0,0.0,0.0,0.0,0.0,0.0,0.0,0.0,4.8603,4.7136,0.0,0.0,0.0,0.0,0.0,0.0,0.0,0.0,0.0,0.0,0.0,0.0,0.0,0.0,0.0,0.0,0.0,0.0,0.0,0.0,0.0,0.0,0.0,0.0,0.0,0.0,0.0,0.0,0.0,0.0,0.0,0.0,0.0,0.0,0.0,0.0,0.0,0.0,0.0,0.0,4.4246,4.5238,4.5947,4.63,4.5779,4.5115,4.4442,4.3046,4.192,4.1295,3.9628,0.0,0.0,0.0,0.0,0.0,0.0,0.0,0.0,0.0,0.0,0.0,0.0,0.0,0.0,0.0,0.0,0.0,0.0,0.0,0.0,0.0,0.0,0.0,0.0,0.0,0.0,0.0,0.0,0.0,0.0,0.0,0.0,0.0,0.0,0.0,0.0,0.0,0.0,0.0,0.0,0.0,0.0,0.0,0.0,0.0,0.0,0.0,0.0,0.0,0.0,0.0,0.0,0.0,5.9249,5.9854,6.0591,5.9412,5.8481,5.751,5.2523,4.9506,4.812,4.8301,0.0,0.0,0.0,0.0,0.0,0.0,0.0,0.0,0.0,0.0,0.0,0.0,0.0,0.0,0.0,0.0,0.0,0.0,0.0,0.0,0.0,0.0,5.026,4.9108,4.8152,4.689,4.4601,0.0,0.0,0.0,0.0,0.0,0.0,0.0,0.0,0.0,0.0,0.0,4.4851,4.5214,4.5813,4.716,4.6344,4.5676,4.5589,4.41,4.2772,4.1886,4.1664,4.0628,0.0,0.0,0.0,0.0,0.0,0.0,0.0,0.0,0.0,0.0,0.0,0.0,0.0,0.0,0.0,0.0,0.0,0.0,0.0,0.0,0.0,0.0,0.0,0.0,0.0,0.0,0.0,0.0,0.0,0.0,0.0,0.0,5.2429,5.2429,0.0,0.0,0.0,0.0,0.0,0.0,0.0,0.0,0.0,0.0,0.0,0.0,0.0,5.9184,5.9367,6.1626,6.2379,6.1675,6.3468,6.3789,6.273,6.1963,6.1229,6.0526,5.971,0.0,5.21,5.0367,0.0,0.0,0.0,0.0,0.0,0.0,0.0,0.0,0.0,0.0,0.0,0.0,0.0,0.0,0.0,0.0,0.0,0.0,0.0,0.0,0.0,0.0,5.1087,5.0299,5.0055,4.9434,4.7599,4.4792,4.2609,4.2527,4.2113,4.1737,0.0,0.0,0.0,0.0,0.0,0.0,4.4306,4.4945,4.5813,4.716,4.7149,4.678,4.6215,4.5404,4.4229,4.2625,4.1519,4.0746,4.0381,3.942,0.0,0.0,0.0,0.0,0.0,0.0,0.0,0.0,0.0,0.0,0.0,0.0,0.0,0.0,0.0,0.0,0.0,0.0,0.0,0.0,0.0,0.0,0.0,0.0,0.0,0.0,0.0,0.0,0.0,5.4902,5.5597,5.5192,5.4791,5.3921,0.0,0.0,0.0,0.0,0.0,0.0,0.0,0.0,0.0,5.9389,6.1383,6.2418,6.2418,6.3977,6.5045,6.5582,6.6465,6.6977,6.7115,6.6026,6.4719,6.3325,6.2956,6.0756,5.7398,5.6083,5.4831,5.3627,0.0,0.0,0.0,0.0,5.2303,5.2027,5.172,5.1383,5.0825,4.9534,0.0,0.0,0.0,0.0,0.0,0.0,0.0,5.162,5.1327,5.1897,5.2494,5.2233,5.1667,5.102,5.0247,4.78,4.5412,4.4284,4.4543,4.4896,4.4583,4.4479,0.0,0.0,0.0,4.3827,4.4758,4.5125,4.5813,4.716,4.7309,4.704,4.6339,4.6052,4.5186,4.3661,4.3071,4.2274,4.1241,4.1029,4.0275,0.0,0.0,0.0,0.0,0.0,0.0,0.0,0.0,0.0,0.0,0.0,0.0,0.0,0.0,0.0,0.0,0.0,0.0,0.0,0.0,0.0,0.0,0.0,0.0,0.0,0.0,0.0,0.0,5.7842,5.8501,5.7483,5.7902,5.7345,0.0,0.0,0.0,0.0,0.0,0.0,5.8193,6.0963,6.2762,6.3196,6.4723,6.5546,6.5465,6.6355,6.7487,6.8978,6.8978,6.9553,7.0421,6.9061,6.7603,6.6063,6.5363,6.4094,6.2346,6.086,5.9216,5.7536,5.6819,5.6114,5.5473,5.5767,5.5624,5.5302,5.5108,5.4632,5.3753,5.2178,5.1565,5.1239,4.9972,0.0,0.0,0.0,0.0,5.2312,5.2312,5.2904,5.3518,5.3518,5.2904,5.2175,5.1726,5.0196,4.8366,4.6462,4.6762,4.7208,4.6785,4.637,0.0,4.5776,4.4903,4.4589,4.5324,4.5565,4.6075,4.7203,4.716,4.677,4.6112,4.5903,4.5304,4.4137,4.4037,4.3445,4.2099,4.2424,4.1678,3.962,0.0,0.0,0.0,0.0,0.0,0.0,0.0,0.0,0.0,0.0,0.0,0.0,0.0,0.0,0.0,0.0,0.0,0.0,0.0,0.0,0.0,0.0,0.0,0.0,0.0,0.0,0.0,0.0,0.0,5.8291,6.195,0.0,0.0,0.0,0.0,6.2524,6.3308,6.3772,6.3804,6.5297,6.6117,6.6017,6.803,6.9085,6.8956,7.0302,7.103,7.1154,7.1154,7.1154,7.121,6.9701,6.8982,6.8837,6.8061,6.7242,6.622,6.2464,6.0532,5.9762,5.9043,5.8305,5.7838,5.8885,5.8396,5.7153,5.654,5.5814,5.4897,5.3053,5.1989,5.1286,5.0575,5.1038,0.0,0.0,5.2592,5.3416,5.3416,5.3484,5.3518,5.3518,5.3484,5.2943,5.1208,5.0766,5.0148,4.8487,4.7121,4.6262,4.6266,0.0,4.5981,4.5341,4.569,4.5968,4.5711,4.6237,4.6793,4.7246,4.6741,4.6082,4.5394,4.4766,4.4107,4.3379,4.3349,4.3319,4.321,4.324,4.2699,4.1488,4.0859,0.0,0.0,0.0,0.0,0.0,0.0,0.0,0.0,0.0,0.0,0.0,0.0,0.0,0.0,0.0,0.0,0.0,0.0,0.0,0.0,0.0,0.0,0.0,0.0,0.0,0.0,0.0,0.0,6.4183,6.6365,0.0,6.3907,6.3821,6.3934,6.3934,6.4946,6.6385,6.8193,6.9141,6.9813,7.0187,7.0924,7.1043,7.0528,7.1052,7.1312,7.1312,7.1312,7.1312,7.1278,7.0263,6.9088,6.7811,6.7897,6.6993,6.5525,6.4949,6.3753,6.2157,6.092,5.9956,5.9305,5.9221,5.8835,5.8337,5.7603,5.6865,5.5987,5.4386,5.3343,5.2713,5.2447,5.2661,5.2939,5.2939,5.3212,5.3518,5.3518,5.3518,5.3382,5.2841,5.2739,5.2403,5.1296,5.0659,5.0192,4.956,4.8525,4.7755,4.7789,4.7507,4.7307,4.7468,4.6843,4.6469,4.6629,4.6303,4.6251,4.6844,4.6169,4.5394,4.4706,4.4436,4.4298,4.4266,4.3654,4.3858,4.5091,4.4593,4.3876,4.3015,4.2349,4.1735,0.0,0.0,0.0,0.0,0.0,0.0,0.0,0.0,0.0,0.0,0.0,0.0,0.0,0.0,0.0,0.0,0.0,0.0,0.0,0.0,0.0,0.0,0.0,0.0,0.0,6.5307,6.7831,6.7484,6.9924,7.0539,6.7833,6.7687,6.7797,6.7797,6.8585,6.9812,7.1427,7.2159,7.2496,7.2382,7.2394,7.2056,7.1312,7.1312,7.1312,7.1312,7.1312,7.1176,7.0906,7.0161,6.8953,6.7367,6.7449,6.6623,6.5203,6.5842,6.5053,6.3463,6.2719,6.1772,6.0791,6.0047,5.9471,5.8863,5.7881,5.6867,5.5886,5.4905,5.4093,5.3518,5.3518,5.3518,5.3518,5.3518,5.3518,5.345,5.3179,5.3112,5.2909,5.2131,5.1928,5.1725,5.1014,5.0439,5.0033,4.9763,4.9185,4.8729,4.8795,4.8509,4.8495,4.906,4.8362,4.7869,4.835,4.7631,4.7057,4.7043,4.6091,4.5102,4.4347,4.4398,4.4447,4.4427,4.385,4.4105,4.54,4.4867,4.4449,4.4235,4.3576,4.2914,4.226,0.0,0.0,0.0,0.0,0.0,0.0,0.0,0.0,0.0,0.0,0.0,0.0,0.0,0.0,0.0,0.0,0.0,0.0,0.0,0.0,0.0,0.0,0.0,6.4288,6.7355,6.9142,6.8028,7.2573,7.4757,7.2167,7.3572,7.4661,7.4661,7.4661,7.4322,7.3578,7.4221,7.395,7.2496,7.2428,7.2056,7.1312,7.1312,7.1312,7.1312,7.1312,7.0906,7.0161,6.9383,6.8605,6.7861,6.7083,6.6339,6.5628,6.4884,6.4174,6.3599,6.4275,6.3632,6.2279,6.1535,6.0283,5.8727,5.7239,5.5784,5.46,5.4566,5.4093,5.3518,5.3518,5.3518,5.3518,5.3518,5.3484,5.3281,5.2503,5.2266,5.2097,5.1352,5.1183,5.098,5.0202,5.0033,4.983,4.912,4.8984,4.8984,4.9018,4.9018,4.9255,4.9965,5.0067,0.0,5.0711,5.0107,4.9167,4.8012,4.6617,4.5348,4.4449,4.468,4.4539,4.3789,4.3861,4.3994,4.4061,4.4028,4.4347,4.5117,4.4477,4.3453,4.2109,0.0,0.0,0.0,0.0,0.0,0.0,0.0,0.0,0.0,0.0,0.0,0.0,0.0,0.0,0.0,0.0,0.0,0.0,0.0,0.0,0.0,6.3821,6.6562,6.7123,7.0708,7.3454,7.4253,7.6609,7.7632,7.6387,7.6309,7.6048,7.5439,7.5405,7.5303,7.51,7.4796,7.4187,7.3206,7.2665,7.2056,7.1312,7.1312,7.1312,7.1312,7.077,7.0398,7.0128,6.8267,6.7624,6.7793,6.6,6.5392,6.5628,6.4884,6.4174,6.3497,6.3125,6.2415,6.1501,6.0723,5.9167,5.7205,5.5716,5.4938,5.4499,5.3991,5.3687,5.3518,5.3518,5.3518,5.3518,5.3518,5.3078,5.257,5.2367,5.1894,5.1319,5.0574,5.0405,5.0202,4.9458,4.8883,4.8612,4.8951,4.8578,4.8376,4.8917,4.9018,4.9086,4.9255,4.9289,4.9533,5.0219,4.9061,4.8456,4.9174,4.7846,4.6755,4.6496,4.6049,4.5556,4.4981,4.3809,4.3784,4.5166,4.458,4.4559,4.5374,4.5006,4.4669,0.0,0.0,0.0,0.0,0.0,0.0,0.0,0.0,0.0,0.0,0.0,0.0,0.0,0.0,0.0,0.0,0.0,0.0,0.0,0.0,0.0,0.0,6.6379,6.8994,7.0363,7.344,7.6014,7.7198,7.8653,7.9397,7.8957,7.7976,7.7164,7.669,7.5777,7.5236,7.5236,7.4255,7.3477,7.3037,7.2326,7.1751,7.1312,7.1312,7.1312,7.1312,7.0534,7.0026,6.9654,6.7692,6.688,6.688,6.529,6.4681,6.4749,6.4343,6.37,6.299,0.0,0.0,0.0,0.0,5.7509,5.575,5.4905,5.4397,5.4059,5.3653,5.3281,5.301,5.301,5.2773,5.2536,5.2536,5.2198,5.1758,5.1454,5.1048,5.0541,4.9796,4.9627,4.9424,4.8714,4.8206,4.8007,4.8477,4.7936,0.0,4.8815,4.9018,4.912,4.9424,4.9458,4.9729,5.0473,4.9719,4.9161,4.9321,4.8476,4.7596,4.6885,4.6816,0.0,0.0,0.0,4.4398,4.5201,4.5303,0.0,0.0,0.0,4.5832,4.5864,4.629,0.0,0.0,4.6254,4.6473,0.0,0.0,0.0,0.0,0.0,0.0,0.0,0.0,0.0,0.0,0.0,0.0,0.0,0.0,0.0,0.0,6.8741,7.1176,7.3308,7.5574,7.7266,7.7908,7.9228,8.0107,8.0175,7.8923,7.8077,7.801,7.6048,7.4796,7.4627,7.3274,0.0,0.0,0.0,7.1312,7.1312,7.1312,7.1312,7.1312,7.0466,6.9722,6.9045,6.7421,6.6305,6.5628,6.4816,6.4106,6.3497,6.3429,6.2888,6.2144,6.2144,6.1197,5.9607,5.7476,5.5784,5.4566,5.4499,0.0,0.0,5.3518,5.2976,5.23,5.23,5.1792,5.1185,5.1185,5.115,5.0947,5.027,5.0033,4.9796,4.9154,4.8951,4.8714,4.8173,4.7804,4.7703,4.7973,4.7361,4.7259,4.8748,4.8951,4.912,4.9864,4.9965,5.0236,5.098,5.1014,5.0453,4.9094,4.8927,0.0,4.6786,4.7305,4.7077,4.5557,4.5429,4.5162,4.4513,4.5805,4.6583,4.665,4.6684,4.6718,4.6786,4.6786,4.7192,4.7906,4.7796,4.7407,0.0,0.0,0.0,0.0,0.0,0.0,0.0,0.0,0.0,0.0,0.0,0.0,0.0,0.0,0.0,6.8146,7.0467,7.2529,7.4153,7.6352,7.7841,7.7976,7.8788,7.9566,8.0141,7.9397,7.8653,7.8044,7.7029,7.5912,7.4695,7.3781,7.3003,7.2428,7.1684,7.1312,7.1312,7.1312,7.1312,7.1312,6.9958,0.0,6.9045,6.688,6.5831,6.5628,6.4309,6.3632,6.3463,6.2854,6.1806,6.0554,6.0554,5.9641,5.8118,5.6528,5.5378,5.4499,5.3923,5.3619,5.3518,5.3518,5.2976,5.23,5.23,5.1792,0.0,5.1185,5.0777,5.027,5.0135,4.9661,4.9187,4.9052,4.8545,4.824,4.8714,4.7394,4.665,4.8443,4.7699,4.7259,4.8748,4.8511,4.8376,4.912,4.9221,4.9492,5.0202,4.9796,4.9767,5.0619,5.0183,4.9714,4.9385,4.8976,4.7861,4.5774,4.4508,4.3781,4.3639,4.4519,4.5297,4.5906,4.5906,4.621,4.6786,4.6786,4.7192,4.7906,4.8461,4.8635,0.0,0.0,0.0,0.0,0.0,0.0,0.0,0.0,0.0,0.0,0.0,6.2954,6.3881,0.0,6.8372,7.0411,7.2293,7.3883,7.4999,7.6115,7.713,7.7908,7.8991,7.9803,8.0175,7.9532,7.8788,7.8044,7.6589,7.527,7.4119,7.3003,7.2225,7.1853,7.1515,7.1312,7.1312,7.1312,7.1312,7.1312,6.9823,6.9113,6.9011,6.6339,6.5155,6.5053,6.3599,6.2956,6.2888,6.2144,6.1163,6.0047,5.9708,5.8423,5.6697,5.5987,5.5006,5.3991,5.3619,5.3518,5.345,5.3044,5.2367,5.1691,5.1319,5.0676,5.0101,5.0101,4.983,4.956,4.956,4.9289,4.9018,4.9018,4.8714,4.8477,4.8477,4.7597,4.7158,4.824,4.7564,4.7259,4.8748,4.8409,4.8142,4.8883,4.9018,4.912,4.9492,4.956,4.9695,5.0067,5.0101,4.9932,4.9593,4.8545,4.7428,4.6312,4.4823,4.4012,4.4012,4.4722,4.5331,4.5703,4.5703,4.6075,4.6786,4.6786,4.7192,4.7906,4.8277,4.8477,0.0,0.0,0.0,0.0,0.0,0.0,0.0,6.081,6.0915,6.2679,6.4428,6.5935,6.7077,6.9222,7.1312,7.28,7.4052,7.51,7.5845,7.6183,7.6661,7.7462,7.8875,7.987,8.0175,7.9397,7.8653,7.8044,7.6014,7.4492,7.3747,7.2462,7.1684,7.1548,7.1379,7.1312,7.1312,7.1312,7.1312,7.1312,6.9823,6.9011,6.8774,6.6034,6.4749,6.4546,6.3193,6.2448,6.211,6.1366,6.0622,5.981,5.893,5.7408,5.5681,5.5681,5.4769,5.3518,5.3518,5.3416,5.3179,5.2503,5.1725,5.0879,5.027,4.9593,4.9018,4.9018,4.9018,4.9018,4.9018,4.9018,4.9018,4.9018,4.8883,4.868,4.821,4.7902,4.7767,4.8071,4.753,4.7428,4.8781,4.8511,4.8342,4.8917,4.9018,4.9018,4.9018,4.9526,4.9661,4.9052,4.9526,4.9593,4.8849,4.7564,4.6718,4.6583,4.5359,4.4615,4.4615,4.5162,4.55,4.55,4.55,4.5771,4.6346,4.6346,4.6752,4.7466,4.7466,4.7601,5.5179,5.5232,5.6273,6.0261,6.0044,6.0647,0.0,6.7157,6.6187,6.8696,7.0412,7.13,7.0828,7.2032,7.3612,7.51,7.5473,7.5845,7.6657,7.7908,7.8035,7.6206,7.7346,7.8754,8.0073,7.8923,7.8077,7.801,7.6487,7.527,7.4525,7.368,7.2935,7.2293,7.165,7.1312,7.1312,7.1312,7.1312,7.1312,6.9823,6.8741,6.7996,6.6305,6.5222,6.4546,6.3734,6.2651,6.1366,6.0554,5.981,5.8998,5.7611,5.6494,5.5681,5.5681,5.4769,5.3518,5.3518,5.3044,5.2435,5.2334,5.1352,5.0202,5.0135,4.9593,4.9018,4.9018,4.9018,4.9018,4.9018,4.9018,4.9018,4.9018,4.8511,4.8206,4.8748,4.7834,4.7293,4.8612,4.8274,4.8071,4.8849,4.8951,4.8917,4.8984,4.9018,4.9018,4.9018,4.9086,4.9086,4.9018,4.9086,4.8815,4.8075,4.7259,4.6515,4.5872,4.5026,4.4615,4.4615,4.4682,4.4716,4.4716,4.4716,4.4784,4.4852,4.4852,4.5229,4.5974,4.5974,4.665,5.7726,5.7825,5.8716,6.1983,6.3157,6.4614,6.8634,6.8705,6.8495,7.0445,7.1684,7.2326,7.1988,7.351,7.4965,7.5608,7.567,7.5971,7.6737,7.5898,7.4992,7.455,7.4678,7.5542,7.7359,7.7365,7.6926,7.6046,7.5806,7.5171,7.3973,7.3258,7.2699,7.2428,7.1684,7.1312,7.1312,7.1312,7.1075,7.0635,6.9586,6.847,6.7218,6.573,6.441,6.326,6.255,6.1486,6.0271,5.9717,5.8627,5.733,5.6954,5.6089,5.5074,5.5074,5.4397,5.3518,5.3518,5.2976,5.2232,5.1826,5.0947,4.9999,4.9593,4.9255,4.9018,4.9018,4.9018,4.9018,4.9018,4.9018,4.9018,4.9018,4.8781,4.8646,4.8951,4.8511,4.8274,4.8883,4.8748,4.8646,4.8951,4.9018,4.9018,4.9018,4.9018,4.9018,4.9018,4.9018,4.8849,4.8409,4.797,4.7597,4.7293,4.6583,4.6041,4.5737,4.4993,4.4615,4.4615,4.4615,4.4615,4.4615,4.4615,4.4615,4.4615,4.5026,4.5399,4.5703,4.5703,4.6041,5.8655,5.9388,6.0591,6.3172,6.5628,6.7793,6.9113,6.9553,7.0026,7.1109,7.2056,7.2607,7.2169,7.3889,7.5301,7.5122,7.5265,7.556,7.6082,7.4361,7.2884,7.2673,7.2228,7.2287,7.343,7.4774,7.5244,7.4292,7.4393,7.3923,7.2639,7.1935,7.1613,7.182,7.1115,7.0882,7.1312,7.1312,7.0939,7.0195,6.9451,6.8199,6.644,6.4986,6.3599,6.2347,6.1839,6.0751,5.9226,5.8552,5.7177,5.5496,5.5699,5.5091,5.4152,5.426,5.3957,5.3518,5.3518,5.2841,5.1928,5.1386,5.0574,4.9695,4.9154,4.9018,4.9018,4.9018,4.9018,4.9018,4.9018,4.9018,4.9018,4.9018,4.9018,4.9018,4.9018,4.9018,4.9018,4.9018,4.9018,4.9018,4.9018,4.9018,4.9018,4.9018,4.9018,4.9018,4.9018,4.9018,4.8815,4.8244,4.753,4.7022,4.6819,4.6109,4.5602,4.5399,4.4919,4.4615,4.4615,4.4615,4.4615,4.4615,4.4615,4.4615,4.4615,4.5128,4.5399,4.5399,4.5399,4.5399,5.6518,5.8357,6.0765,6.3776,6.6812,6.9214,6.9992,7.0737,7.1278,7.1312,7.2462,7.3036,7.1606,7.3054,7.4314,7.3697,7.41,7.4523,7.4555,7.458,7.3467,7.0614,7.031,6.9841,6.8388,7.0897,7.2875,7.3492,7.2298,7.1262,7.0525,6.9819,6.9704,7.032,6.9628,6.9902,7.1267,7.1312,7.0939,7.0195,6.9451,6.7929,6.5662,6.4208,6.3125,6.2381,6.2381,6.0918,5.8426,5.7053,5.5338,5.364,5.3231,5.3082,5.3093,5.3413,5.3518,5.3518,5.3518,5.2536,5.1219,5.1217,5.0236,4.9052,4.9018,4.9018,4.9018,4.9018,4.9018,4.9018,4.9018,4.9018,4.9018,4.9018,4.9018,4.9018,4.9018,4.9018,4.9018,4.9018,4.9018,4.9018,4.9018,4.9018,4.9018,4.9018,4.9018,4.9018,4.9018,4.9018,4.8984,4.8984,4.8308,4.7597,4.6853,4.6109,4.5399,4.4682,4.4615,4.4615,4.4615,4.4615,4.4615,4.4615,4.4615,4.4615,4.4615,4.4615,4.4649,4.4649,4.4649,4.4649,5.5721,5.7433,5.9475,6.2599,6.5626,6.8053,6.9237,7.0452,7.1312,7.1312,7.1345,7.1202,7.0732,7.1667,7.2563,7.2778,7.2932,7.3174,7.3581,7.2427,7.0679,6.8365,6.8092,6.7578,6.6162,6.8609,7.0357,7.0494,7.1099,7.0853,6.9684,6.9822,7.0066,7.0304,7.0041,7.032,7.1267,7.0804,6.9925,6.8639,6.644,6.4986,6.4208,6.3226,6.2381,6.1598,6.0324,5.8609,5.6534,5.515,5.3428,5.1748,5.1931,5.1712,5.1367,5.2128,5.2418,5.2557,5.3247,5.2503,5.1185,5.1185,5.0202,4.9018,4.9018,4.9018,4.9018,4.9018,4.9018,4.9018,4.9018,4.9018,4.9018,4.9018,4.9018,4.9018,4.9018,4.9018,4.9018,4.9018,4.9018,4.9018,4.9018,4.9018,4.9018,4.9018,4.9018,4.9018,4.9018,4.8139,4.753,4.753,4.6447,4.5602,4.5359,4.5122,4.4857,4.4615,4.4615,4.4615,4.4615,4.4615,4.4615,4.4615,4.4615,4.4615,4.4615,4.4615,4.4615,4.4615,4.4615,4.4615,5.5869,5.7704,5.9866,6.2553,6.5239,6.7361,6.8275,6.9169,6.9808,6.9808,6.9531,6.9056,6.8553,6.9095,6.9675,6.981,6.9952,7.0495,7.1873,7.0237,6.8704,6.8136,6.7238,6.64,6.5802,6.6938,6.7725,6.7899,6.8674,6.8686,6.7767,6.792,6.8508,6.953,6.9269,6.9808,7.1267,7.0567,6.9282,6.7489,6.4783,6.3531,6.3457,6.2287,6.1354,6.0577,5.87,5.6666,5.4654,5.3228,5.157,4.9941,5.0367,5.0232,4.997,5.0968,5.134,5.1594,5.3007,5.2503,5.1185,5.1185,5.0202,4.9018,4.9018,4.9018,4.9018,4.9018,4.9018,4.9018,4.9018,4.9018,4.9018,4.9018,4.9018,4.9018,4.9018,4.9018,4.9018,4.9018,4.9018,4.9018,4.9018,4.9018,4.9018,4.9018,4.9018,4.9018,4.9018,4.8173,4.7496,4.7225,4.6346,4.5568,4.5026,4.4993,4.4857,4.4615,4.4615,4.4615,4.4615,4.4615,4.4615,4.4615,4.4615,4.4615,4.4615,4.4615,4.4615,4.4615,4.4615,4.4615,5.6524,5.8826,6.1379,6.3228,6.5363,6.7049,6.7061,6.7164,6.7215,6.7183,6.7151,6.6656,6.5227,6.5575,6.5816,6.5111,6.5652,6.7029,6.9662,6.8375,6.7867,6.9722,6.7657,6.634,6.6879,6.5772,6.5293,6.5922,6.5383,6.5024,6.4934,6.4395,6.5299,6.8063,6.758,6.8536,7.1199,7.0432,6.891,6.6745,6.4464,6.3417,6.3343,6.1368,6.0148,5.9317,5.7388,5.5189,5.2847,5.1394,4.9769,4.8339,4.858,4.8718,4.8851,4.9931,5.032,5.0589,5.2661,5.237,5.1089,5.1055,5.0109,4.899,4.8956,4.8954,4.9018,4.9018,4.9018,4.9018,4.9018,4.9018,4.9018,4.9018,4.9018,4.9018,4.9052,4.9052,4.9052,4.9052,4.9018,4.9018,4.9018,4.9018,4.9018,4.9018,4.9018,4.9018,4.9018,4.8984,4.868,4.7906,4.7838,4.7229,4.5838,4.5703,4.5399,4.4716,4.4615,4.4615,4.4615,4.4615,4.4615,4.4615,4.4615,4.4615,4.4615,4.4615,4.4615,4.4615,4.4615,4.4615,5.441,5.5806,5.7584,5.9536,6.2133,6.4392,6.5402,6.647,6.7087,6.6543,6.5595,6.4527,6.3192,6.3434,6.4111,6.4904,6.64,6.8226,7.038,7.0231,6.9752,6.9303,6.8196,6.7148,6.634,6.5503,6.5114,6.5263,6.5114,6.4814,6.4276,6.4575,6.5574,6.7381,6.7752,6.878,7.0466,6.8605,6.7117,6.5967,6.3392,6.2173,6.2098,6.0152,5.8581,5.7313,5.5493,5.3721,5.1989,4.987,4.8695,4.8251,4.7822,4.7679,4.7807,4.8841,4.9215,4.9416,5.0741,5.057,4.9689,4.9206,4.888,4.863,4.8099,4.845,4.9018,4.9018,4.9018,4.9018,4.9018,4.9018,4.9018,4.9018,4.9018,4.9154,4.9695,4.983,4.983,4.983,4.939,4.9018,4.9018,4.9018,4.9018,4.9018,4.9018,4.9018,4.9018,4.8545,4.7902,4.7158,4.709,4.6718,4.5771,4.5703,4.5635,4.5432,4.4919,4.4615,4.4615,4.4615,4.4615,4.4615,4.4615,4.4615,4.4615,4.4615,4.4615,4.4615,4.4615,4.4615,5.3723,5.4544,5.5845,5.7234,5.9625,6.1739,6.2134,6.3636,6.4626,6.3318,6.2439,6.1577,6.0591,6.0929,6.1852,6.3468,6.5144,6.7208,7.0081,6.9991,6.9662,6.9812,6.8734,6.7687,6.6939,6.6011,6.5473,6.5473,6.4904,6.4545,6.4455,6.4858,6.5849,6.7572,6.8304,6.9007,6.9722,6.7793,6.5986,6.4413,6.2543,6.1518,6.1146,5.9185,5.7988,5.732,5.4662,5.2728,5.1308,4.9186,4.8117,4.7818,4.7459,4.7309,4.7396,4.7904,4.8157,4.821,4.88,4.8568,4.8012,4.8211,4.8418,4.8526,4.8198,4.8524,4.9086,4.939,4.9255,4.9086,4.939,4.9255,4.9154,4.983,4.9379,4.9152,5.031,5.0219,5.0056,5.0511,5.027,4.9965,4.9965,4.9695,4.9492,4.9492,4.9221,4.9018,4.9018,4.8646,4.8003,4.6921,4.709,4.6853,4.5805,4.5703,4.5703,4.5703,4.4993,4.4615,4.4615,4.4615,4.4615,4.4615,4.4615,4.4615,4.4615,4.4615,4.4615,4.4615,4.4615,4.4615,5.3585,5.4029,5.5105,5.5737,5.7575,5.909,5.8484,5.9975,6.1002,5.9185,5.8847,5.874,5.7992,5.853,5.9787,6.1882,6.3288,6.5533,6.9512,6.9004,6.8854,7.059,6.9183,6.8076,6.7986,6.6849,6.6131,6.6131,6.4904,6.4366,6.4874,6.4823,6.5825,6.7988,6.8814,6.9144,6.9113,6.759,6.5554,6.3067,6.208,6.1304,6.0594,5.8406,5.7678,5.7863,5.4384,5.2082,5.0537,4.8947,4.7908,4.7309,4.7309,4.7309,4.7309,4.7309,4.7309,4.7309,4.7309,4.692,4.6587,4.7589,4.8059,4.8217,4.8357,4.8629,4.9099,4.9866,4.9695,4.9458,5.0067,4.9763,4.9596,5.0718,4.9859,4.9158,5.0626,5.0255,4.9981,5.1091,5.1188,5.1021,5.1185,5.0676,5.0202,5.0101,4.956,4.912,4.9018,4.9018,4.8443,4.6955,4.7462,4.7331,4.5974,4.5838,4.5906,4.6007,4.5196,4.4818,4.4886,4.4716,4.4649,4.475,4.4536,4.4468,4.4615,4.4468,4.4468,4.4615,4.4716,4.4716,5.2112,5.2616,5.3405,5.4054,5.5523,5.6887,5.7339,5.7957,5.8232,5.7305,5.7723,5.7932,5.6735,5.7932,5.9937,6.248,6.4006,6.6221,7.0171,7.0111,6.9752,7.0111,6.9363,6.8585,6.8016,6.7268,6.6819,6.6819,6.5592,6.4665,6.4216,6.367,6.4685,6.7304,6.8493,6.9096,6.9113,6.759,6.6057,6.4506,6.223,6.105,6.072,5.7619,5.6013,5.5534,5.3712,5.1628,4.9478,4.8625,4.7908,4.7309,4.7309,4.7309,4.7309,4.7309,4.7309,4.7309,4.7309,4.7219,4.6963,4.612,4.5979,4.629,4.6525,4.7626,4.8962,4.9843,5.0439,5.0879,5.098,5.0881,5.0686,5.009,4.975,4.9503,4.9613,4.9485,4.9888,5.1732,5.0928,5.0224,5.1088,5.1116,5.0811,5.0168,4.9965,4.9695,4.9086,4.9018,4.8443,4.6955,4.7462,4.7564,4.6684,4.6616,4.6853,4.7466,4.6244,4.5771,4.638,4.5258,4.4886,4.55,4.419,4.3889,4.4615,4.3889,4.3919,4.4615,4.5229,4.5162,5.1756,5.1768,5.2167,5.2799,5.4179,5.5177,5.4529,5.5464,5.5898,5.398,5.4198,5.4681,5.4557,5.583,5.7955,6.1022,6.263,6.4874,6.8824,6.8824,6.8675,6.9393,6.8884,6.8196,6.7537,6.7178,6.6999,6.6999,6.5772,6.4874,6.4545,6.4953,6.5996,6.7605,6.8614,6.891,6.847,6.6685,6.5005,6.3367,6.109,6.0139,6.0238,5.7498,5.6449,5.6691,5.4306,5.2262,5.051,4.8952,4.8087,4.7788,4.7429,4.7309,4.7309,4.7309,4.7309,4.7309,4.7309,4.707,4.6681,4.6052,4.6001,4.6276,4.6504,4.7548,4.8959,5.0126,5.0825,5.1286,5.1691,5.1094,5.0492,5.0773,5.0438,4.9913,4.9205,4.9462,5.015,5.111,5.0631,5.0366,5.1389,5.1227,5.1028,5.122,5.0574,4.9774,4.8956,4.8491,4.7857,4.6755,4.6958,4.6834,4.596,4.5566,4.5856,4.7093,4.5388,4.4879,4.6181,4.4754,4.4289,4.5094,4.3939,4.3502,4.3919,4.3408,4.3354,4.3789,4.4481,4.4646,5.1798,5.1448,5.1548,5.2,5.31,5.3596,5.1877,5.2986,5.3636,5.0923,5.0958,5.1822,5.2837,5.3938,5.5874,5.9508,6.1104,6.3258,6.7208,6.7328,6.7418,6.8645,6.8315,6.7717,6.7059,6.6999,6.6939,6.6789,6.5562,6.4755,6.4605,6.6268,6.7447,6.7882,6.839,6.8392,6.7752,6.5556,6.3548,6.1567,5.9937,5.9345,5.9727,5.7496,5.7098,5.7953,5.5076,5.2944,5.1379,4.9326,4.8416,4.8207,4.7549,4.7309,4.7309,4.7309,4.7309,4.7309,4.7309,4.698,4.6501,4.6339,4.6353,4.6441,4.6756,4.7776,4.911,5.0434,5.1091,5.1496,5.2068,5.1053,5.0079,5.1043,5.0474,4.9536,4.8963,4.9296,4.9852,5.032,5.0204,5.0474,5.1704,5.1427,5.1282,5.1965,5.1082,4.9882,4.8629,4.7935,4.7243,4.6254,4.6191,4.5927,4.5149,4.4569,4.4875,4.6323,4.4557,4.4107,4.5547,4.4075,4.355,4.4236,4.3399,4.3061,4.3246,4.304,4.3029,4.3227,4.393,4.4152,5.1942,5.2026,5.2051,5.2101,5.2236,5.2043,5.0791,5.0979,5.1001,4.9711,5.017,5.1237,5.2751,5.3564,5.5322,5.9419,6.0715,6.257,6.652,6.7029,6.7268,6.7986,6.8016,6.7717,6.7059,6.6999,6.6759,6.6131,6.4844,6.3857,6.3288,6.5768,6.7234,6.7272,6.726,6.7242,6.7176,6.4507,6.2218,6.0279,5.9495,5.9345,5.9727,5.7496,5.6669,5.6863,5.5217,5.2915,5.0319,4.9509,4.888,4.8207,4.7549,4.7309,4.7309,4.7309,4.7309,4.7309,4.7309,4.7279,4.713,4.6531,4.5885,4.5604,4.6441,4.7952,4.9521,5.052,5.1298,5.1864,5.1897,5.1136,5.0122,4.9264,4.8335,4.7807,4.8636,4.8157,4.8157,5.0009,4.9615,4.9575,5.1561,5.1855,5.1678,5.1325,5.1217,5.0253,4.8002,4.7638,4.6936,4.5133,4.5144,4.5184,4.5115,4.5016,4.5341,4.6185,4.5408,4.5026,4.5264,4.3811,4.3105,4.3267,4.2341,4.2239,4.3007,4.2827,4.3137,4.3928,4.4665,4.4633,5.195,5.2352,5.2603,5.2603,5.2352,5.1724,5.0268,4.9799,4.9245,4.782,4.7781,4.8532,5.0016,5.1183,5.3096,5.6446,5.7932,5.9937,6.3528,6.3707,6.4276,6.652,6.6071,6.5951,6.6909,6.6281,6.5533,6.4844,6.4306,6.3737,6.3109,6.4923,6.5564,6.4717,6.5472,6.5529,6.4654,6.2741,6.1233,6.0078,5.8624,5.8201,5.864,5.6524,5.5597,5.5637,5.421,5.2555,5.0734,5.0122,4.9464,4.885,4.8147,4.7668,4.7309,4.7309,4.7309,4.7309,4.7309,4.7309,4.7249,4.701,4.6741,4.6496,4.6452,4.7361,4.86,4.936,5.0288,5.1005,5.1005,5.0242,4.9206,4.8157,4.7624,4.7409,4.7807,4.7581,4.7538,4.8366,4.8198,4.8584,5.0627,5.1005,5.1108,5.1551,5.1224,5.0175,4.8009,4.6998,4.5939,4.4621,4.4743,4.4674,4.4079,4.4004,4.4427,4.5306,4.4167,4.3977,4.508,4.364,4.3068,4.3644,4.2754,4.2474,4.2824,4.2609,4.2718,4.3057,4.3697,4.385,5.1765,5.2503,5.2929,5.2929,5.2528,5.1674,4.9967,4.9163,4.8309,4.6652,4.6301,4.6755,4.8268,4.9734,5.1543,5.4211,5.6166,5.8351,6.1104,6.1433,6.2271,6.4575,6.4006,6.4066,6.5682,6.5144,6.4515,6.4036,6.3827,6.3528,6.3109,6.4015,6.4125,6.3353,6.3909,6.3771,6.2788,6.1215,6.0055,5.9195,5.7794,5.7213,5.7315,5.5674,5.4807,5.462,5.3396,5.226,5.1169,5.0465,4.9853,4.9239,4.8536,4.7878,4.7309,4.7309,4.7309,4.7309,4.7309,4.7309,4.7309,4.7309,4.7309,4.7219,4.6741,4.7289,4.8181,4.8645,4.9336,4.9852,4.9567,4.8922,4.8168,4.7452,4.7309,4.7309,4.7309,4.7309,4.7309,4.7309,4.7309,4.7849,4.9615,4.9931,5.0217,5.101,5.07,4.9655,4.7706,4.6632,4.5554,4.4398,4.4504,4.4295,4.3399,4.329,4.3576,4.4282,4.3309,4.3176,4.4266,4.3215,4.2808,4.32,4.2808,4.2603,4.2603,4.2658,4.2641,4.2671,4.312,4.329,5.1369,5.2503,5.2929,5.2929,5.2528,5.1674,4.9967,4.9163,4.8309,4.6652,4.6301,4.6755,4.8268,4.9734,5.1403,5.3525,5.6255,5.859,5.9907,6.1253,6.2091,6.2121,6.2121,6.2391,6.3049,6.3647,6.4006,6.4006,6.3438,6.3079,6.3079,6.3137,6.3429,6.4088,6.2891,6.2208,6.2229,6.0175,5.8441,5.7146,5.7094,5.6728,5.6015,5.524,5.4574,5.3951,5.3224,5.226,5.1169,5.0465,4.9853,4.9239,4.8536,4.7878,4.7309,4.7309,4.7309,4.7309,4.7309,4.7309,4.7309,4.7309,4.7309,4.7309,4.7309,4.7988,4.8769,4.88,4.8841,4.8594,4.7581,4.7309,4.7309,4.7309,4.7309,4.7309,4.7309,4.7309,4.7309,4.7309,4.7309,4.7593,4.8636,4.8841,4.8956,4.9279,4.9303,4.8707,4.6967,4.6717,4.6076,4.4458,4.4317,4.4047,4.3349,4.329,4.329,4.3329,4.329,4.303,4.2449,4.2381,4.2081,4.1422,4.2051,4.2381,4.2381,4.3,4.329,4.329,4.329,4.329,4.7755,4.9586,5.1122,5.0745,5.0519,5.0042,4.8736,4.8309,4.7832,4.6577,4.6301,4.6421,4.6934,4.8996,5.1211,5.2827,5.5546,5.7872,5.9219,6.0176,6.1074,6.2002,6.3288,6.3827,6.3139,6.3647,6.3827,6.3408,6.3199,6.3079,6.3079,6.2211,6.1838,6.2067,6.1673,6.0795,5.9403,5.8744,5.7782,5.6466,5.6466,5.5912,5.477,5.4026,5.3378,5.2712,5.2045,5.1496,5.1169,5.0465,4.9853,4.9239,4.8536,4.7878,4.7309,4.7309,4.7309,4.7309,4.7309,4.7309,4.7309,4.7309,4.7309,4.7309,4.7309,4.7538,4.7764,4.7764,4.7764,4.7679,4.7366,4.7309,4.7309,4.7309,4.7309,4.7309,4.7309,4.7309,4.7309,4.7309,4.7309,4.7593,4.8636,4.88,4.8829,4.8974,4.8983,4.8519,4.7255,4.6694,4.6207,4.5693,4.4855,4.4047,4.3349,4.329,4.329,4.329,4.329,4.32,4.303,4.303,4.294,4.2692,4.291,4.303,4.303,4.32,4.329,4.329,4.329,4.329,4.6633,4.859,5.0017,4.9665,4.9439,4.9038,4.8109,4.7757,4.7355,4.6502,4.615,4.6229,4.7002,4.895,5.0933,5.2546,5.5046,5.7214,5.856,5.9308,6.0116,6.1224,6.266,6.3228,6.2421,6.3139,6.3498,6.3109,6.3079,6.2959,6.272,6.1942,6.1253,6.0745,6.0236,5.9398,5.8141,5.7872,5.7214,5.6218,5.5927,5.5239,5.4192,5.3234,5.2576,5.2157,5.1498,5.1229,0.0,5.0465,4.9853,4.9239,4.8536,4.7878,4.7309,4.7309,4.7309,4.7309,4.7309,4.7309,4.7309,4.7309,4.7309,4.7309,4.7309,4.7309,4.7309,4.7309,4.7309,4.7309,4.7309,4.7309,4.7309,4.7309,4.7309,4.7309,4.7309,4.7309,4.7309,4.7309,4.7309,4.7495,4.8157,4.821,4.821,4.821,4.821,4.803,4.7366,4.695,4.6591,4.6309,4.5334,4.4407,4.3708,4.3439,4.329,4.329,4.329,4.329,4.329,4.329,4.3409,4.3648,4.3409,4.3409,4.3678,4.3409,4.329,4.329,4.3559,4.3678,0.0,4.8887,4.9314,4.9314,4.8937,4.846,4.7908,4.7431,0.0,4.6471,4.6002,4.6246,4.82,4.9414,5.0701,5.2689,5.4753,5.6555,5.7872,5.874,5.9488,6.0146,6.0835,6.1224,6.1194,6.2331,6.3079,6.3079,6.3019,6.275,6.2121,6.2002,6.1373,6.0116,5.877,5.8052,5.8052,5.7363,5.6705,5.6107,5.5448,5.479,5.4102,5.2785,5.2187,5.2097,5.1498,5.1229,5.1122,5.0405,4.9823,4.9239,4.8506,4.7848,4.7309,4.7309,4.7309,4.7309,4.7309,4.7309,4.7309,4.7309,4.7309,4.7309,4.7309,4.7309,4.7309,4.7309,4.7309,4.7309,4.7309,4.7309,4.7309,4.7309,4.7309,4.7309,4.7309,4.7309,4.7309,4.7309,4.7309,4.7309,4.7309,4.7309,4.7309,4.7309,4.7309,4.7309,4.7309,4.7309,4.707,4.6471,4.5783,4.5125,4.4496,4.3738,4.329,4.329,4.3349,4.3349,4.3349,4.3409,4.3738,4.4377,4.3738,4.3738,4.4377,4.3738,4.3439,4.3439,4.4107,4.4377,4.4858,0.0,4.6451,4.6451,4.6677,4.6853,0.0,4.6602,4.6626,4.714,4.7195,4.7657,4.9114,5.0589,5.1847,5.2876,5.437,5.5867,5.7154,5.9249,6.0894,6.1553,6.2211,6.2421,6.1912,6.26,6.3079,6.3079,6.26,6.2271,6.2121,6.1104,6.0416,6.0086,5.8291,5.7334,5.7334,5.6705,5.6077,5.5418,5.476,5.4072,5.3384,5.2576,5.1917,5.1439,5.1289,5.1229,5.1139,4.9972,4.9449,4.9209,4.7997,4.7429,4.7309,4.7309,4.7309,4.7309,4.7309,4.7309,4.7309,4.7309,4.7309,4.7309,4.7309,4.7309,4.7309,4.7309,4.7309,4.7309,4.7309,4.7309,4.7309,4.7309,4.7309,4.7309,4.7309,4.7309,4.7309,4.7309,4.7309,4.7309,4.7309,4.7309,4.7309,4.7309,4.7309,4.7309,4.7309,4.7309,4.7249,4.71,4.6471,4.6022,4.5831,4.4276,4.329,4.329,4.3768,4.4077,4.4077,4.4556,4.4915,4.5065,4.4915,4.4915,4.5065,4.4915,4.4825,4.4825,4.4975,4.5065,4.3537,4.4669,4.5497,4.5497,4.5723,4.5924,4.5924,4.6231,4.6598,4.7035,4.7473,4.8273,5.0001,5.0981,5.2018,5.3304,5.4751,5.6196,5.7782,5.9817,6.1373,6.2032,6.2421,6.26,6.254,6.2869,6.2959,6.266,6.2301,6.1822,6.1224,6.0206,5.9488,5.9189,5.7543,5.6795,5.7094,5.6196,5.5388,5.473,5.4072,5.3533,5.3144,5.2187,5.1708,5.1618,5.0973,5.0734,5.0614,4.9344,4.885,4.876,4.7698,4.7309,4.7309,4.7309,4.7309,4.7309,4.7309,4.7309,4.7309,4.7309,4.7309,4.7309,4.7309,4.7309,4.7309,4.7309,4.7309,4.7309,4.7309,4.7309,4.7309,4.7309,4.7309,4.7309,4.7309,4.7309,4.7309,4.7309,4.7309,4.7309,4.7309,4.7309,4.7309,4.7309,4.7309,4.7309,4.7309,4.7309,4.7309,4.7309,4.6711,4.6279,4.6279,4.5035,4.4227,4.4227,4.4556,4.4766,4.4766,4.5095,4.5304,4.5304,4.5603,4.5603,4.5304,4.5304,4.5304,4.5304,4.5633,4.5753,4.3087,4.4267,4.5447,4.5271,4.5296,4.5347,4.5347,4.6,4.6631,4.6853,4.7621,4.8878,5.0947,5.1454,5.215,5.4022,5.5538,5.7154,5.9129,6.0475,6.1463,6.2032,6.2181,6.2421,6.2869,6.2929,6.269,6.2121,6.1822,6.1134,5.9997,5.9219,5.853,5.7992,5.6795,5.6436,5.6944,5.5688,5.476,5.4192,5.3414,5.3025,5.2995,5.1768,5.1528,5.1977,5.0734,5.0196,5.0076,4.8835,4.8297,4.8207,4.7549,4.7309,4.7309,4.7309,4.7309,4.7309,4.7309,4.7309,4.7309,4.7309,4.7309,4.7309,4.7309,4.7309,4.7309,4.7309,4.7309,4.7309,4.7309,4.7309,4.7309,4.7309,4.7309,4.7309,4.7309,4.7309,4.7309,4.7309,4.7309,4.7309,4.7309,4.7309,4.7309,4.7309,4.7309,4.7309,4.7309,4.7309,4.7309,4.7309,4.68,4.6429,4.6429,4.5933,4.5603,4.5603,4.5514,4.5484,4.5603,4.5603,4.5603,4.5603,4.6172,4.6172,4.5603,4.5603,4.5603,4.5603,4.6202,4.6429,4.3539,4.4568,4.5271,4.4292,4.4418,4.4744,4.4744,4.5407,4.6324,4.7456,4.8869,5.0464,5.2487,5.3327,5.4002,5.4889,5.6615,5.853,6.0535,6.1463,6.1972,6.2091,6.26,6.275,6.2301,6.2241,6.2211,6.2121,6.0535,5.9488,5.9249,5.8082,5.7363,5.7244,5.6555,5.6226,5.6368,5.5029,5.4311,5.4192,5.2965,5.2336,5.2336,5.1558,5.1259,5.1319,5.0524,5.0196,5.0076,4.8835,4.8297,4.8207,4.7549,4.7309,4.7309,4.7309,4.7309,4.7309,4.7309,4.7309,4.7309,4.7309,4.7309,4.7309,4.7309,4.7309,4.7309,4.7309,4.7309,4.7309,4.7309,4.7309,4.7309,4.7309,4.7309,4.7309,4.7309,4.7309,4.7309,4.7309,4.7309,4.7309,4.7309,4.7309,4.7309,4.7309,4.7309,4.7309,4.7309,4.7309,4.7309,4.7309,4.7219,4.716,4.716,4.707,4.701,4.701,4.6471,4.6411,4.698,4.701,4.701,4.701,4.71,4.71,4.701,4.701,4.701,4.701,4.71,4.716,4.2836,4.3714,4.454,4.4442,4.5335,4.6202,4.6336,4.708,4.7846,4.8511,4.9742,5.1109,5.242,5.3803,5.5418,5.7483,5.859,5.9638,6.0924,6.1373,6.1702,6.2061,6.2361,6.257,6.263,6.2301,6.1792,6.1074,5.9817,5.877,5.8052,5.7124,5.6436,5.6077,5.5448,5.494,5.4551,5.3593,5.3294,5.3653,5.2665,5.1828,5.1139,5.0794,5.0481,5.0122,4.9464,4.9194,4.9105,4.8147,4.7758,4.7728,4.7429,4.7309,4.7309,4.7309,4.7309,4.7309,4.7309,4.7309,4.7309,4.7309,4.7309,4.7309,4.7309,4.7309,4.7309,4.7309,4.7309,4.7309,4.7309,4.7309,4.7309,4.7309,4.7309,4.7309,4.7309,4.7309,4.7309,4.7309,4.7309,4.7309,4.7309,4.7309,4.7309,4.7309,4.7309,4.7309,4.7309,4.7309,4.7309,4.7309,4.7309,4.7309,4.7309,4.7309,4.7309,4.7309,4.701,4.698,4.7309,4.7309,4.7309,4.7309,4.7309,4.7309,4.7309,4.7309,4.7309,4.7309,4.7309,4.7309,4.2253,4.3062,4.3953,4.4671,4.5836,4.7094,4.7802,4.8613,4.9297,4.9585,5.0728,5.1887,5.2546,5.4431,5.6795,5.9638,6.0356,6.0805,6.1463,6.1583,6.1762,6.2271,6.2331,6.245,6.281,6.2241,6.1313,5.9967,5.9099,5.8112,5.6944,5.6286,5.5718,5.5209,5.4551,5.3952,5.3443,5.2606,5.2366,5.2725,5.2217,5.1289,5.0032,5.0285,5.0032,4.9269,4.8745,4.8446,4.8237,4.7578,4.7309,4.7309,4.7309,4.7309,4.7309,4.7309,4.7309,4.7309,4.7309,4.7309,4.7309,4.7309,4.7309,4.7309,4.7309,4.7309,4.7309,4.7309,4.7309,4.7309,4.7309,4.7309,4.7309,4.7309,4.7429,4.7489,4.7339,4.7429,4.7489,4.7339,4.7062,4.6873,4.7022,4.6933,4.6873,4.7022,4.7195,4.7309,4.7309,4.7309,4.7309,4.7309,4.7309,4.7309,4.7309,4.7309,4.7309,4.7309,4.7309,4.7309,4.7309,4.7309,4.7309,4.7309,4.7309,4.7309,4.7309,4.7309,4.7309,4.7309,4.6975,4.7019,4.2426,4.3338,4.3852,4.4174,4.4704,4.5608,4.7633,4.8663,4.9556,5.071,5.2082,5.3264,5.3952,5.6166,5.8381,5.9847,6.1134,6.2181,6.2839,6.2929,6.2959,6.2989,6.3019,6.278,6.2211,6.1583,6.0625,5.9279,5.7962,5.6944,5.6286,5.5628,5.5239,5.5179,5.4551,5.4192,5.4132,5.2845,5.1917,5.1349,5.1319,5.0601,4.9419,5.0601,5.0451,4.9299,4.9269,4.888,4.8237,4.7578,4.7309,4.7309,4.7309,4.7309,4.7309,4.7309,4.7309,4.7309,4.7309,4.7309,4.7309,4.7309,4.7309,4.7309,4.7309,4.7309,4.7309,4.7309,4.7309,4.7309,4.7309,4.7309,4.7309,4.7309,4.7788,4.8057,4.7429,4.7788,4.8027,4.7429,4.6344,4.5681,4.6166,4.5883,4.5681,4.6195,4.6889,4.7309,4.7309,4.7309,4.7309,4.7309,4.7309,4.7309,4.7309,4.7309,4.7309,4.7309,4.7309,4.7309,4.7309,4.7309,4.7309,4.7309,4.7309,4.7309,4.7309,4.7309,4.7309,4.7266,4.6121,4.6166,4.0241,4.1342,4.246,4.3468,4.4135,4.5294,4.8217,4.9997,5.1286,5.225,5.3506,5.464,5.5299,5.6555,5.8052,5.9787,6.1224,6.2331,6.2989,6.3079,6.2929,6.251,6.248,6.2211,6.1553,6.0864,5.9907,5.859,5.7633,5.6645,5.5628,5.5329,5.482,5.3982,5.3713,5.3174,5.2366,5.1439,5.0794,5.0554,5.102,5.0331,4.8686,4.9583,4.9284,4.8057,4.8476,4.8297,4.7698,4.7848,4.7668,4.7309,4.7309,4.7309,4.7309,4.7309,4.7309,4.7309,4.7309,4.7309,4.7309,4.7309,4.7309,4.7309,4.7309,4.7309,4.7309,4.7309,4.7309,4.7309,4.7309,4.7309,4.7399,4.7818,4.8117,4.8075,4.7398,4.7449,4.7277,4.613,4.5551,4.5272,4.5448,4.5356,4.556,4.6651,4.6674,4.7078,4.8357,4.7818,4.7459,4.7878,4.7549,4.7309,4.7309,4.6594,4.6462,4.7266,4.7309,4.7309,4.7309,4.7309,4.7309,4.7309,4.7309,4.7309,4.7309,4.6506,4.6121,4.6121,4.484,4.4489,3.8643,3.9873,4.1322,4.2524,4.3598,4.5122,4.8276,5.0493,5.2247,5.3563,5.4551,5.5388,5.6098,5.6675,5.7603,5.9219,6.0775,6.1942,6.2391,6.245,6.2301,6.1852,6.1792,6.1523,6.0864,6.0356,5.9458,5.7902,5.7363,5.6526,5.5269,5.5179,5.467,5.3533,5.3294,5.2665,5.1528,5.0614,5.0076,4.9942,5.0391,4.9793,4.8327,4.9164,4.8865,4.7638,4.8087,4.8027,4.7638,4.7878,4.7698,4.7309,4.7309,4.7309,4.7309,4.7309,4.7309,4.7309,4.7309,4.7309,4.7309,4.7309,4.7309,4.7309,4.7309,4.7309,4.7309,4.7309,4.7309,4.7252,4.7037,4.7272,4.7641,4.7629,4.7954,4.7942,4.6776,4.6687,4.653,4.5327,4.4752,4.4556,4.4746,4.4637,4.4857,4.6042,4.6386,4.7033,4.8453,4.8224,4.8087,4.8536,4.7793,4.7348,4.7595,4.6227,4.5683,4.6624,4.6505,4.6668,4.7266,4.7309,4.7309,4.7309,4.7309,4.7106,4.6682,4.5824,4.5207,4.4794,4.3504,4.3122,3.7997,3.9365,4.0664,4.14,4.2954,4.5011,4.7683,4.9769,5.1977,5.467,5.5209,5.5388,5.6098,5.6675,5.7304,5.7992,5.9787,6.1104,6.1104,6.1104,6.1104,6.1104,6.1104,6.0835,6.0146,6.0057,5.9249,5.7244,5.7094,5.6526,5.5269,5.5179,5.488,5.4221,5.3533,5.2845,5.2187,5.0853,4.9912,4.9299,4.9299,4.897,4.8327,4.9568,4.9523,4.8267,4.8297,4.8297,4.8237,4.7578,4.7309,4.7309,4.7309,4.7309,4.7266,4.7266,4.7266,4.7266,4.7266,4.7266,4.7266,4.7309,4.7309,4.7309,4.7309,4.7309,4.7309,4.7309,4.7309,4.7124,4.6425,4.7268,4.7956,4.6553,4.7223,4.7604,4.5536,4.5646,4.5866,4.5189,4.4074,4.3362,4.3993,4.3624,4.344,4.4045,4.5885,4.7195,4.7242,4.842,4.9284,4.9254,4.8021,4.748,4.8194,4.632,4.5191,4.5384,4.4704,4.5185,4.7179,4.7266,4.7266,4.7266,4.7266,4.6638,4.5389,4.5343,4.472,4.3456,4.2181,4.2279,3.6398,3.7207,3.8237,3.9828,4.2043,4.4248,4.5937,4.8846,5.2217,5.5807,5.5807,5.5388,5.6098,5.5957,5.5987,5.6645,5.8022,5.9338,6.0266,6.0386,6.0386,6.0386,6.0386,6.0116,5.9458,5.8979,5.8261,5.7184,5.6705,5.6077,5.5239,5.476,5.4192,5.3503,5.2845,5.1947,5.0794,4.9972,4.9464,4.9299,4.8805,4.8237,4.7638,4.8476,4.8386,4.7608,4.8087,4.8027,4.7578,4.7399,4.7309,4.7309,4.7309,4.6726,4.5958,4.5958,4.5389,4.4794,4.5644,4.5958,4.6121,4.7019,4.7309,4.7309,4.7309,4.7309,4.7309,4.7309,4.7309,4.7372,4.7614,4.759,4.7304,4.6364,4.6433,4.6417,4.5281,4.5181,4.4997,4.3851,4.331,4.3114,4.3267,4.3165,4.3769,4.589,4.6321,4.6979,4.8479,4.8617,4.8377,4.7864,4.7431,4.6919,4.6118,4.4643,4.4165,4.5143,4.4149,4.4288,4.5927,4.5115,4.507,4.5958,4.507,4.4442,4.4069,4.317,4.2544,4.2133,4.0844,4.0465,3.5557,3.6617,3.8101,4.0236,4.1984,4.3703,4.607,4.9582,5.3234,5.6137,5.5897,5.5299,5.5718,5.5448,5.5329,5.5718,5.6885,5.7992,5.877,5.9129,5.9308,5.9308,5.9548,5.9428,5.877,5.8351,5.7723,5.6795,5.6137,5.5508,5.485,5.4162,5.3503,5.2815,5.2157,5.1319,5.0196,4.9344,4.891,4.8865,4.8207,4.7698,4.7339,4.7997,4.8057,4.7728,4.8117,4.7908,4.7309,4.7309,4.7309,4.7266,4.6726,4.6077,4.5343,4.484,4.4163,4.3598,4.4396,4.4978,4.5553,4.6299,4.6887,4.7309,4.7309,4.7309,4.7309,4.7309,4.7309,4.7271,4.7066,4.669,4.6349,4.6145,4.5868,4.539,4.4403,4.4209,4.3962,4.3129,4.2986,4.2986,4.2986,4.2986,4.3547,4.5209,4.5576,4.6734,4.9694,4.8721,4.7828,4.7971,4.6961,4.6106,4.5536,4.4017,4.3468,4.4303,4.3388,4.3305,4.449,4.4069,4.4085,4.4656,4.3882,4.3266,4.2738,4.1985,4.1369,4.0844,4.026,3.9898,3.5201,3.6932,3.9145,4.1591,4.249,4.3744,4.7486,5.1297,5.4371,5.5628,5.5478,5.5089,5.5089,5.5059,5.5029,5.5089,5.6077,5.6885,5.7004,5.7543,5.7962,5.8022,5.856,5.868,5.8082,5.7992,5.7423,5.6166,5.5478,5.482,5.4162,5.3473,5.2785,5.2127,5.1468,5.0734,5.0016,4.8895,4.8267,4.8177,4.7578,4.7309,4.7339,4.7908,4.8207,4.8207,4.8207,4.7848,4.7309,4.7309,4.7309,4.7149,4.5913,4.5343,4.507,4.3787,4.3266,4.317,4.3313,4.4069,4.507,4.5298,4.6166,4.7149,4.7266,4.7309,4.7309,4.7309,4.7309,4.6978,4.5629,4.52,4.5266,4.5875,4.5364,4.4481,4.324,4.2986,4.2986,4.2986,4.2986,4.2986,4.2986,4.2986,4.3042,4.3129,4.4209,4.6422,5.0335,4.8539,4.7402,4.8688,4.6526,4.5236,4.5762,4.4087,4.3059,4.3206,4.2611,4.2554,4.3075,4.3637,4.3801,4.3396,4.3245,4.2593,4.1419,4.1419,4.087,3.9772,4.0275,4.0275,3.4845,3.5659,3.6865,4.0117,4.3199,4.6228,4.9123,5.1239,5.2845,5.3653,5.4132,5.4431,5.4431,5.3982,5.3803,5.4341,5.464,5.5179,5.6226,5.6496,5.6765,5.7244,5.7453,5.7483,5.7334,5.6885,5.6256,5.5478,5.479,5.4132,5.3443,5.2785,5.2127,5.1439,5.0734,4.9883,4.8716,4.8416,4.8027,4.7519,4.7369,4.7309,4.7309,4.7459,4.7519,4.7519,4.7519,4.7429,4.7309,4.7309,4.7309,4.7149,4.5913,4.4794,4.374,4.2496,4.1369,4.0642,4.164,4.2181,4.2738,4.4748,4.5598,4.6003,4.7019,4.7309,4.7309,4.7309,4.7309,4.7228,4.685,4.5937,4.5126,4.5233,4.4294,4.3351,4.3073,4.2986,4.2986,4.2986,4.2986,4.2986,4.2986,4.2986,4.3351,4.4427,4.4833,4.5714,4.7707,4.6474,4.5555,4.5872,4.5342,4.4645,4.3727,4.3275,4.3028,4.3051,4.2902,4.27,4.2417,4.1744,4.1723,4.2628,4.1253,4.0364,4.0134,4.0134,4.0208,4.035,4.045,4.0676,3.3939,3.539,3.7426,4.0517,4.3493,4.6119,4.7859,4.9317,5.0489,5.1195,5.2606,5.3533,5.2905,5.2995,5.3084,5.2815,5.3294,5.3952,5.469,5.5299,5.5837,5.6137,5.6735,5.6974,5.6675,5.6346,5.5777,5.479,5.4102,5.3414,5.2755,5.1798,5.1063,5.0704,4.9823,4.8985,4.8297,4.7967,4.7638,4.7309,4.7309,4.7309,4.7309,4.7309,4.7309,4.7309,4.7309,4.7309,4.7309,4.7309,4.6931,4.6255,4.4978,4.3693,4.2447,4.1169,4.0262,3.98,4.0465,4.1069,4.1936,4.3882,4.4886,4.5644,4.6931,4.7309,4.7309,4.7309,4.7309,4.7051,4.6101,4.547,4.4847,4.3909,4.3314,4.2986,4.2986,4.2986,4.2986,4.2986,4.2986,4.2986,4.2986,4.2986,4.3436,4.4779,4.4427,4.4779,4.6837,4.5289,4.4264,4.4941,4.4427,4.3742,4.3073,4.2986,4.2986,4.2986,4.2986,4.2836,4.2615,4.1756,4.1473,4.1852,4.0969,4.0475,4.0475,4.0224,4.0375,4.0849,4.0849,4.1025,3.3021,3.5636,3.8814,4.12,4.3416,4.5156,4.5635,4.6861,4.8086,4.8798,5.0896,5.2187,5.1079,5.1768,5.2217,5.1349,5.2127,5.2965,5.3294,5.4311,5.5059,5.5179,5.6107,5.6555,5.6098,5.6068,5.5448,5.4132,5.3503,5.2785,5.1917,5.0794,5.0076,4.9867,4.8835,4.8237,4.8117,4.7578,4.7309,4.7309,4.7309,4.7309,4.7309,4.7309,4.7309,4.7309,4.7309,4.7309,4.7309,4.7309,4.655,4.5252,4.4022,4.2738,4.1468,4.016,3.9697,3.9697,3.9697,4.0415,4.1492,4.3026,4.421,4.5343,4.6844,4.7309,4.7339,4.7429,4.7489,4.7037,4.5105,4.493,4.4776,4.284,4.2715,4.2986,4.2986,4.2986,4.2986,4.2986,4.2986,4.2986,4.2986,4.2986,4.3406,4.4481,4.3713,4.3797,4.6135,4.4427,4.3436,4.4535,4.3657,4.2986,4.2986,4.2986,4.2986,4.2986,4.3062,4.3087,4.2986,4.269,4.2183,4.163,4.1376,4.1275,4.1275,4.0824,4.0953,4.148,4.148,4.1476,3.2737,3.5994,3.9181,4.0082,4.2654,4.489,4.452,4.5551,4.6764,4.7499,4.8778,4.9778,4.9599,4.9719,5.0092,5.105,5.1379,5.2097,5.3832,5.4221,5.4551,5.5119,5.5329,5.5418,5.5329,5.5329,5.476,5.3414,5.3234,5.2396,5.0554,5.0285,4.9657,4.8596,4.8386,4.8027,4.7429,4.7339,4.7309,4.7309,4.7309,4.7309,4.7309,4.7309,4.7309,4.7309,4.7309,4.7309,4.7309,4.7309,4.655,4.5252,4.4022,4.2738,4.1468,4.016,3.9697,3.9697,3.9697,3.98,4.0364,4.2738,4.3646,4.421,4.6594,4.7309,4.7429,4.7997,4.8147,4.7806,4.6252,4.5917,4.5424,4.3347,4.2911,4.2986,4.2986,4.2986,4.2986,4.2986,4.2986,4.2986,4.2986,4.2986,4.3073,4.324,4.3129,4.3129,4.3492,4.324,4.3073,4.324,4.3129,4.2986,4.2986,4.2986,4.2986,4.2986,4.3438,4.3489,4.2986,4.3363,4.3313,4.276,4.1831,4.1275,4.1275,4.12,4.1505,4.2112,4.2112,4.2363,3.3385,3.5013,3.6805,3.9335,4.1101,4.2452,4.3415,4.409,4.4688,4.5124,4.6224,4.7448,4.8537,4.906,4.9389,4.9553,4.9883,5.0571,5.1798,5.2636,5.3324,5.3982,5.473,5.5029,5.467,5.464,5.4072,5.2725,5.2636,5.1947,5.0285,4.9883,4.9254,4.8327,4.7938,4.7608,4.7309,4.7309,4.6931,4.6255,4.6975,4.6931,4.6255,4.6255,4.6638,4.7309,4.7309,4.7309,4.7266,4.655,4.5479,4.421,4.293,4.164,4.0465,3.9929,3.9697,3.9697,3.9697,3.9697,4.0134,4.2689,4.3504,4.3975,4.655,4.7549,4.7908,4.8207,4.8566,4.8565,4.7186,4.646,4.5738,4.4459,4.3802,4.3514,4.384,4.3413,4.2986,4.2986,4.2986,4.2986,4.2986,4.2986,4.2986,4.2986,4.2986,4.2986,4.2986,4.2986,4.2986,4.2986,4.2986,4.2986,4.2986,4.3263,4.3438,4.3438,4.3966,4.4016,4.3463,4.3664,4.3539,4.2986,4.2509,4.2258,4.2258,4.1957,4.2082,4.2665,4.2363,4.2514,3.3082,3.368,3.4518,3.7645,3.9222,4.0362,4.1839,4.2448,4.2786,4.3123,4.3851,4.4982,4.6735,4.7985,4.8656,4.8327,4.8686,4.9314,5.0076,5.1229,5.2187,5.2845,5.3982,5.4551,5.4251,5.4042,5.3533,5.2516,5.2127,5.1379,5.0062,4.9374,4.876,4.8057,4.7549,4.7309,4.7309,4.6975,4.6344,4.5389,4.6344,4.6299,4.5389,4.5734,4.6211,4.6814,4.6814,4.6814,4.6726,4.5779,4.4442,4.293,4.1985,4.0844,3.9697,3.9697,3.9697,3.9697,3.9697,3.9697,4.0083,4.2301,4.3266,4.3929,4.6166,4.742,4.8117,4.8446,4.894,4.8997,4.7664,4.696,4.625,4.4992,4.4352,4.4091,4.4342,4.3765,4.3137,4.3011,4.2986,4.3011,4.3162,4.3062,4.3037,4.3162,4.3062,4.2986,4.2986,4.2986,4.2986,4.2986,4.2986,4.3037,4.3162,4.3564,4.3865,4.3991,4.4543,4.4593,4.4041,4.4141,4.3966,4.3413,4.3263,4.3112,4.2986,4.2615,4.264,4.2961,4.2615,4.264,3.0839,3.2211,3.3473,3.4053,3.7133,3.9857,3.9419,4.0389,4.1607,4.2287,4.2137,4.2181,4.3484,4.5747,4.7608,4.8177,4.8327,4.8775,5.0016,5.0794,5.1498,5.2187,5.2845,5.3533,5.4162,5.3623,5.3204,5.3144,5.1977,5.069,4.9449,4.8686,4.8027,4.7369,4.7309,4.7309,4.7309,4.6121,4.5434,4.5389,4.5434,4.5434,4.5434,4.6638,4.6594,4.5508,4.5508,4.5508,4.5508,4.5434,4.3929,4.169,4.164,4.0844,3.9697,3.9697,3.9697,3.9697,3.9697,3.9697,3.9929,4.1269,4.2496,4.374,4.507,4.6373,4.7608,4.891,4.9269,4.8946,4.7516,4.7453,4.7132,4.4479,4.4224,4.4443,4.394,4.379,4.3614,4.3087,4.2986,4.3137,4.3664,4.3313,4.3162,4.3689,4.3313,4.2986,4.2986,4.2986,4.2986,4.2986,4.2986,4.3187,4.3714,4.379,4.4016,4.4543,4.5121,4.5171,4.4593,4.5121,4.5121,4.4543,4.4016,4.3514,4.2986,4.2936,4.2961,4.2986,4.2936,4.2961,2.9961,3.067,3.1653,3.3167,3.4804,3.627,3.6995,3.8304,3.9379,3.9269,4.0517,4.1739,4.223,4.4349,4.6135,4.6414,4.7126,4.7967,4.8865,4.9553,5.0361,5.1439,5.2157,5.2636,5.2905,5.2695,5.2366,5.1947,5.1079,5.0212,4.9359,4.8626,4.7967,4.7339,4.7309,4.6931,4.6121,4.5644,4.4581,4.2978,4.3787,4.4163,4.421,4.4627,4.507,4.5343,4.4535,4.4163,4.4116,4.3313,4.2398,4.1492,4.0693,4.0083,3.9697,3.9697,3.9697,3.9697,3.9697,3.9697,3.9929,4.1169,4.1936,4.2689,4.4794,4.6024,4.7092,4.8805,4.8975,4.8574,4.846,4.7564,4.6323,4.5157,4.5296,4.5547,4.4995,4.4317,4.374,4.3539,4.3212,4.3162,4.3714,4.3639,4.3689,4.4242,4.3865,4.3514,4.3514,4.3514,4.3514,4.3514,4.3815,4.4116,4.4317,4.4669,4.497,4.5171,4.5698,4.5773,4.5196,4.5372,4.5221,4.4644,4.4091,4.3714,4.3514,4.3162,4.2986,4.2986,4.2986,4.2986,2.9492,2.9668,3.0224,3.2023,3.3101,3.4004,3.5277,3.6589,3.7489,3.7084,3.8319,3.9496,3.9496,4.1629,4.3704,4.4627,4.5434,4.6312,4.7229,4.7894,4.8816,5.0076,5.102,5.1618,5.1858,5.1858,5.1768,5.1558,5.0541,4.9733,4.9329,4.8446,4.7758,4.7309,4.7309,4.6682,4.5389,4.4978,4.3693,4.1591,4.2882,4.3504,4.3551,4.4396,4.4794,4.472,4.3882,4.3266,4.2786,4.1936,4.1369,4.0895,4.0032,3.9697,3.9697,3.9697,3.9697,3.9697,3.9697,3.9697,3.9826,4.0693,4.1269,4.1936,4.3598,4.5032,4.6425,4.8185,4.8622,4.8584,4.8745,4.7294,4.5747,4.5759,4.605,4.62,4.5849,4.502,4.4267,4.3865,4.3514,4.3438,4.3991,4.3915,4.4041,4.4794,4.4443,4.4091,4.4091,4.4091,4.4091,4.4091,4.4392,4.4694,4.4895,4.5271,4.5573,4.5748,4.61,4.615,4.5773,4.5773,4.5573,4.5196,4.4644,4.4267,4.4066,4.3338,4.2986,4.2986,4.3162,4.3363,0.0,0.0,0.0,3.0508,3.2052,3.3401,3.4169,3.5214,3.596,3.6005,3.5624,3.5266,3.5288,3.7493,4.0133,4.2828,4.3409,4.3929,4.5161,4.5907,4.6799,4.8089,4.9343,5.0359,5.1092,5.1199,5.1498,5.2127,5.0361,4.9299,4.9299,4.8027,4.7309,4.7309,4.7266,4.6638,4.5343,4.4069,4.2786,4.1541,4.2786,4.3456,4.3598,4.6032,4.5779,4.3504,4.3456,4.2738,4.1541,4.1541,4.0844,3.9697,3.9697,3.9697,3.9697,3.9697,3.9697,3.9697,3.9697,3.9697,3.9697,3.9697,4.0567,4.1541,4.1617,4.3341,4.5585,4.7037,4.8265,4.8938,4.8029,4.6649,4.5623,4.6175,4.6301,4.6301,4.6301,4.5899,4.5171,4.4066,4.384,4.3991,4.4543,4.4192,4.4217,4.5321,4.4995,4.4618,4.4618,4.4618,4.4644,4.4644,4.4669,4.4895,4.5472,4.5522,4.5748,4.6276,4.6326,4.6326,4.6301,4.6326,4.6326,4.6301,4.5773,4.5221,4.4644,4.3539,4.2986,4.2986,4.3539,4.4091,3.0166,0.0,0.0,0.0,0.0,0.0,3.1277,3.2203,3.3167,3.3797,3.4373,3.4917,3.5221,3.5899,3.6687,3.744,4.0937,4.3646,4.3975,4.4162,4.4959,4.6724,4.7648,4.8781,5.0359,5.093,5.1289,5.1468,5.0122,4.9299,4.9299,4.8027,4.7309,4.7309,4.6388,4.5298,4.4022,4.2738,4.1518,4.0211,4.0592,4.1739,4.3504,4.3266,4.3313,4.3456,4.2544,4.1419,4.0211,4.0211,4.0032,3.9697,3.9697,3.9697,3.9697,3.9697,3.9697,3.9697,3.9697,3.9697,3.9697,3.9697,3.9929,4.0491,4.1767,4.2648,4.3879,4.7099,4.6806,4.5508,4.5497,4.5533,4.5623,4.6175,4.6301,4.6301,4.6301,4.6175,4.5874,4.5171,4.4694,4.4568,4.5146,4.5121,4.5121,4.5447,4.4995,4.4618,4.4618,4.4618,4.4794,4.5196,4.5598,4.5899,4.6075,4.6075,4.615,4.6301,4.6677,4.6728,4.6326,4.6702,4.6728,4.6326,4.5773,4.5422,4.5246,4.4116,4.3363,4.2986,4.3539,4.4091,3.0547,2.9887,2.9467,2.9266,0.0,0.0,3.0059,3.0574,3.1058,3.1513,3.2114,3.2678,3.3091,3.3655,3.4163,3.4382,3.7575,4.0461,4.1629,4.1803,4.262,4.4922,4.6479,4.7811,4.8951,5.0381,5.1229,5.1229,5.0002,4.906,4.8476,4.7728,4.7062,4.655,4.5779,4.4535,4.2738,4.1985,4.0995,3.9697,4.0211,4.1269,4.2689,4.2496,4.2496,4.2689,4.1936,4.0895,3.9697,3.9697,3.9697,3.9697,3.9697,3.9697,3.9697,3.9697,3.9697,3.9697,3.9697,3.9697,3.9697,3.9697,3.9697,3.9952,4.1209,4.198,4.3003,4.5751,4.5888,4.5225,4.5433,4.5664,4.5924,4.6225,4.6301,4.6301,4.6301,4.6301,4.615,4.5598,4.5221,4.5095,4.5422,4.5497,4.5497,4.5497,4.5196,4.4995,4.4995,4.4995,4.5196,4.5773,4.6125,4.6301,4.6301,4.6301,4.6301,4.6301,4.6828,4.6979,4.6677,4.6954,4.6918,4.6652,4.6125,4.5723,4.5497,4.4342,4.374,4.3689,4.4242,4.4794,3.1081,3.0514,3.0203,2.9769,2.927,0.0,2.9883,2.9766,2.9531,2.9685,2.9609,2.9707,3.0176,3.1369,3.2371,3.2788,3.3979,3.579,3.8546,3.9137,4.0235,4.2732,4.5372,4.7071,4.7384,4.951,5.0969,5.1063,4.9912,4.8626,4.7369,4.7309,4.6726,4.5434,4.5252,4.4022,4.1591,4.1468,4.0844,3.9697,4.0844,4.1468,4.164,4.2641,4.2544,4.1591,4.1468,4.0743,3.9697,3.9697,3.9697,3.9697,3.9697,3.9697,3.9697,3.9697,3.9697,3.9697,3.9697,3.9697,3.9697,3.9697,3.9697,3.9798,4.0425,4.1388,4.2498,4.3756,4.5334,4.6652,4.6484,4.6392,4.6301,4.6301,4.6301,4.6301,4.6301,4.6301,4.6175,4.5673,4.5573,4.5573,4.5573,4.5573,4.5573,4.5497,4.5497,4.5497,4.5497,4.5497,4.5698,4.625,4.6301,4.6301,4.6301,4.6301,4.6301,4.6301,4.6878,4.7179,4.7054,4.7154,4.7093,4.6993,4.6552,4.605,4.5497,4.4418,4.4192,4.4744,4.5246,4.5773,3.3767,3.1999,3.0266,3.0192,2.9501,0.0,2.9121,2.9101,2.9238,2.9941,2.9805,2.9805,3.0605,3.0974,3.1225,3.1305,3.1556,3.2758,3.5681,3.7493,3.8925,4.0058,4.2565,4.5051,4.7166,4.8315,4.9303,5.0329,4.9224,4.8147,4.7339,4.7309,4.6726,4.5434,4.4396,4.3122,4.1591,4.0592,3.9929,3.9697,3.9929,4.0592,4.1541,4.0794,4.0895,4.1541,4.0516,3.9929,3.9697,3.9697,3.9697,3.9697,3.9697,3.9697,3.9697,3.9697,3.9697,3.9697,3.9697,3.9697,3.9697,3.9697,3.9697,3.9873,4.0824,4.1314,4.1755,4.2924,4.4904,4.6455,4.5317,4.5624,4.6301,4.6301,4.6301,4.6301,4.6301,4.6301,4.6276,4.6175,4.615,4.615,4.615,4.615,4.5999,4.5547,4.5497,4.5497,4.5497,4.5497,4.5698,4.625,4.6301,4.6301,4.6301,4.6301,4.6301,4.6301,4.723,4.738,4.6502,4.7305,4.7355,4.6502,4.6376,4.605,4.5497,4.4794,4.4769,4.5321,4.5447,4.5773,3.4652,3.3377,3.2269,3.1848,3.0664,0.0,0.0,2.9272,2.8789,2.9434,2.9219,2.9199,3.0078,3.0059,3.0039,3.0469,3.0547,3.1182,3.2851,3.4762,3.6519,3.7847,4.0461,4.271,4.4088,4.6405,4.8231,4.9194,4.8354,4.7417,4.6403,4.5734,4.484,4.3551,4.2882,4.1936,4.0642,4.0032,3.9697,3.9697,3.9697,4.0032,4.0642,3.9981,4.0032,4.0592,3.9981,3.9697,3.9697,3.9697,3.9697,3.9697,3.9697,3.9697,3.9697,3.9697,3.9697,3.9697,3.9697,3.9697,3.9697,3.9697,3.9697,3.9898,4.0949,4.1731,4.2283,4.2811,4.4306,4.5488,4.4792,4.5472,4.6301,4.6301,4.6301,4.6301,4.6301,4.6301,4.6301,4.6301,4.6301,4.6301,4.6301,4.6301,4.6125,4.5573,4.5497,4.5497,4.5497,4.5497,4.5698,4.625,4.6301,4.6301,4.6301,4.6301,4.6301,4.6301,4.7079,4.728,4.6753,4.723,4.7129,4.6326,4.6301,4.6175,4.5899,4.5598,4.5472,4.5497,4.5773,4.605,3.5357,3.4868,3.4544,3.3793,3.2281,3.104,0.0,0.0,0.0,2.9208,2.8795,2.8652,2.9434,2.9277,2.9297,3.0078,3.0195,3.0391,3.0937,3.2307,3.3954,3.5821,3.8406,4.0314,4.0949,4.4556,4.7026,4.7552,4.6992,4.6175,4.5081,4.4069,4.293,4.164,4.1591,4.0969,3.9697,3.9697,3.9697,3.9697,3.9697,3.9697,3.9697,3.9697,3.9697,3.9697,3.9697,3.9697,3.9697,3.9697,3.9697,3.9697,3.9697,3.9697,3.9697,3.9697,3.9697,3.9697,3.9697,3.9697,3.9697,3.9697,3.9848,4.0174,4.1025,4.2108,4.2986,4.2986,4.3689,4.4493,4.4593,4.5397,4.6175,4.6276,4.6301,4.6301,4.6301,4.6301,4.6301,4.6301,4.6301,4.6301,4.6301,4.6301,4.615,4.5723,4.5648,4.5648,4.5648,4.5648,4.5824,4.625,4.6301,4.6301,4.6301,4.6301,4.6351,4.6451,4.6979,4.728,4.728,4.7118,4.6928,4.6476,4.6376,4.6301,4.6301,4.6301,4.6075,4.5648,4.61,4.6301,3.7492,3.6723,3.5673,3.5118,3.4188,3.3168,3.2345,0.0,3.0692,3.0734,0.0,2.9004,2.9492,0.0,0.0,3.0117,3.0195,3.0488,3.1328,3.1603,3.2313,3.3812,3.5565,3.7801,4.0711,4.3306,4.4857,4.4945,4.4308,4.3879,4.374,4.3598,4.293,4.164,4.1591,4.0969,3.9697,3.9697,3.9697,3.9697,3.9697,3.9697,3.9697,3.9697,3.9697,3.9697,3.9697,3.9697,3.9697,3.9697,3.9697,3.9697,3.9697,3.9697,3.9697,3.9697,3.9697,3.9697,3.9697,3.9697,3.9697,3.9697,4.035,4.1125,4.125,4.2108,4.2986,4.2986,4.3413,4.4016,4.4493,4.5095,4.5698,4.62,4.6301,4.6301,4.6301,4.6301,4.6301,4.6301,4.6301,4.6301,4.6301,4.6301,4.6276,4.6225,4.6225,4.6225,4.6225,4.6225,4.625,4.6301,4.6301,4.6301,4.6301,4.6301,4.6527,4.7004,4.7531,4.7832,4.7832,4.738,4.7043,4.6993,4.6552,4.6301,4.6301,4.6301,4.6276,4.6225,4.6276,4.6301,3.7939,3.7345,3.6702,3.68,3.5513,3.4129,3.4016,3.2229,3.0685,3.0958,0.0,0.0,0.0,0.0,0.0,0.0,3.0195,3.043,3.1055,3.1152,3.1565,3.2694,3.3917,3.6117,3.9708,4.2075,4.3519,4.389,4.3345,4.2824,4.2425,4.169,4.1019,4.0516,4.0516,4.0211,3.9697,3.9697,3.9697,3.9697,3.9697,3.9697,3.9697,3.9697,3.9697,3.9697,3.9697,3.9697,3.9697,3.9697,3.9697,3.9697,3.9697,3.9697,3.9697,3.9697,3.9697,3.9697,3.9697,3.9697,3.9747,4.0074,4.0701,4.1351,4.1731,4.2359,4.2986,4.2986,4.3614,4.4267,4.4166,4.5045,4.5949,4.5849,4.6075,4.6301,4.6301,4.6301,4.6301,4.6301,4.6301,4.6301,4.6301,4.6301,4.6301,4.6301,4.6301,4.6301,4.6301,4.6301,4.6301,4.6301,4.6301,4.6301,4.6301,4.6602,4.6878,4.7129,4.7631,4.7908,4.7908,4.7707,4.7431,4.7093,4.6903,4.6627,4.6301,4.6301,4.6301,4.6301,4.6301,4.6301,3.7965,3.7839,3.7663,3.7764,3.6579,3.5429,3.5501,3.3197,3.1123,3.1464,3.0023,0.0,0.0,0.0,2.9336,3.0078,0.0,3.0351,3.082,3.0898,3.1172,3.1894,3.3107,3.4989,3.7738,4.0072,4.1567,4.1997,4.1889,4.1613,4.1095,4.0211,3.9697,3.9697,3.9697,3.9697,3.9697,3.9697,3.9697,3.9697,3.9697,3.9697,3.9697,3.9697,3.9697,3.9697,3.9697,3.9697,3.9697,3.9697,3.9697,3.9697,3.9697,3.9697,3.9697,3.9697,3.9697,3.9697,3.9697,3.9798,3.9973,4.0375,4.1003,4.163,4.2087,4.259,4.2986,4.2986,4.3664,4.4342,4.4091,4.5045,4.6024,4.5773,4.6024,4.6301,4.6301,4.6301,4.6301,4.6301,4.6301,4.6301,4.6301,4.6301,4.6301,4.6301,4.6301,4.6301,4.6301,4.6301,4.6301,4.6301,4.6301,4.6301,4.6301,4.6803,4.7193,4.7556,4.8083,4.8385,4.8385,4.8234,4.7958,4.7581,4.7431,4.7154,4.6753,4.6602,4.6527,4.6527,4.6376,4.6301,3.7864,3.8391,3.8567,3.7487,3.7588,3.7639,3.6586,3.4544,3.2915,3.2915,3.1141,2.9587,2.957,2.9607,2.9687,3.0137,3.0195,0.0,0.0,3.0898,3.1055,3.1484,3.3189,3.4421,3.4576,3.6814,3.8268,3.8299,3.9216,3.9749,3.9749,3.9749,3.9697,3.9697,3.9697,3.9697,3.9697,3.9697,3.9697,3.9697,3.9697,3.9697,3.9697,3.9697,3.9697,3.9697,3.9697,3.9697,3.9697,3.9697,3.9697,3.9697,3.9697,3.9697,3.9697,3.9697,3.9697,3.9697,3.9697,4.0049,4.0501,4.0501,4.1254,4.2187,4.2213,4.259,4.2986,4.2986,4.3388,4.394,4.4468,4.5045,4.5648,4.615,4.6301,4.6301,4.6301,4.6301,4.6301,4.6301,4.6301,4.6301,4.6301,4.6301,4.6301,4.6301,4.6301,4.6301,4.6301,4.6301,4.6301,4.6301,4.6301,4.6301,4.6301,4.6803,4.7581,4.8661,4.9238,4.954,4.954,4.9038,4.8736,4.8711,4.8159,4.7883,4.7857,4.7355,4.7043,4.7043,4.6552,4.6301,3.7965,3.814,3.8216,3.7839,3.7864,3.7914,3.7538,3.618,3.4704,3.372,3.2234,3.0831,3.0148,2.998,3.0137,3.0586,3.0644,3.0703,0.0,3.0898,3.1055,3.1465,3.2924,3.3817,3.356,3.5957,3.7631,3.7715,3.8622,3.932,3.9672,3.9697,3.9697,3.9697,3.9697,3.9697,3.9697,3.9697,3.9697,3.9697,3.9697,3.9697,3.9697,3.9697,3.9697,3.9697,3.9697,3.9697,3.9697,3.9697,3.9697,3.9697,3.9697,3.9697,3.9697,3.9697,3.9697,3.9697,3.9697,4.0049,4.0576,4.0899,4.1555,4.2288,4.264,4.2891,4.2986,4.2986,4.3639,4.4292,4.4116,4.5045,4.5999,4.5799,4.605,4.6301,4.6301,4.6301,4.6301,4.6301,4.6301,4.6301,4.6301,4.6301,4.6301,4.6301,4.6301,4.6301,4.6301,4.6301,4.6301,4.6301,4.6301,4.6451,4.6828,4.7682,4.8535,4.9264,4.949,4.959,4.959,4.9414,4.9138,4.8786,4.8586,4.8284,4.7908,4.7732,4.7481,4.7129,4.6892,4.6652,3.7362,3.7563,3.7713,3.7713,3.7864,3.8015,3.8015,3.7091,3.5963,3.5027,3.3463,3.2058,3.1358,3.0831,3.0547,3.084,3.0898,3.0898,0.0,3.0898,3.0996,3.1269,3.2252,3.2857,3.2793,3.4753,3.6182,3.6595,3.777,3.8683,3.9396,3.9597,3.9697,3.9697,3.9697,3.9697,3.9697,3.9697,3.9697,3.9697,3.9697,3.9697,3.9697,3.9697,3.9697,3.9697,3.9697,3.9697,3.9697,3.9697,3.9697,3.9697,3.9697,3.9697,3.9697,3.9697,3.9697,3.9722,3.9923,4.035,4.0902,4.1455,4.2007,4.2564,4.2861,4.2986,4.2986,4.2986,4.3765,4.4543,4.4192,4.5196,4.6225,4.5874,4.605,4.6301,4.6301,4.6476,4.6602,4.6602,4.6753,4.6878,4.6878,4.6728,4.6602,4.6602,4.6602,4.6677,4.6853,4.6878,4.6878,4.6878,4.6878,4.7104,4.7682,4.836,4.9012,4.9565,4.959,4.959,4.959,4.959,4.9615,4.9665,4.9264,4.9088,4.9113,4.851,4.8033,4.7707,4.7506,4.723]}]]